<?xml version="1.0" encoding="UTF-8" standalone="no" ?>
<gpx xmlns="http://www.topografix.com/GPX/1/1" creator="www.cicloide.com" version="1.1" xmlns:xsi="http://www.w3.org/2001/XMLSchema-instance" xsi:schemaLocation="http://www.topografix.com/GPX/1/1 http://www.topografix.com/GPX/1/1/gpx.xsd">
  <trk>
    <name>www.cicloide.com 5111</name>
    <desc>www.cicloide.com 5111</desc>
    <trkseg>
      <trkpt lat="41.544383000" lon="1.885870000">
        <ele>265.00</ele>
        <time>2011-05-25T12:13:44Z</time>
      </trkpt>
      <trkpt lat="41.544573000" lon="1.885635000">
        <ele>266.00</ele>
        <time>2011-05-25T12:13:54Z</time>
      </trkpt>
      <trkpt lat="41.544738000" lon="1.885447000">
        <ele>263.00</ele>
        <time>2011-05-25T12:14:00Z</time>
      </trkpt>
      <trkpt lat="41.545000000" lon="1.885127000">
        <ele>261.50</ele>
        <time>2011-05-25T12:14:08Z</time>
      </trkpt>
      <trkpt lat="41.545680000" lon="1.884252000">
        <ele>261.50</ele>
        <time>2011-05-25T12:14:26Z</time>
      </trkpt>
      <trkpt lat="41.545675000" lon="1.884193000">
        <ele>261.50</ele>
        <time>2011-05-25T12:14:28Z</time>
      </trkpt>
      <trkpt lat="41.545572000" lon="1.884047000">
        <ele>260.50</ele>
        <time>2011-05-25T12:14:31Z</time>
      </trkpt>
      <trkpt lat="41.545467000" lon="1.883982000">
        <ele>260.00</ele>
        <time>2011-05-25T12:14:33Z</time>
      </trkpt>
      <trkpt lat="41.545307000" lon="1.883890000">
        <ele>260.00</ele>
        <time>2011-05-25T12:14:36Z</time>
      </trkpt>
      <trkpt lat="41.544982000" lon="1.883842000">
        <ele>259.50</ele>
        <time>2011-05-25T12:14:40Z</time>
      </trkpt>
      <trkpt lat="41.544733000" lon="1.883583000">
        <ele>259.00</ele>
        <time>2011-05-25T12:14:47Z</time>
      </trkpt>
      <trkpt lat="41.544700000" lon="1.883435000">
        <ele>259.00</ele>
        <time>2011-05-25T12:14:50Z</time>
      </trkpt>
      <trkpt lat="41.544683000" lon="1.883202000">
        <ele>257.00</ele>
        <time>2011-05-25T12:14:54Z</time>
      </trkpt>
      <trkpt lat="41.544678000" lon="1.883150000">
        <ele>257.00</ele>
        <time>2011-05-25T12:14:54Z</time>
      </trkpt>
      <trkpt lat="41.544707000" lon="1.883010000">
        <ele>256.50</ele>
        <time>2011-05-25T12:14:57Z</time>
      </trkpt>
      <trkpt lat="41.544760000" lon="1.882873000">
        <ele>258.00</ele>
        <time>2011-05-25T12:15:01Z</time>
      </trkpt>
      <trkpt lat="41.544782000" lon="1.882533000">
        <ele>258.50</ele>
        <time>2011-05-25T12:15:06Z</time>
      </trkpt>
      <trkpt lat="41.544740000" lon="1.882407000">
        <ele>258.50</ele>
        <time>2011-05-25T12:15:09Z</time>
      </trkpt>
      <trkpt lat="41.544593000" lon="1.882097000">
        <ele>257.00</ele>
        <time>2011-05-25T12:15:15Z</time>
      </trkpt>
      <trkpt lat="41.544203000" lon="1.881912000">
        <ele>254.50</ele>
        <time>2011-05-25T12:15:22Z</time>
      </trkpt>
      <trkpt lat="41.544033000" lon="1.881988000">
        <ele>254.00</ele>
        <time>2011-05-25T12:15:25Z</time>
      </trkpt>
      <trkpt lat="41.543872000" lon="1.882122000">
        <ele>254.00</ele>
        <time>2011-05-25T12:15:27Z</time>
      </trkpt>
      <trkpt lat="41.543827000" lon="1.882170000">
        <ele>255.50</ele>
        <time>2011-05-25T12:15:29Z</time>
      </trkpt>
      <trkpt lat="41.543715000" lon="1.882218000">
        <ele>255.50</ele>
        <time>2011-05-25T12:15:30Z</time>
      </trkpt>
      <trkpt lat="41.543485000" lon="1.882082000">
        <ele>255.00</ele>
        <time>2011-05-25T12:15:34Z</time>
      </trkpt>
      <trkpt lat="41.542867000" lon="1.881668000">
        <ele>256.00</ele>
        <time>2011-05-25T12:15:42Z</time>
      </trkpt>
      <trkpt lat="41.542782000" lon="1.881605000">
        <ele>254.50</ele>
        <time>2011-05-25T12:15:44Z</time>
      </trkpt>
      <trkpt lat="41.542695000" lon="1.881545000">
        <ele>251.50</ele>
        <time>2011-05-25T12:15:44Z</time>
      </trkpt>
      <trkpt lat="41.542603000" lon="1.881488000">
        <ele>250.50</ele>
        <time>2011-05-25T12:15:46Z</time>
      </trkpt>
      <trkpt lat="41.542278000" lon="1.881270000">
        <ele>250.50</ele>
        <time>2011-05-25T12:15:49Z</time>
      </trkpt>
      <trkpt lat="41.542135000" lon="1.881182000">
        <ele>249.00</ele>
        <time>2011-05-25T12:15:51Z</time>
      </trkpt>
      <trkpt lat="41.542067000" lon="1.881135000">
        <ele>249.50</ele>
        <time>2011-05-25T12:15:53Z</time>
      </trkpt>
      <trkpt lat="41.541963000" lon="1.881045000">
        <ele>250.00</ele>
        <time>2011-05-25T12:15:55Z</time>
      </trkpt>
      <trkpt lat="41.541848000" lon="1.880943000">
        <ele>247.00</ele>
        <time>2011-05-25T12:15:56Z</time>
      </trkpt>
      <trkpt lat="41.541730000" lon="1.880860000">
        <ele>246.50</ele>
        <time>2011-05-25T12:15:58Z</time>
      </trkpt>
      <trkpt lat="41.541215000" lon="1.880523000">
        <ele>240.50</ele>
        <time>2011-05-25T12:16:07Z</time>
      </trkpt>
      <trkpt lat="41.541140000" lon="1.880472000">
        <ele>241.00</ele>
        <time>2011-05-25T12:16:10Z</time>
      </trkpt>
      <trkpt lat="41.541092000" lon="1.880373000">
        <ele>240.00</ele>
        <time>2011-05-25T12:16:12Z</time>
      </trkpt>
      <trkpt lat="41.541152000" lon="1.879783000">
        <ele>238.00</ele>
        <time>2011-05-25T12:16:21Z</time>
      </trkpt>
      <trkpt lat="41.541182000" lon="1.879612000">
        <ele>238.00</ele>
        <time>2011-05-25T12:16:24Z</time>
      </trkpt>
      <trkpt lat="41.541253000" lon="1.879328000">
        <ele>239.50</ele>
        <time>2011-05-25T12:16:29Z</time>
      </trkpt>
      <trkpt lat="41.541337000" lon="1.879052000">
        <ele>239.00</ele>
        <time>2011-05-25T12:16:35Z</time>
      </trkpt>
      <trkpt lat="41.541550000" lon="1.878580000">
        <ele>237.00</ele>
        <time>2011-05-25T12:16:43Z</time>
      </trkpt>
      <trkpt lat="41.541630000" lon="1.878437000">
        <ele>238.00</ele>
        <time>2011-05-25T12:16:47Z</time>
      </trkpt>
      <trkpt lat="41.541687000" lon="1.878347000">
        <ele>238.50</ele>
        <time>2011-05-25T12:16:49Z</time>
      </trkpt>
      <trkpt lat="41.541717000" lon="1.878295000">
        <ele>237.50</ele>
        <time>2011-05-25T12:16:49Z</time>
      </trkpt>
      <trkpt lat="41.541780000" lon="1.878220000">
        <ele>239.00</ele>
        <time>2011-05-25T12:16:52Z</time>
      </trkpt>
      <trkpt lat="41.541902000" lon="1.878057000">
        <ele>239.50</ele>
        <time>2011-05-25T12:16:56Z</time>
      </trkpt>
      <trkpt lat="41.541987000" lon="1.877923000">
        <ele>238.00</ele>
        <time>2011-05-25T12:16:59Z</time>
      </trkpt>
      <trkpt lat="41.542063000" lon="1.877812000">
        <ele>238.50</ele>
        <time>2011-05-25T12:17:01Z</time>
      </trkpt>
      <trkpt lat="41.542083000" lon="1.877695000">
        <ele>238.50</ele>
        <time>2011-05-25T12:17:03Z</time>
      </trkpt>
      <trkpt lat="41.542100000" lon="1.877580000">
        <ele>237.50</ele>
        <time>2011-05-25T12:17:04Z</time>
      </trkpt>
      <trkpt lat="41.542123000" lon="1.877435000">
        <ele>238.50</ele>
        <time>2011-05-25T12:17:08Z</time>
      </trkpt>
      <trkpt lat="41.542140000" lon="1.877390000">
        <ele>237.50</ele>
        <time>2011-05-25T12:17:08Z</time>
      </trkpt>
      <trkpt lat="41.542170000" lon="1.877015000">
        <ele>238.50</ele>
        <time>2011-05-25T12:17:17Z</time>
      </trkpt>
      <trkpt lat="41.542178000" lon="1.876980000">
        <ele>236.50</ele>
        <time>2011-05-25T12:17:18Z</time>
      </trkpt>
      <trkpt lat="41.542202000" lon="1.876865000">
        <ele>238.50</ele>
        <time>2011-05-25T12:17:20Z</time>
      </trkpt>
      <trkpt lat="41.542218000" lon="1.876772000">
        <ele>237.00</ele>
        <time>2011-05-25T12:17:22Z</time>
      </trkpt>
      <trkpt lat="41.542237000" lon="1.876540000">
        <ele>236.00</ele>
        <time>2011-05-25T12:17:27Z</time>
      </trkpt>
      <trkpt lat="41.542272000" lon="1.876355000">
        <ele>237.00</ele>
        <time>2011-05-25T12:17:32Z</time>
      </trkpt>
      <trkpt lat="41.542317000" lon="1.876115000">
        <ele>240.50</ele>
        <time>2011-05-25T12:17:36Z</time>
      </trkpt>
      <trkpt lat="41.542367000" lon="1.875775000">
        <ele>242.50</ele>
        <time>2011-05-25T12:17:44Z</time>
      </trkpt>
      <trkpt lat="41.542380000" lon="1.875672000">
        <ele>241.50</ele>
        <time>2011-05-25T12:17:46Z</time>
      </trkpt>
      <trkpt lat="41.542405000" lon="1.875478000">
        <ele>242.00</ele>
        <time>2011-05-25T12:17:50Z</time>
      </trkpt>
      <trkpt lat="41.542468000" lon="1.875012000">
        <ele>240.50</ele>
        <time>2011-05-25T12:18:00Z</time>
      </trkpt>
      <trkpt lat="41.542478000" lon="1.874962000">
        <ele>240.50</ele>
        <time>2011-05-25T12:18:00Z</time>
      </trkpt>
      <trkpt lat="41.542598000" lon="1.874437000">
        <ele>244.00</ele>
        <time>2011-05-25T12:18:12Z</time>
      </trkpt>
      <trkpt lat="41.542622000" lon="1.874345000">
        <ele>245.50</ele>
        <time>2011-05-25T12:18:14Z</time>
      </trkpt>
      <trkpt lat="41.542723000" lon="1.873963000">
        <ele>247.00</ele>
        <time>2011-05-25T12:18:21Z</time>
      </trkpt>
      <trkpt lat="41.542882000" lon="1.873410000">
        <ele>247.00</ele>
        <time>2011-05-25T12:18:33Z</time>
      </trkpt>
      <trkpt lat="41.542905000" lon="1.873360000">
        <ele>247.00</ele>
        <time>2011-05-25T12:18:33Z</time>
      </trkpt>
      <trkpt lat="41.542993000" lon="1.873210000">
        <ele>246.00</ele>
        <time>2011-05-25T12:18:37Z</time>
      </trkpt>
      <trkpt lat="41.543460000" lon="1.872678000">
        <ele>248.00</ele>
        <time>2011-05-25T12:18:49Z</time>
      </trkpt>
      <trkpt lat="41.543550000" lon="1.872573000">
        <ele>247.50</ele>
        <time>2011-05-25T12:18:51Z</time>
      </trkpt>
      <trkpt lat="41.543648000" lon="1.872440000">
        <ele>245.00</ele>
        <time>2011-05-25T12:18:52Z</time>
      </trkpt>
      <trkpt lat="41.543887000" lon="1.872307000">
        <ele>245.50</ele>
        <time>2011-05-25T12:18:56Z</time>
      </trkpt>
      <trkpt lat="41.544320000" lon="1.872210000">
        <ele>245.00</ele>
        <time>2011-05-25T12:19:03Z</time>
      </trkpt>
      <trkpt lat="41.544460000" lon="1.872158000">
        <ele>243.00</ele>
        <time>2011-05-25T12:19:06Z</time>
      </trkpt>
      <trkpt lat="41.544667000" lon="1.872180000">
        <ele>243.50</ele>
        <time>2011-05-25T12:19:08Z</time>
      </trkpt>
      <trkpt lat="41.544732000" lon="1.872202000">
        <ele>242.50</ele>
        <time>2011-05-25T12:19:10Z</time>
      </trkpt>
      <trkpt lat="41.545030000" lon="1.872318000">
        <ele>242.00</ele>
        <time>2011-05-25T12:19:15Z</time>
      </trkpt>
      <trkpt lat="41.545215000" lon="1.872313000">
        <ele>240.50</ele>
        <time>2011-05-25T12:19:17Z</time>
      </trkpt>
      <trkpt lat="41.545553000" lon="1.872152000">
        <ele>240.00</ele>
        <time>2011-05-25T12:19:24Z</time>
      </trkpt>
      <trkpt lat="41.545930000" lon="1.871915000">
        <ele>241.00</ele>
        <time>2011-05-25T12:19:31Z</time>
      </trkpt>
      <trkpt lat="41.546042000" lon="1.871878000">
        <ele>239.50</ele>
        <time>2011-05-25T12:19:32Z</time>
      </trkpt>
      <trkpt lat="41.546102000" lon="1.871870000">
        <ele>239.50</ele>
        <time>2011-05-25T12:19:34Z</time>
      </trkpt>
      <trkpt lat="41.546547000" lon="1.871968000">
        <ele>240.00</ele>
        <time>2011-05-25T12:19:41Z</time>
      </trkpt>
      <trkpt lat="41.546713000" lon="1.871997000">
        <ele>237.50</ele>
        <time>2011-05-25T12:19:45Z</time>
      </trkpt>
      <trkpt lat="41.547042000" lon="1.872058000">
        <ele>237.50</ele>
        <time>2011-05-25T12:19:50Z</time>
      </trkpt>
      <trkpt lat="41.547097000" lon="1.872055000">
        <ele>237.50</ele>
        <time>2011-05-25T12:19:52Z</time>
      </trkpt>
      <trkpt lat="41.547378000" lon="1.871972000">
        <ele>234.00</ele>
        <time>2011-05-25T12:19:57Z</time>
      </trkpt>
      <trkpt lat="41.547432000" lon="1.871932000">
        <ele>233.50</ele>
        <time>2011-05-25T12:19:57Z</time>
      </trkpt>
      <trkpt lat="41.547708000" lon="1.871630000">
        <ele>236.50</ele>
        <time>2011-05-25T12:20:04Z</time>
      </trkpt>
      <trkpt lat="41.547960000" lon="1.871320000">
        <ele>241.50</ele>
        <time>2011-05-25T12:20:12Z</time>
      </trkpt>
      <trkpt lat="41.548185000" lon="1.871055000">
        <ele>244.00</ele>
        <time>2011-05-25T12:20:21Z</time>
      </trkpt>
      <trkpt lat="41.548342000" lon="1.870860000">
        <ele>243.50</ele>
        <time>2011-05-25T12:20:26Z</time>
      </trkpt>
      <trkpt lat="41.548480000" lon="1.870702000">
        <ele>245.50</ele>
        <time>2011-05-25T12:20:32Z</time>
      </trkpt>
      <trkpt lat="41.548498000" lon="1.870665000">
        <ele>245.50</ele>
        <time>2011-05-25T12:20:33Z</time>
      </trkpt>
      <trkpt lat="41.548530000" lon="1.870625000">
        <ele>244.00</ele>
        <time>2011-05-25T12:20:33Z</time>
      </trkpt>
      <trkpt lat="41.548725000" lon="1.870380000">
        <ele>246.00</ele>
        <time>2011-05-25T12:20:42Z</time>
      </trkpt>
      <trkpt lat="41.548743000" lon="1.870365000">
        <ele>246.50</ele>
        <time>2011-05-25T12:20:42Z</time>
      </trkpt>
      <trkpt lat="41.548812000" lon="1.870383000">
        <ele>246.00</ele>
        <time>2011-05-25T12:20:47Z</time>
      </trkpt>
      <trkpt lat="41.548862000" lon="1.870445000">
        <ele>247.00</ele>
        <time>2011-05-25T12:20:49Z</time>
      </trkpt>
      <trkpt lat="41.548885000" lon="1.870437000">
        <ele>247.00</ele>
        <time>2011-05-25T12:20:51Z</time>
      </trkpt>
      <trkpt lat="41.549092000" lon="1.870190000">
        <ele>247.50</ele>
        <time>2011-05-25T12:21:01Z</time>
      </trkpt>
      <trkpt lat="41.549425000" lon="1.869713000">
        <ele>253.50</ele>
        <time>2011-05-25T12:21:17Z</time>
      </trkpt>
      <trkpt lat="41.549442000" lon="1.869682000">
        <ele>254.00</ele>
        <time>2011-05-25T12:21:17Z</time>
      </trkpt>
      <trkpt lat="41.549502000" lon="1.869535000">
        <ele>254.50</ele>
        <time>2011-05-25T12:21:22Z</time>
      </trkpt>
      <trkpt lat="41.549550000" lon="1.869422000">
        <ele>253.00</ele>
        <time>2011-05-25T12:21:24Z</time>
      </trkpt>
      <trkpt lat="41.549615000" lon="1.869285000">
        <ele>254.00</ele>
        <time>2011-05-25T12:21:29Z</time>
      </trkpt>
      <trkpt lat="41.549648000" lon="1.869238000">
        <ele>256.50</ele>
        <time>2011-05-25T12:21:31Z</time>
      </trkpt>
      <trkpt lat="41.549703000" lon="1.869155000">
        <ele>258.00</ele>
        <time>2011-05-25T12:21:34Z</time>
      </trkpt>
      <trkpt lat="41.549900000" lon="1.868800000">
        <ele>261.00</ele>
        <time>2011-05-25T12:21:45Z</time>
      </trkpt>
      <trkpt lat="41.549992000" lon="1.868615000">
        <ele>260.00</ele>
        <time>2011-05-25T12:21:48Z</time>
      </trkpt>
      <trkpt lat="41.550025000" lon="1.868557000">
        <ele>261.00</ele>
        <time>2011-05-25T12:21:52Z</time>
      </trkpt>
      <trkpt lat="41.550048000" lon="1.868535000">
        <ele>261.50</ele>
        <time>2011-05-25T12:21:52Z</time>
      </trkpt>
      <trkpt lat="41.550245000" lon="1.868323000">
        <ele>260.50</ele>
        <time>2011-05-25T12:22:02Z</time>
      </trkpt>
      <trkpt lat="41.550308000" lon="1.868265000">
        <ele>261.50</ele>
        <time>2011-05-25T12:22:06Z</time>
      </trkpt>
      <trkpt lat="41.550340000" lon="1.868252000">
        <ele>263.00</ele>
        <time>2011-05-25T12:22:07Z</time>
      </trkpt>
      <trkpt lat="41.550373000" lon="1.868233000">
        <ele>263.00</ele>
        <time>2011-05-25T12:22:09Z</time>
      </trkpt>
      <trkpt lat="41.550415000" lon="1.868212000">
        <ele>264.50</ele>
        <time>2011-05-25T12:22:13Z</time>
      </trkpt>
      <trkpt lat="41.550435000" lon="1.868208000">
        <ele>264.50</ele>
        <time>2011-05-25T12:22:13Z</time>
      </trkpt>
      <trkpt lat="41.550453000" lon="1.868175000">
        <ele>263.00</ele>
        <time>2011-05-25T12:22:14Z</time>
      </trkpt>
      <trkpt lat="41.550558000" lon="1.868033000">
        <ele>263.50</ele>
        <time>2011-05-25T12:22:20Z</time>
      </trkpt>
      <trkpt lat="41.550675000" lon="1.867813000">
        <ele>261.50</ele>
        <time>2011-05-25T12:22:28Z</time>
      </trkpt>
      <trkpt lat="41.550760000" lon="1.867730000">
        <ele>260.50</ele>
        <time>2011-05-25T12:22:32Z</time>
      </trkpt>
      <trkpt lat="41.550925000" lon="1.867603000">
        <ele>260.50</ele>
        <time>2011-05-25T12:22:41Z</time>
      </trkpt>
      <trkpt lat="41.550945000" lon="1.867597000">
        <ele>263.00</ele>
        <time>2011-05-25T12:22:42Z</time>
      </trkpt>
      <trkpt lat="41.550985000" lon="1.867568000">
        <ele>264.00</ele>
        <time>2011-05-25T12:22:44Z</time>
      </trkpt>
      <trkpt lat="41.551003000" lon="1.867548000">
        <ele>265.50</ele>
        <time>2011-05-25T12:22:44Z</time>
      </trkpt>
      <trkpt lat="41.551020000" lon="1.867518000">
        <ele>264.50</ele>
        <time>2011-05-25T12:22:46Z</time>
      </trkpt>
      <trkpt lat="41.551082000" lon="1.867443000">
        <ele>265.00</ele>
        <time>2011-05-25T12:22:49Z</time>
      </trkpt>
      <trkpt lat="41.551100000" lon="1.867420000">
        <ele>266.50</ele>
        <time>2011-05-25T12:22:49Z</time>
      </trkpt>
      <trkpt lat="41.551212000" lon="1.867275000">
        <ele>264.50</ele>
        <time>2011-05-25T12:22:56Z</time>
      </trkpt>
      <trkpt lat="41.551248000" lon="1.867225000">
        <ele>265.50</ele>
        <time>2011-05-25T12:22:58Z</time>
      </trkpt>
      <trkpt lat="41.551282000" lon="1.867175000">
        <ele>263.00</ele>
        <time>2011-05-25T12:23:00Z</time>
      </trkpt>
      <trkpt lat="41.551298000" lon="1.867152000">
        <ele>263.00</ele>
        <time>2011-05-25T12:23:00Z</time>
      </trkpt>
      <trkpt lat="41.551318000" lon="1.867115000">
        <ele>259.50</ele>
        <time>2011-05-25T12:23:01Z</time>
      </trkpt>
      <trkpt lat="41.551377000" lon="1.867033000">
        <ele>258.00</ele>
        <time>2011-05-25T12:23:05Z</time>
      </trkpt>
      <trkpt lat="41.551438000" lon="1.866952000">
        <ele>260.50</ele>
        <time>2011-05-25T12:23:07Z</time>
      </trkpt>
      <trkpt lat="41.551480000" lon="1.866902000">
        <ele>264.00</ele>
        <time>2011-05-25T12:23:10Z</time>
      </trkpt>
      <trkpt lat="41.551518000" lon="1.866852000">
        <ele>265.50</ele>
        <time>2011-05-25T12:23:12Z</time>
      </trkpt>
      <trkpt lat="41.551580000" lon="1.866768000">
        <ele>263.50</ele>
        <time>2011-05-25T12:23:14Z</time>
      </trkpt>
      <trkpt lat="41.551708000" lon="1.866652000">
        <ele>263.50</ele>
        <time>2011-05-25T12:23:21Z</time>
      </trkpt>
      <trkpt lat="41.551727000" lon="1.866633000">
        <ele>264.50</ele>
        <time>2011-05-25T12:23:22Z</time>
      </trkpt>
      <trkpt lat="41.551778000" lon="1.866592000">
        <ele>264.50</ele>
        <time>2011-05-25T12:23:24Z</time>
      </trkpt>
      <trkpt lat="41.551882000" lon="1.866400000">
        <ele>259.50</ele>
        <time>2011-05-25T12:23:31Z</time>
      </trkpt>
      <trkpt lat="41.551912000" lon="1.866262000">
        <ele>259.00</ele>
        <time>2011-05-25T12:23:36Z</time>
      </trkpt>
      <trkpt lat="41.551938000" lon="1.866147000">
        <ele>262.00</ele>
        <time>2011-05-25T12:23:38Z</time>
      </trkpt>
      <trkpt lat="41.551955000" lon="1.866078000">
        <ele>262.50</ele>
        <time>2011-05-25T12:23:40Z</time>
      </trkpt>
      <trkpt lat="41.551997000" lon="1.865950000">
        <ele>269.50</ele>
        <time>2011-05-25T12:23:45Z</time>
      </trkpt>
      <trkpt lat="41.552027000" lon="1.865888000">
        <ele>270.50</ele>
        <time>2011-05-25T12:23:47Z</time>
      </trkpt>
      <trkpt lat="41.552127000" lon="1.865747000">
        <ele>277.50</ele>
        <time>2011-05-25T12:23:52Z</time>
      </trkpt>
      <trkpt lat="41.552337000" lon="1.865460000">
        <ele>283.50</ele>
        <time>2011-05-25T12:24:04Z</time>
      </trkpt>
      <trkpt lat="41.552370000" lon="1.865413000">
        <ele>283.00</ele>
        <time>2011-05-25T12:24:06Z</time>
      </trkpt>
      <trkpt lat="41.552532000" lon="1.865238000">
        <ele>287.50</ele>
        <time>2011-05-25T12:24:16Z</time>
      </trkpt>
      <trkpt lat="41.552588000" lon="1.865173000">
        <ele>287.50</ele>
        <time>2011-05-25T12:24:18Z</time>
      </trkpt>
      <trkpt lat="41.552610000" lon="1.865152000">
        <ele>286.50</ele>
        <time>2011-05-25T12:24:20Z</time>
      </trkpt>
      <trkpt lat="41.552632000" lon="1.865137000">
        <ele>287.50</ele>
        <time>2011-05-25T12:24:20Z</time>
      </trkpt>
      <trkpt lat="41.552763000" lon="1.864997000">
        <ele>284.00</ele>
        <time>2011-05-25T12:24:27Z</time>
      </trkpt>
      <trkpt lat="41.552795000" lon="1.864950000">
        <ele>284.00</ele>
        <time>2011-05-25T12:24:30Z</time>
      </trkpt>
      <trkpt lat="41.552922000" lon="1.864733000">
        <ele>287.00</ele>
        <time>2011-05-25T12:24:39Z</time>
      </trkpt>
      <trkpt lat="41.552952000" lon="1.864655000">
        <ele>289.00</ele>
        <time>2011-05-25T12:24:41Z</time>
      </trkpt>
      <trkpt lat="41.553027000" lon="1.864407000">
        <ele>291.00</ele>
        <time>2011-05-25T12:24:51Z</time>
      </trkpt>
      <trkpt lat="41.553035000" lon="1.864330000">
        <ele>289.50</ele>
        <time>2011-05-25T12:24:53Z</time>
      </trkpt>
      <trkpt lat="41.553105000" lon="1.863903000">
        <ele>289.50</ele>
        <time>2011-05-25T12:25:05Z</time>
      </trkpt>
      <trkpt lat="41.553110000" lon="1.863875000">
        <ele>290.50</ele>
        <time>2011-05-25T12:25:07Z</time>
      </trkpt>
      <trkpt lat="41.553113000" lon="1.863813000">
        <ele>290.50</ele>
        <time>2011-05-25T12:25:09Z</time>
      </trkpt>
      <trkpt lat="41.553180000" lon="1.863518000">
        <ele>287.50</ele>
        <time>2011-05-25T12:25:17Z</time>
      </trkpt>
      <trkpt lat="41.553215000" lon="1.863293000">
        <ele>289.50</ele>
        <time>2011-05-25T12:25:24Z</time>
      </trkpt>
      <trkpt lat="41.553223000" lon="1.863233000">
        <ele>289.00</ele>
        <time>2011-05-25T12:25:26Z</time>
      </trkpt>
      <trkpt lat="41.553227000" lon="1.863205000">
        <ele>287.50</ele>
        <time>2011-05-25T12:25:28Z</time>
      </trkpt>
      <trkpt lat="41.553242000" lon="1.863180000">
        <ele>288.00</ele>
        <time>2011-05-25T12:25:28Z</time>
      </trkpt>
      <trkpt lat="41.553248000" lon="1.863083000">
        <ele>286.50</ele>
        <time>2011-05-25T12:25:31Z</time>
      </trkpt>
      <trkpt lat="41.553257000" lon="1.862940000">
        <ele>287.00</ele>
        <time>2011-05-25T12:25:36Z</time>
      </trkpt>
      <trkpt lat="41.553277000" lon="1.862807000">
        <ele>286.00</ele>
        <time>2011-05-25T12:25:42Z</time>
      </trkpt>
      <trkpt lat="41.553283000" lon="1.862775000">
        <ele>286.50</ele>
        <time>2011-05-25T12:25:42Z</time>
      </trkpt>
      <trkpt lat="41.553338000" lon="1.862633000">
        <ele>287.50</ele>
        <time>2011-05-25T12:25:47Z</time>
      </trkpt>
      <trkpt lat="41.553363000" lon="1.862590000">
        <ele>290.50</ele>
        <time>2011-05-25T12:25:49Z</time>
      </trkpt>
      <trkpt lat="41.553397000" lon="1.862517000">
        <ele>292.50</ele>
        <time>2011-05-25T12:25:52Z</time>
      </trkpt>
      <trkpt lat="41.553412000" lon="1.862473000">
        <ele>295.00</ele>
        <time>2011-05-25T12:25:54Z</time>
      </trkpt>
      <trkpt lat="41.553415000" lon="1.862447000">
        <ele>296.00</ele>
        <time>2011-05-25T12:25:56Z</time>
      </trkpt>
      <trkpt lat="41.553418000" lon="1.862418000">
        <ele>295.50</ele>
        <time>2011-05-25T12:25:57Z</time>
      </trkpt>
      <trkpt lat="41.553425000" lon="1.862390000">
        <ele>293.50</ele>
        <time>2011-05-25T12:25:57Z</time>
      </trkpt>
      <trkpt lat="41.553428000" lon="1.862320000">
        <ele>292.50</ele>
        <time>2011-05-25T12:25:59Z</time>
      </trkpt>
      <trkpt lat="41.553483000" lon="1.862075000">
        <ele>292.00</ele>
        <time>2011-05-25T12:26:08Z</time>
      </trkpt>
      <trkpt lat="41.553500000" lon="1.861957000">
        <ele>293.00</ele>
        <time>2011-05-25T12:26:11Z</time>
      </trkpt>
      <trkpt lat="41.553500000" lon="1.861688000">
        <ele>290.50</ele>
        <time>2011-05-25T12:26:20Z</time>
      </trkpt>
      <trkpt lat="41.553508000" lon="1.861593000">
        <ele>287.50</ele>
        <time>2011-05-25T12:26:23Z</time>
      </trkpt>
      <trkpt lat="41.553547000" lon="1.861415000">
        <ele>287.00</ele>
        <time>2011-05-25T12:26:29Z</time>
      </trkpt>
      <trkpt lat="41.553583000" lon="1.861333000">
        <ele>286.50</ele>
        <time>2011-05-25T12:26:34Z</time>
      </trkpt>
      <trkpt lat="41.553617000" lon="1.861307000">
        <ele>287.50</ele>
        <time>2011-05-25T12:26:36Z</time>
      </trkpt>
      <trkpt lat="41.553643000" lon="1.861308000">
        <ele>290.50</ele>
        <time>2011-05-25T12:26:39Z</time>
      </trkpt>
      <trkpt lat="41.553680000" lon="1.861273000">
        <ele>293.00</ele>
        <time>2011-05-25T12:26:41Z</time>
      </trkpt>
      <trkpt lat="41.553750000" lon="1.860980000">
        <ele>296.00</ele>
        <time>2011-05-25T12:26:50Z</time>
      </trkpt>
      <trkpt lat="41.553757000" lon="1.860958000">
        <ele>297.50</ele>
        <time>2011-05-25T12:26:51Z</time>
      </trkpt>
      <trkpt lat="41.553787000" lon="1.860922000">
        <ele>298.50</ele>
        <time>2011-05-25T12:26:53Z</time>
      </trkpt>
      <trkpt lat="41.553798000" lon="1.860923000">
        <ele>300.50</ele>
        <time>2011-05-25T12:26:55Z</time>
      </trkpt>
      <trkpt lat="41.553825000" lon="1.861045000">
        <ele>299.50</ele>
        <time>2011-05-25T12:27:00Z</time>
      </trkpt>
      <trkpt lat="41.553828000" lon="1.861067000">
        <ele>299.00</ele>
        <time>2011-05-25T12:27:02Z</time>
      </trkpt>
      <trkpt lat="41.553815000" lon="1.861223000">
        <ele>296.50</ele>
        <time>2011-05-25T12:27:09Z</time>
      </trkpt>
      <trkpt lat="41.553815000" lon="1.861338000">
        <ele>297.00</ele>
        <time>2011-05-25T12:27:14Z</time>
      </trkpt>
      <trkpt lat="41.553822000" lon="1.861475000">
        <ele>295.50</ele>
        <time>2011-05-25T12:27:19Z</time>
      </trkpt>
      <trkpt lat="41.553803000" lon="1.861477000">
        <ele>295.00</ele>
        <time>2011-05-25T12:27:21Z</time>
      </trkpt>
      <trkpt lat="41.553738000" lon="1.861748000">
        <ele>294.50</ele>
        <time>2011-05-25T12:27:33Z</time>
      </trkpt>
      <trkpt lat="41.553742000" lon="1.861775000">
        <ele>296.00</ele>
        <time>2011-05-25T12:27:33Z</time>
      </trkpt>
      <trkpt lat="41.553698000" lon="1.861957000">
        <ele>296.00</ele>
        <time>2011-05-25T12:27:42Z</time>
      </trkpt>
      <trkpt lat="41.553695000" lon="1.862032000">
        <ele>299.00</ele>
        <time>2011-05-25T12:27:47Z</time>
      </trkpt>
      <trkpt lat="41.553667000" lon="1.862093000">
        <ele>300.50</ele>
        <time>2011-05-25T12:27:52Z</time>
      </trkpt>
      <trkpt lat="41.553675000" lon="1.862107000">
        <ele>300.50</ele>
        <time>2011-05-25T12:27:52Z</time>
      </trkpt>
      <trkpt lat="41.553705000" lon="1.862162000">
        <ele>303.50</ele>
        <time>2011-05-25T12:27:56Z</time>
      </trkpt>
      <trkpt lat="41.553758000" lon="1.862242000">
        <ele>306.50</ele>
        <time>2011-05-25T12:27:59Z</time>
      </trkpt>
      <trkpt lat="41.553807000" lon="1.862250000">
        <ele>311.00</ele>
        <time>2011-05-25T12:28:03Z</time>
      </trkpt>
      <trkpt lat="41.553817000" lon="1.862220000">
        <ele>314.50</ele>
        <time>2011-05-25T12:28:06Z</time>
      </trkpt>
      <trkpt lat="41.553823000" lon="1.862215000">
        <ele>317.00</ele>
        <time>2011-05-25T12:28:08Z</time>
      </trkpt>
      <trkpt lat="41.553835000" lon="1.862203000">
        <ele>317.00</ele>
        <time>2011-05-25T12:28:08Z</time>
      </trkpt>
      <trkpt lat="41.553845000" lon="1.862192000">
        <ele>318.50</ele>
        <time>2011-05-25T12:28:10Z</time>
      </trkpt>
      <trkpt lat="41.553873000" lon="1.862192000">
        <ele>319.00</ele>
        <time>2011-05-25T12:28:12Z</time>
      </trkpt>
      <trkpt lat="41.554038000" lon="1.862108000">
        <ele>317.50</ele>
        <time>2011-05-25T12:28:20Z</time>
      </trkpt>
      <trkpt lat="41.554105000" lon="1.862048000">
        <ele>320.50</ele>
        <time>2011-05-25T12:28:25Z</time>
      </trkpt>
      <trkpt lat="41.554120000" lon="1.862055000">
        <ele>320.50</ele>
        <time>2011-05-25T12:28:27Z</time>
      </trkpt>
      <trkpt lat="41.554120000" lon="1.862232000">
        <ele>321.50</ele>
        <time>2011-05-25T12:28:34Z</time>
      </trkpt>
      <trkpt lat="41.554102000" lon="1.862333000">
        <ele>323.50</ele>
        <time>2011-05-25T12:28:38Z</time>
      </trkpt>
      <trkpt lat="41.554065000" lon="1.862477000">
        <ele>323.50</ele>
        <time>2011-05-25T12:28:43Z</time>
      </trkpt>
      <trkpt lat="41.554095000" lon="1.862575000">
        <ele>324.50</ele>
        <time>2011-05-25T12:28:48Z</time>
      </trkpt>
      <trkpt lat="41.554125000" lon="1.862610000">
        <ele>326.50</ele>
        <time>2011-05-25T12:28:50Z</time>
      </trkpt>
      <trkpt lat="41.554143000" lon="1.862625000">
        <ele>326.00</ele>
        <time>2011-05-25T12:28:50Z</time>
      </trkpt>
      <trkpt lat="41.554168000" lon="1.862630000">
        <ele>327.50</ele>
        <time>2011-05-25T12:28:53Z</time>
      </trkpt>
      <trkpt lat="41.554175000" lon="1.862602000">
        <ele>327.50</ele>
        <time>2011-05-25T12:28:53Z</time>
      </trkpt>
      <trkpt lat="41.554188000" lon="1.862622000">
        <ele>334.00</ele>
        <time>2011-05-25T12:28:57Z</time>
      </trkpt>
      <trkpt lat="41.554193000" lon="1.862600000">
        <ele>334.50</ele>
        <time>2011-05-25T12:28:57Z</time>
      </trkpt>
      <trkpt lat="41.554203000" lon="1.862542000">
        <ele>333.50</ele>
        <time>2011-05-25T12:29:00Z</time>
      </trkpt>
      <trkpt lat="41.554218000" lon="1.862482000">
        <ele>335.50</ele>
        <time>2011-05-25T12:29:02Z</time>
      </trkpt>
      <trkpt lat="41.554227000" lon="1.862393000">
        <ele>335.50</ele>
        <time>2011-05-25T12:29:04Z</time>
      </trkpt>
      <trkpt lat="41.554252000" lon="1.862180000">
        <ele>333.50</ele>
        <time>2011-05-25T12:29:11Z</time>
      </trkpt>
      <trkpt lat="41.554263000" lon="1.862117000">
        <ele>331.00</ele>
        <time>2011-05-25T12:29:12Z</time>
      </trkpt>
      <trkpt lat="41.554270000" lon="1.861947000">
        <ele>331.50</ele>
        <time>2011-05-25T12:29:18Z</time>
      </trkpt>
      <trkpt lat="41.554285000" lon="1.861868000">
        <ele>333.50</ele>
        <time>2011-05-25T12:29:21Z</time>
      </trkpt>
      <trkpt lat="41.554290000" lon="1.861850000">
        <ele>335.50</ele>
        <time>2011-05-25T12:29:23Z</time>
      </trkpt>
      <trkpt lat="41.554300000" lon="1.861795000">
        <ele>337.00</ele>
        <time>2011-05-25T12:29:25Z</time>
      </trkpt>
      <trkpt lat="41.554323000" lon="1.861720000">
        <ele>339.50</ele>
        <time>2011-05-25T12:29:28Z</time>
      </trkpt>
      <trkpt lat="41.554335000" lon="1.861667000">
        <ele>339.00</ele>
        <time>2011-05-25T12:29:30Z</time>
      </trkpt>
      <trkpt lat="41.554350000" lon="1.861613000">
        <ele>341.00</ele>
        <time>2011-05-25T12:29:32Z</time>
      </trkpt>
      <trkpt lat="41.554358000" lon="1.861588000">
        <ele>340.00</ele>
        <time>2011-05-25T12:29:33Z</time>
      </trkpt>
      <trkpt lat="41.554390000" lon="1.861490000">
        <ele>342.50</ele>
        <time>2011-05-25T12:29:37Z</time>
      </trkpt>
      <trkpt lat="41.554402000" lon="1.861440000">
        <ele>341.50</ele>
        <time>2011-05-25T12:29:39Z</time>
      </trkpt>
      <trkpt lat="41.554453000" lon="1.861228000">
        <ele>342.50</ele>
        <time>2011-05-25T12:29:47Z</time>
      </trkpt>
      <trkpt lat="41.554457000" lon="1.861175000">
        <ele>341.00</ele>
        <time>2011-05-25T12:29:49Z</time>
      </trkpt>
      <trkpt lat="41.554498000" lon="1.861147000">
        <ele>344.00</ele>
        <time>2011-05-25T12:29:54Z</time>
      </trkpt>
      <trkpt lat="41.554510000" lon="1.861148000">
        <ele>344.00</ele>
        <time>2011-05-25T12:29:54Z</time>
      </trkpt>
      <trkpt lat="41.554523000" lon="1.861160000">
        <ele>344.00</ele>
        <time>2011-05-25T12:29:56Z</time>
      </trkpt>
      <trkpt lat="41.554547000" lon="1.861208000">
        <ele>342.00</ele>
        <time>2011-05-25T12:29:58Z</time>
      </trkpt>
      <trkpt lat="41.554550000" lon="1.861300000">
        <ele>341.50</ele>
        <time>2011-05-25T12:30:03Z</time>
      </trkpt>
      <trkpt lat="41.554538000" lon="1.861397000">
        <ele>343.00</ele>
        <time>2011-05-25T12:30:06Z</time>
      </trkpt>
      <trkpt lat="41.554555000" lon="1.861512000">
        <ele>342.50</ele>
        <time>2011-05-25T12:30:12Z</time>
      </trkpt>
      <trkpt lat="41.554575000" lon="1.861555000">
        <ele>340.00</ele>
        <time>2011-05-25T12:30:13Z</time>
      </trkpt>
      <trkpt lat="41.554617000" lon="1.861680000">
        <ele>341.00</ele>
        <time>2011-05-25T12:30:19Z</time>
      </trkpt>
      <trkpt lat="41.554662000" lon="1.861792000">
        <ele>340.00</ele>
        <time>2011-05-25T12:30:24Z</time>
      </trkpt>
      <trkpt lat="41.554680000" lon="1.861863000">
        <ele>341.50</ele>
        <time>2011-05-25T12:30:27Z</time>
      </trkpt>
      <trkpt lat="41.554682000" lon="1.861890000">
        <ele>342.50</ele>
        <time>2011-05-25T12:30:29Z</time>
      </trkpt>
      <trkpt lat="41.554692000" lon="1.862152000">
        <ele>341.50</ele>
        <time>2011-05-25T12:30:38Z</time>
      </trkpt>
      <trkpt lat="41.554688000" lon="1.862230000">
        <ele>343.00</ele>
        <time>2011-05-25T12:30:41Z</time>
      </trkpt>
      <trkpt lat="41.554680000" lon="1.862338000">
        <ele>347.00</ele>
        <time>2011-05-25T12:30:45Z</time>
      </trkpt>
      <trkpt lat="41.554658000" lon="1.862573000">
        <ele>351.50</ele>
        <time>2011-05-25T12:30:55Z</time>
      </trkpt>
      <trkpt lat="41.554648000" lon="1.862650000">
        <ele>352.50</ele>
        <time>2011-05-25T12:30:57Z</time>
      </trkpt>
      <trkpt lat="41.554663000" lon="1.862698000">
        <ele>353.00</ele>
        <time>2011-05-25T12:30:59Z</time>
      </trkpt>
      <trkpt lat="41.554673000" lon="1.862713000">
        <ele>354.00</ele>
        <time>2011-05-25T12:31:00Z</time>
      </trkpt>
      <trkpt lat="41.554702000" lon="1.862710000">
        <ele>353.50</ele>
        <time>2011-05-25T12:31:02Z</time>
      </trkpt>
      <trkpt lat="41.554720000" lon="1.862690000">
        <ele>353.50</ele>
        <time>2011-05-25T12:31:04Z</time>
      </trkpt>
      <trkpt lat="41.554738000" lon="1.862615000">
        <ele>355.50</ele>
        <time>2011-05-25T12:31:09Z</time>
      </trkpt>
      <trkpt lat="41.554788000" lon="1.862497000">
        <ele>355.50</ele>
        <time>2011-05-25T12:31:14Z</time>
      </trkpt>
      <trkpt lat="41.554805000" lon="1.862453000">
        <ele>357.00</ele>
        <time>2011-05-25T12:31:16Z</time>
      </trkpt>
      <trkpt lat="41.554848000" lon="1.862353000">
        <ele>356.00</ele>
        <time>2011-05-25T12:31:21Z</time>
      </trkpt>
      <trkpt lat="41.554888000" lon="1.862218000">
        <ele>356.50</ele>
        <time>2011-05-25T12:31:25Z</time>
      </trkpt>
      <trkpt lat="41.554923000" lon="1.862120000">
        <ele>355.00</ele>
        <time>2011-05-25T12:31:30Z</time>
      </trkpt>
      <trkpt lat="41.554965000" lon="1.861910000">
        <ele>358.00</ele>
        <time>2011-05-25T12:31:37Z</time>
      </trkpt>
      <trkpt lat="41.554983000" lon="1.861908000">
        <ele>358.00</ele>
        <time>2011-05-25T12:31:39Z</time>
      </trkpt>
      <trkpt lat="41.554987000" lon="1.861822000">
        <ele>357.50</ele>
        <time>2011-05-25T12:31:42Z</time>
      </trkpt>
      <trkpt lat="41.554990000" lon="1.861787000">
        <ele>359.00</ele>
        <time>2011-05-25T12:31:42Z</time>
      </trkpt>
      <trkpt lat="41.554982000" lon="1.861522000">
        <ele>355.00</ele>
        <time>2011-05-25T12:31:51Z</time>
      </trkpt>
      <trkpt lat="41.554992000" lon="1.861260000">
        <ele>355.00</ele>
        <time>2011-05-25T12:31:58Z</time>
      </trkpt>
      <trkpt lat="41.554992000" lon="1.861227000">
        <ele>357.00</ele>
        <time>2011-05-25T12:32:00Z</time>
      </trkpt>
      <trkpt lat="41.554995000" lon="1.861195000">
        <ele>357.00</ele>
        <time>2011-05-25T12:32:00Z</time>
      </trkpt>
      <trkpt lat="41.555043000" lon="1.860885000">
        <ele>359.50</ele>
        <time>2011-05-25T12:32:10Z</time>
      </trkpt>
      <trkpt lat="41.555092000" lon="1.860587000">
        <ele>367.00</ele>
        <time>2011-05-25T12:32:22Z</time>
      </trkpt>
      <trkpt lat="41.555115000" lon="1.860505000">
        <ele>366.50</ele>
        <time>2011-05-25T12:32:24Z</time>
      </trkpt>
      <trkpt lat="41.555122000" lon="1.860482000">
        <ele>367.00</ele>
        <time>2011-05-25T12:32:26Z</time>
      </trkpt>
      <trkpt lat="41.555235000" lon="1.860372000">
        <ele>369.00</ele>
        <time>2011-05-25T12:32:33Z</time>
      </trkpt>
      <trkpt lat="41.555250000" lon="1.860383000">
        <ele>369.00</ele>
        <time>2011-05-25T12:32:35Z</time>
      </trkpt>
      <trkpt lat="41.555257000" lon="1.860403000">
        <ele>368.50</ele>
        <time>2011-05-25T12:32:36Z</time>
      </trkpt>
      <trkpt lat="41.555248000" lon="1.860453000">
        <ele>371.00</ele>
        <time>2011-05-25T12:32:38Z</time>
      </trkpt>
      <trkpt lat="41.555245000" lon="1.860633000">
        <ele>373.00</ele>
        <time>2011-05-25T12:32:45Z</time>
      </trkpt>
      <trkpt lat="41.555250000" lon="1.860658000">
        <ele>372.00</ele>
        <time>2011-05-25T12:32:45Z</time>
      </trkpt>
      <trkpt lat="41.555252000" lon="1.860768000">
        <ele>371.00</ele>
        <time>2011-05-25T12:32:50Z</time>
      </trkpt>
      <trkpt lat="41.555252000" lon="1.860805000">
        <ele>369.50</ele>
        <time>2011-05-25T12:32:52Z</time>
      </trkpt>
      <trkpt lat="41.555262000" lon="1.860907000">
        <ele>368.00</ele>
        <time>2011-05-25T12:32:57Z</time>
      </trkpt>
      <trkpt lat="41.555275000" lon="1.861038000">
        <ele>370.50</ele>
        <time>2011-05-25T12:33:01Z</time>
      </trkpt>
      <trkpt lat="41.555278000" lon="1.861060000">
        <ele>372.00</ele>
        <time>2011-05-25T12:33:02Z</time>
      </trkpt>
      <trkpt lat="41.555310000" lon="1.861117000">
        <ele>374.00</ele>
        <time>2011-05-25T12:33:06Z</time>
      </trkpt>
      <trkpt lat="41.555393000" lon="1.861183000">
        <ele>375.00</ele>
        <time>2011-05-25T12:33:11Z</time>
      </trkpt>
      <trkpt lat="41.555467000" lon="1.861172000">
        <ele>374.00</ele>
        <time>2011-05-25T12:33:15Z</time>
      </trkpt>
      <trkpt lat="41.555493000" lon="1.861140000">
        <ele>374.00</ele>
        <time>2011-05-25T12:33:16Z</time>
      </trkpt>
      <trkpt lat="41.555540000" lon="1.861042000">
        <ele>375.00</ele>
        <time>2011-05-25T12:33:22Z</time>
      </trkpt>
      <trkpt lat="41.555688000" lon="1.860802000">
        <ele>380.50</ele>
        <time>2011-05-25T12:33:36Z</time>
      </trkpt>
      <trkpt lat="41.555747000" lon="1.860703000">
        <ele>384.50</ele>
        <time>2011-05-25T12:33:42Z</time>
      </trkpt>
      <trkpt lat="41.555785000" lon="1.860638000">
        <ele>385.00</ele>
        <time>2011-05-25T12:33:46Z</time>
      </trkpt>
      <trkpt lat="41.555807000" lon="1.860618000">
        <ele>386.50</ele>
        <time>2011-05-25T12:33:48Z</time>
      </trkpt>
      <trkpt lat="41.555883000" lon="1.860508000">
        <ele>388.50</ele>
        <time>2011-05-25T12:33:55Z</time>
      </trkpt>
      <trkpt lat="41.555987000" lon="1.860343000">
        <ele>393.00</ele>
        <time>2011-05-25T12:34:05Z</time>
      </trkpt>
      <trkpt lat="41.555992000" lon="1.860313000">
        <ele>392.00</ele>
        <time>2011-05-25T12:34:05Z</time>
      </trkpt>
      <trkpt lat="41.555998000" lon="1.860258000">
        <ele>392.00</ele>
        <time>2011-05-25T12:34:07Z</time>
      </trkpt>
      <trkpt lat="41.556000000" lon="1.860190000">
        <ele>393.50</ele>
        <time>2011-05-25T12:34:10Z</time>
      </trkpt>
      <trkpt lat="41.555992000" lon="1.860143000">
        <ele>393.00</ele>
        <time>2011-05-25T12:34:12Z</time>
      </trkpt>
      <trkpt lat="41.555982000" lon="1.860130000">
        <ele>394.50</ele>
        <time>2011-05-25T12:34:14Z</time>
      </trkpt>
      <trkpt lat="41.555977000" lon="1.860090000">
        <ele>394.00</ele>
        <time>2011-05-25T12:34:16Z</time>
      </trkpt>
      <trkpt lat="41.555945000" lon="1.860033000">
        <ele>396.00</ele>
        <time>2011-05-25T12:34:19Z</time>
      </trkpt>
      <trkpt lat="41.555918000" lon="1.859985000">
        <ele>395.00</ele>
        <time>2011-05-25T12:34:21Z</time>
      </trkpt>
      <trkpt lat="41.555885000" lon="1.859883000">
        <ele>395.00</ele>
        <time>2011-05-25T12:34:26Z</time>
      </trkpt>
      <trkpt lat="41.555883000" lon="1.859863000">
        <ele>395.50</ele>
        <time>2011-05-25T12:34:26Z</time>
      </trkpt>
      <trkpt lat="41.555985000" lon="1.859568000">
        <ele>397.50</ele>
        <time>2011-05-25T12:34:40Z</time>
      </trkpt>
      <trkpt lat="41.556042000" lon="1.859397000">
        <ele>395.50</ele>
        <time>2011-05-25T12:34:47Z</time>
      </trkpt>
      <trkpt lat="41.556062000" lon="1.859358000">
        <ele>396.50</ele>
        <time>2011-05-25T12:34:49Z</time>
      </trkpt>
      <trkpt lat="41.556058000" lon="1.859345000">
        <ele>398.50</ele>
        <time>2011-05-25T12:34:49Z</time>
      </trkpt>
      <trkpt lat="41.556072000" lon="1.859250000">
        <ele>400.00</ele>
        <time>2011-05-25T12:34:54Z</time>
      </trkpt>
      <trkpt lat="41.556082000" lon="1.859192000">
        <ele>398.00</ele>
        <time>2011-05-25T12:34:57Z</time>
      </trkpt>
      <trkpt lat="41.556103000" lon="1.859112000">
        <ele>399.50</ele>
        <time>2011-05-25T12:35:01Z</time>
      </trkpt>
      <trkpt lat="41.556140000" lon="1.858995000">
        <ele>399.00</ele>
        <time>2011-05-25T12:35:06Z</time>
      </trkpt>
      <trkpt lat="41.556212000" lon="1.858767000">
        <ele>400.00</ele>
        <time>2011-05-25T12:35:13Z</time>
      </trkpt>
      <trkpt lat="41.556218000" lon="1.858685000">
        <ele>401.50</ele>
        <time>2011-05-25T12:35:17Z</time>
      </trkpt>
      <trkpt lat="41.556272000" lon="1.858263000">
        <ele>401.00</ele>
        <time>2011-05-25T12:35:27Z</time>
      </trkpt>
      <trkpt lat="41.556312000" lon="1.858155000">
        <ele>402.50</ele>
        <time>2011-05-25T12:35:29Z</time>
      </trkpt>
      <trkpt lat="41.556390000" lon="1.857887000">
        <ele>402.00</ele>
        <time>2011-05-25T12:35:34Z</time>
      </trkpt>
      <trkpt lat="41.556595000" lon="1.857653000">
        <ele>402.50</ele>
        <time>2011-05-25T12:35:37Z</time>
      </trkpt>
      <trkpt lat="41.556728000" lon="1.857543000">
        <ele>399.50</ele>
        <time>2011-05-25T12:35:39Z</time>
      </trkpt>
      <trkpt lat="41.556860000" lon="1.857290000">
        <ele>401.00</ele>
        <time>2011-05-25T12:35:43Z</time>
      </trkpt>
      <trkpt lat="41.557000000" lon="1.856993000">
        <ele>399.00</ele>
        <time>2011-05-25T12:35:46Z</time>
      </trkpt>
      <trkpt lat="41.557070000" lon="1.856850000">
        <ele>397.50</ele>
        <time>2011-05-25T12:35:48Z</time>
      </trkpt>
      <trkpt lat="41.557223000" lon="1.856707000">
        <ele>394.50</ele>
        <time>2011-05-25T12:35:51Z</time>
      </trkpt>
      <trkpt lat="41.557282000" lon="1.856683000">
        <ele>392.50</ele>
        <time>2011-05-25T12:35:53Z</time>
      </trkpt>
      <trkpt lat="41.557385000" lon="1.856662000">
        <ele>392.00</ele>
        <time>2011-05-25T12:35:55Z</time>
      </trkpt>
      <trkpt lat="41.557440000" lon="1.856655000">
        <ele>390.00</ele>
        <time>2011-05-25T12:35:55Z</time>
      </trkpt>
      <trkpt lat="41.557498000" lon="1.856632000">
        <ele>389.50</ele>
        <time>2011-05-25T12:35:57Z</time>
      </trkpt>
      <trkpt lat="41.557567000" lon="1.856517000">
        <ele>387.50</ele>
        <time>2011-05-25T12:36:00Z</time>
      </trkpt>
      <trkpt lat="41.557553000" lon="1.856425000">
        <ele>386.50</ele>
        <time>2011-05-25T12:36:02Z</time>
      </trkpt>
      <trkpt lat="41.557537000" lon="1.856392000">
        <ele>384.50</ele>
        <time>2011-05-25T12:36:02Z</time>
      </trkpt>
      <trkpt lat="41.557452000" lon="1.856320000">
        <ele>382.50</ele>
        <time>2011-05-25T12:36:05Z</time>
      </trkpt>
      <trkpt lat="41.557373000" lon="1.856242000">
        <ele>377.00</ele>
        <time>2011-05-25T12:36:09Z</time>
      </trkpt>
      <trkpt lat="41.557358000" lon="1.856167000">
        <ele>374.00</ele>
        <time>2011-05-25T12:36:14Z</time>
      </trkpt>
      <trkpt lat="41.557293000" lon="1.856097000">
        <ele>372.50</ele>
        <time>2011-05-25T12:36:17Z</time>
      </trkpt>
      <trkpt lat="41.557277000" lon="1.856082000">
        <ele>373.00</ele>
        <time>2011-05-25T12:36:19Z</time>
      </trkpt>
      <trkpt lat="41.557263000" lon="1.856065000">
        <ele>372.00</ele>
        <time>2011-05-25T12:36:19Z</time>
      </trkpt>
      <trkpt lat="41.557153000" lon="1.856018000">
        <ele>374.00</ele>
        <time>2011-05-25T12:36:26Z</time>
      </trkpt>
      <trkpt lat="41.557113000" lon="1.856005000">
        <ele>373.00</ele>
        <time>2011-05-25T12:36:28Z</time>
      </trkpt>
      <trkpt lat="41.557067000" lon="1.855992000">
        <ele>373.50</ele>
        <time>2011-05-25T12:36:30Z</time>
      </trkpt>
      <trkpt lat="41.557042000" lon="1.855978000">
        <ele>377.00</ele>
        <time>2011-05-25T12:36:30Z</time>
      </trkpt>
      <trkpt lat="41.557015000" lon="1.855972000">
        <ele>378.50</ele>
        <time>2011-05-25T12:36:31Z</time>
      </trkpt>
      <trkpt lat="41.556965000" lon="1.855967000">
        <ele>380.50</ele>
        <time>2011-05-25T12:36:33Z</time>
      </trkpt>
      <trkpt lat="41.556898000" lon="1.855975000">
        <ele>381.50</ele>
        <time>2011-05-25T12:36:37Z</time>
      </trkpt>
      <trkpt lat="41.556877000" lon="1.855985000">
        <ele>381.50</ele>
        <time>2011-05-25T12:36:37Z</time>
      </trkpt>
      <trkpt lat="41.556860000" lon="1.856007000">
        <ele>380.00</ele>
        <time>2011-05-25T12:36:38Z</time>
      </trkpt>
      <trkpt lat="41.556837000" lon="1.856018000">
        <ele>381.00</ele>
        <time>2011-05-25T12:36:40Z</time>
      </trkpt>
      <trkpt lat="41.556760000" lon="1.856062000">
        <ele>380.50</ele>
        <time>2011-05-25T12:36:44Z</time>
      </trkpt>
      <trkpt lat="41.556550000" lon="1.856153000">
        <ele>382.00</ele>
        <time>2011-05-25T12:36:56Z</time>
      </trkpt>
      <trkpt lat="41.556512000" lon="1.856192000">
        <ele>381.00</ele>
        <time>2011-05-25T12:36:59Z</time>
      </trkpt>
      <trkpt lat="41.556383000" lon="1.856248000">
        <ele>383.50</ele>
        <time>2011-05-25T12:37:06Z</time>
      </trkpt>
      <trkpt lat="41.556370000" lon="1.856255000">
        <ele>384.00</ele>
        <time>2011-05-25T12:37:06Z</time>
      </trkpt>
      <trkpt lat="41.556330000" lon="1.856260000">
        <ele>387.50</ele>
        <time>2011-05-25T12:37:08Z</time>
      </trkpt>
      <trkpt lat="41.556257000" lon="1.856270000">
        <ele>388.50</ele>
        <time>2011-05-25T12:37:11Z</time>
      </trkpt>
      <trkpt lat="41.556233000" lon="1.856275000">
        <ele>388.00</ele>
        <time>2011-05-25T12:37:13Z</time>
      </trkpt>
      <trkpt lat="41.556212000" lon="1.856285000">
        <ele>386.00</ele>
        <time>2011-05-25T12:37:13Z</time>
      </trkpt>
      <trkpt lat="41.556150000" lon="1.856295000">
        <ele>387.00</ele>
        <time>2011-05-25T12:37:17Z</time>
      </trkpt>
      <trkpt lat="41.556130000" lon="1.856293000">
        <ele>387.50</ele>
        <time>2011-05-25T12:37:17Z</time>
      </trkpt>
      <trkpt lat="41.556053000" lon="1.856233000">
        <ele>387.00</ele>
        <time>2011-05-25T12:37:22Z</time>
      </trkpt>
      <trkpt lat="41.556043000" lon="1.856208000">
        <ele>387.00</ele>
        <time>2011-05-25T12:37:24Z</time>
      </trkpt>
      <trkpt lat="41.556033000" lon="1.856107000">
        <ele>388.00</ele>
        <time>2011-05-25T12:37:27Z</time>
      </trkpt>
      <trkpt lat="41.556057000" lon="1.856025000">
        <ele>390.00</ele>
        <time>2011-05-25T12:37:31Z</time>
      </trkpt>
      <trkpt lat="41.556078000" lon="1.855947000">
        <ele>391.00</ele>
        <time>2011-05-25T12:37:34Z</time>
      </trkpt>
      <trkpt lat="41.556098000" lon="1.855897000">
        <ele>391.00</ele>
        <time>2011-05-25T12:37:36Z</time>
      </trkpt>
      <trkpt lat="41.556113000" lon="1.855863000">
        <ele>393.00</ele>
        <time>2011-05-25T12:37:38Z</time>
      </trkpt>
      <trkpt lat="41.556127000" lon="1.855835000">
        <ele>393.50</ele>
        <time>2011-05-25T12:37:38Z</time>
      </trkpt>
      <trkpt lat="41.556137000" lon="1.855823000">
        <ele>395.50</ele>
        <time>2011-05-25T12:37:39Z</time>
      </trkpt>
      <trkpt lat="41.556163000" lon="1.855782000">
        <ele>397.00</ele>
        <time>2011-05-25T12:37:41Z</time>
      </trkpt>
      <trkpt lat="41.556205000" lon="1.855692000">
        <ele>395.50</ele>
        <time>2011-05-25T12:37:45Z</time>
      </trkpt>
      <trkpt lat="41.556217000" lon="1.855650000">
        <ele>397.00</ele>
        <time>2011-05-25T12:37:46Z</time>
      </trkpt>
      <trkpt lat="41.556265000" lon="1.855538000">
        <ele>397.00</ele>
        <time>2011-05-25T12:37:50Z</time>
      </trkpt>
      <trkpt lat="41.556305000" lon="1.855422000">
        <ele>400.00</ele>
        <time>2011-05-25T12:37:57Z</time>
      </trkpt>
      <trkpt lat="41.556330000" lon="1.855372000">
        <ele>400.00</ele>
        <time>2011-05-25T12:37:59Z</time>
      </trkpt>
      <trkpt lat="41.556393000" lon="1.855283000">
        <ele>402.50</ele>
        <time>2011-05-25T12:38:02Z</time>
      </trkpt>
      <trkpt lat="41.556492000" lon="1.855137000">
        <ele>400.00</ele>
        <time>2011-05-25T12:38:09Z</time>
      </trkpt>
      <trkpt lat="41.556553000" lon="1.854913000">
        <ele>405.00</ele>
        <time>2011-05-25T12:38:16Z</time>
      </trkpt>
      <trkpt lat="41.556560000" lon="1.854870000">
        <ele>405.00</ele>
        <time>2011-05-25T12:38:16Z</time>
      </trkpt>
      <trkpt lat="41.556573000" lon="1.854850000">
        <ele>406.50</ele>
        <time>2011-05-25T12:38:18Z</time>
      </trkpt>
      <trkpt lat="41.556587000" lon="1.854810000">
        <ele>406.50</ele>
        <time>2011-05-25T12:38:18Z</time>
      </trkpt>
      <trkpt lat="41.556650000" lon="1.854722000">
        <ele>407.00</ele>
        <time>2011-05-25T12:38:21Z</time>
      </trkpt>
      <trkpt lat="41.556713000" lon="1.854675000">
        <ele>408.50</ele>
        <time>2011-05-25T12:38:25Z</time>
      </trkpt>
      <trkpt lat="41.556785000" lon="1.854638000">
        <ele>407.50</ele>
        <time>2011-05-25T12:38:28Z</time>
      </trkpt>
      <trkpt lat="41.556860000" lon="1.854608000">
        <ele>408.00</ele>
        <time>2011-05-25T12:38:33Z</time>
      </trkpt>
      <trkpt lat="41.556885000" lon="1.854545000">
        <ele>408.00</ele>
        <time>2011-05-25T12:38:35Z</time>
      </trkpt>
      <trkpt lat="41.556893000" lon="1.854505000">
        <ele>410.00</ele>
        <time>2011-05-25T12:38:37Z</time>
      </trkpt>
      <trkpt lat="41.556900000" lon="1.854455000">
        <ele>410.50</ele>
        <time>2011-05-25T12:38:37Z</time>
      </trkpt>
      <trkpt lat="41.556900000" lon="1.854258000">
        <ele>411.00</ele>
        <time>2011-05-25T12:38:42Z</time>
      </trkpt>
      <trkpt lat="41.556873000" lon="1.854193000">
        <ele>411.50</ele>
        <time>2011-05-25T12:38:44Z</time>
      </trkpt>
      <trkpt lat="41.556857000" lon="1.854180000">
        <ele>411.00</ele>
        <time>2011-05-25T12:38:44Z</time>
      </trkpt>
      <trkpt lat="41.556767000" lon="1.854168000">
        <ele>408.00</ele>
        <time>2011-05-25T12:38:49Z</time>
      </trkpt>
      <trkpt lat="41.556672000" lon="1.854132000">
        <ele>407.00</ele>
        <time>2011-05-25T12:38:51Z</time>
      </trkpt>
      <trkpt lat="41.556572000" lon="1.854092000">
        <ele>407.50</ele>
        <time>2011-05-25T12:38:54Z</time>
      </trkpt>
      <trkpt lat="41.556523000" lon="1.854060000">
        <ele>409.50</ele>
        <time>2011-05-25T12:38:56Z</time>
      </trkpt>
      <trkpt lat="41.556480000" lon="1.854037000">
        <ele>407.00</ele>
        <time>2011-05-25T12:38:58Z</time>
      </trkpt>
      <trkpt lat="41.556458000" lon="1.854033000">
        <ele>406.50</ele>
        <time>2011-05-25T12:38:59Z</time>
      </trkpt>
      <trkpt lat="41.556360000" lon="1.854043000">
        <ele>403.50</ele>
        <time>2011-05-25T12:39:03Z</time>
      </trkpt>
      <trkpt lat="41.556315000" lon="1.854082000">
        <ele>404.00</ele>
        <time>2011-05-25T12:39:05Z</time>
      </trkpt>
      <trkpt lat="41.556268000" lon="1.854123000">
        <ele>402.50</ele>
        <time>2011-05-25T12:39:08Z</time>
      </trkpt>
      <trkpt lat="41.556243000" lon="1.854135000">
        <ele>403.50</ele>
        <time>2011-05-25T12:39:08Z</time>
      </trkpt>
      <trkpt lat="41.556167000" lon="1.854198000">
        <ele>402.00</ele>
        <time>2011-05-25T12:39:12Z</time>
      </trkpt>
      <trkpt lat="41.556098000" lon="1.854253000">
        <ele>403.50</ele>
        <time>2011-05-25T12:39:15Z</time>
      </trkpt>
      <trkpt lat="41.556068000" lon="1.854253000">
        <ele>405.50</ele>
        <time>2011-05-25T12:39:15Z</time>
      </trkpt>
      <trkpt lat="41.556013000" lon="1.854253000">
        <ele>405.50</ele>
        <time>2011-05-25T12:39:17Z</time>
      </trkpt>
      <trkpt lat="41.555985000" lon="1.854248000">
        <ele>407.00</ele>
        <time>2011-05-25T12:39:19Z</time>
      </trkpt>
      <trkpt lat="41.555967000" lon="1.854228000">
        <ele>407.50</ele>
        <time>2011-05-25T12:39:19Z</time>
      </trkpt>
      <trkpt lat="41.555923000" lon="1.854078000">
        <ele>407.00</ele>
        <time>2011-05-25T12:39:26Z</time>
      </trkpt>
      <trkpt lat="41.555908000" lon="1.853982000">
        <ele>410.50</ele>
        <time>2011-05-25T12:39:29Z</time>
      </trkpt>
      <trkpt lat="41.555915000" lon="1.853960000">
        <ele>411.50</ele>
        <time>2011-05-25T12:39:31Z</time>
      </trkpt>
      <trkpt lat="41.555930000" lon="1.853860000">
        <ele>413.50</ele>
        <time>2011-05-25T12:39:40Z</time>
      </trkpt>
      <trkpt lat="41.555957000" lon="1.853803000">
        <ele>415.50</ele>
        <time>2011-05-25T12:39:43Z</time>
      </trkpt>
      <trkpt lat="41.555978000" lon="1.853622000">
        <ele>414.50</ele>
        <time>2011-05-25T12:39:50Z</time>
      </trkpt>
      <trkpt lat="41.555998000" lon="1.853440000">
        <ele>415.50</ele>
        <time>2011-05-25T12:39:55Z</time>
      </trkpt>
      <trkpt lat="41.555950000" lon="1.853330000">
        <ele>416.00</ele>
        <time>2011-05-25T12:40:00Z</time>
      </trkpt>
      <trkpt lat="41.555948000" lon="1.853308000">
        <ele>414.50</ele>
        <time>2011-05-25T12:40:02Z</time>
      </trkpt>
      <trkpt lat="41.555912000" lon="1.853212000">
        <ele>411.00</ele>
        <time>2011-05-25T12:40:06Z</time>
      </trkpt>
      <trkpt lat="41.555805000" lon="1.853167000">
        <ele>409.00</ele>
        <time>2011-05-25T12:40:13Z</time>
      </trkpt>
      <trkpt lat="41.555783000" lon="1.853160000">
        <ele>406.50</ele>
        <time>2011-05-25T12:40:13Z</time>
      </trkpt>
      <trkpt lat="41.555755000" lon="1.853150000">
        <ele>407.00</ele>
        <time>2011-05-25T12:40:14Z</time>
      </trkpt>
      <trkpt lat="41.555612000" lon="1.853157000">
        <ele>404.50</ele>
        <time>2011-05-25T12:40:20Z</time>
      </trkpt>
      <trkpt lat="41.555553000" lon="1.853147000">
        <ele>405.00</ele>
        <time>2011-05-25T12:40:21Z</time>
      </trkpt>
      <trkpt lat="41.555505000" lon="1.853133000">
        <ele>403.00</ele>
        <time>2011-05-25T12:40:25Z</time>
      </trkpt>
      <trkpt lat="41.555448000" lon="1.853130000">
        <ele>403.00</ele>
        <time>2011-05-25T12:40:27Z</time>
      </trkpt>
      <trkpt lat="41.555383000" lon="1.853122000">
        <ele>404.50</ele>
        <time>2011-05-25T12:40:28Z</time>
      </trkpt>
      <trkpt lat="41.555355000" lon="1.853118000">
        <ele>404.50</ele>
        <time>2011-05-25T12:40:30Z</time>
      </trkpt>
      <trkpt lat="41.555228000" lon="1.853128000">
        <ele>404.00</ele>
        <time>2011-05-25T12:40:34Z</time>
      </trkpt>
      <trkpt lat="41.555162000" lon="1.853135000">
        <ele>403.50</ele>
        <time>2011-05-25T12:40:35Z</time>
      </trkpt>
      <trkpt lat="41.555095000" lon="1.853147000">
        <ele>401.00</ele>
        <time>2011-05-25T12:40:37Z</time>
      </trkpt>
      <trkpt lat="41.555055000" lon="1.853157000">
        <ele>400.50</ele>
        <time>2011-05-25T12:40:39Z</time>
      </trkpt>
      <trkpt lat="41.555007000" lon="1.853155000">
        <ele>400.50</ele>
        <time>2011-05-25T12:40:39Z</time>
      </trkpt>
      <trkpt lat="41.554962000" lon="1.853168000">
        <ele>402.50</ele>
        <time>2011-05-25T12:40:41Z</time>
      </trkpt>
      <trkpt lat="41.554827000" lon="1.853198000">
        <ele>401.00</ele>
        <time>2011-05-25T12:40:44Z</time>
      </trkpt>
      <trkpt lat="41.554687000" lon="1.853217000">
        <ele>402.00</ele>
        <time>2011-05-25T12:40:46Z</time>
      </trkpt>
      <trkpt lat="41.554648000" lon="1.853252000">
        <ele>401.50</ele>
        <time>2011-05-25T12:40:48Z</time>
      </trkpt>
      <trkpt lat="41.554615000" lon="1.853263000">
        <ele>403.00</ele>
        <time>2011-05-25T12:40:49Z</time>
      </trkpt>
      <trkpt lat="41.554578000" lon="1.853267000">
        <ele>402.00</ele>
        <time>2011-05-25T12:40:49Z</time>
      </trkpt>
      <trkpt lat="41.554440000" lon="1.853207000">
        <ele>402.00</ele>
        <time>2011-05-25T12:40:53Z</time>
      </trkpt>
      <trkpt lat="41.554405000" lon="1.853213000">
        <ele>401.50</ele>
        <time>2011-05-25T12:40:54Z</time>
      </trkpt>
      <trkpt lat="41.554298000" lon="1.853248000">
        <ele>403.50</ele>
        <time>2011-05-25T12:40:58Z</time>
      </trkpt>
      <trkpt lat="41.554222000" lon="1.853255000">
        <ele>403.00</ele>
        <time>2011-05-25T12:41:00Z</time>
      </trkpt>
      <trkpt lat="41.554085000" lon="1.853167000">
        <ele>403.00</ele>
        <time>2011-05-25T12:41:05Z</time>
      </trkpt>
      <trkpt lat="41.553947000" lon="1.853030000">
        <ele>407.00</ele>
        <time>2011-05-25T12:41:10Z</time>
      </trkpt>
      <trkpt lat="41.553912000" lon="1.853018000">
        <ele>404.50</ele>
        <time>2011-05-25T12:41:10Z</time>
      </trkpt>
      <trkpt lat="41.553858000" lon="1.853005000">
        <ele>404.50</ele>
        <time>2011-05-25T12:41:12Z</time>
      </trkpt>
      <trkpt lat="41.553838000" lon="1.852997000">
        <ele>402.50</ele>
        <time>2011-05-25T12:41:14Z</time>
      </trkpt>
      <trkpt lat="41.553823000" lon="1.852982000">
        <ele>402.50</ele>
        <time>2011-05-25T12:41:14Z</time>
      </trkpt>
      <trkpt lat="41.553798000" lon="1.852955000">
        <ele>403.50</ele>
        <time>2011-05-25T12:41:17Z</time>
      </trkpt>
      <trkpt lat="41.553767000" lon="1.852902000">
        <ele>403.50</ele>
        <time>2011-05-25T12:41:19Z</time>
      </trkpt>
      <trkpt lat="41.553777000" lon="1.852732000">
        <ele>404.50</ele>
        <time>2011-05-25T12:41:22Z</time>
      </trkpt>
      <trkpt lat="41.553828000" lon="1.852515000">
        <ele>408.00</ele>
        <time>2011-05-25T12:41:28Z</time>
      </trkpt>
      <trkpt lat="41.553732000" lon="1.852473000">
        <ele>407.50</ele>
        <time>2011-05-25T12:41:29Z</time>
      </trkpt>
      <trkpt lat="41.553677000" lon="1.852450000">
        <ele>408.50</ele>
        <time>2011-05-25T12:41:33Z</time>
      </trkpt>
      <trkpt lat="41.553772000" lon="1.852355000">
        <ele>411.00</ele>
        <time>2011-05-25T12:41:36Z</time>
      </trkpt>
      <trkpt lat="41.553802000" lon="1.852265000">
        <ele>413.50</ele>
        <time>2011-05-25T12:41:38Z</time>
      </trkpt>
      <trkpt lat="41.553818000" lon="1.852210000">
        <ele>413.50</ele>
        <time>2011-05-25T12:41:38Z</time>
      </trkpt>
      <trkpt lat="41.553830000" lon="1.852142000">
        <ele>415.50</ele>
        <time>2011-05-25T12:41:40Z</time>
      </trkpt>
      <trkpt lat="41.553952000" lon="1.851748000">
        <ele>418.50</ele>
        <time>2011-05-25T12:41:47Z</time>
      </trkpt>
      <trkpt lat="41.553865000" lon="1.851493000">
        <ele>414.00</ele>
        <time>2011-05-25T12:41:52Z</time>
      </trkpt>
      <trkpt lat="41.553832000" lon="1.851325000">
        <ele>414.50</ele>
        <time>2011-05-25T12:41:54Z</time>
      </trkpt>
      <trkpt lat="41.553798000" lon="1.851248000">
        <ele>415.50</ele>
        <time>2011-05-25T12:41:57Z</time>
      </trkpt>
      <trkpt lat="41.553755000" lon="1.851213000">
        <ele>417.50</ele>
        <time>2011-05-25T12:41:59Z</time>
      </trkpt>
      <trkpt lat="41.553737000" lon="1.851147000">
        <ele>412.50</ele>
        <time>2011-05-25T12:42:01Z</time>
      </trkpt>
      <trkpt lat="41.553732000" lon="1.851153000">
        <ele>414.50</ele>
        <time>2011-05-25T12:42:02Z</time>
      </trkpt>
      <trkpt lat="41.553703000" lon="1.851163000">
        <ele>416.50</ele>
        <time>2011-05-25T12:42:04Z</time>
      </trkpt>
      <trkpt lat="41.553722000" lon="1.851167000">
        <ele>415.50</ele>
        <time>2011-05-25T12:42:06Z</time>
      </trkpt>
      <trkpt lat="41.553730000" lon="1.851172000">
        <ele>413.50</ele>
        <time>2011-05-25T12:42:06Z</time>
      </trkpt>
      <trkpt lat="41.553702000" lon="1.851177000">
        <ele>411.00</ele>
        <time>2011-05-25T12:42:09Z</time>
      </trkpt>
      <trkpt lat="41.553703000" lon="1.851203000">
        <ele>411.00</ele>
        <time>2011-05-25T12:42:11Z</time>
      </trkpt>
      <trkpt lat="41.553685000" lon="1.851192000">
        <ele>410.50</ele>
        <time>2011-05-25T12:42:13Z</time>
      </trkpt>
      <trkpt lat="41.553557000" lon="1.851162000">
        <ele>416.50</ele>
        <time>2011-05-25T12:42:20Z</time>
      </trkpt>
      <trkpt lat="41.553555000" lon="1.851143000">
        <ele>415.50</ele>
        <time>2011-05-25T12:42:20Z</time>
      </trkpt>
      <trkpt lat="41.553492000" lon="1.851100000">
        <ele>419.00</ele>
        <time>2011-05-25T12:42:27Z</time>
      </trkpt>
      <trkpt lat="41.553478000" lon="1.851080000">
        <ele>417.50</ele>
        <time>2011-05-25T12:42:27Z</time>
      </trkpt>
      <trkpt lat="41.553437000" lon="1.851045000">
        <ele>418.50</ele>
        <time>2011-05-25T12:42:30Z</time>
      </trkpt>
      <trkpt lat="41.553432000" lon="1.850997000">
        <ele>417.00</ele>
        <time>2011-05-25T12:42:32Z</time>
      </trkpt>
      <trkpt lat="41.553403000" lon="1.850968000">
        <ele>418.00</ele>
        <time>2011-05-25T12:42:34Z</time>
      </trkpt>
      <trkpt lat="41.553385000" lon="1.850957000">
        <ele>417.00</ele>
        <time>2011-05-25T12:42:36Z</time>
      </trkpt>
      <trkpt lat="41.553363000" lon="1.850948000">
        <ele>418.00</ele>
        <time>2011-05-25T12:42:37Z</time>
      </trkpt>
      <trkpt lat="41.553317000" lon="1.850880000">
        <ele>417.00</ele>
        <time>2011-05-25T12:42:39Z</time>
      </trkpt>
      <trkpt lat="41.553282000" lon="1.850792000">
        <ele>419.50</ele>
        <time>2011-05-25T12:42:41Z</time>
      </trkpt>
      <trkpt lat="41.553237000" lon="1.850547000">
        <ele>416.00</ele>
        <time>2011-05-25T12:42:48Z</time>
      </trkpt>
      <trkpt lat="41.553252000" lon="1.850263000">
        <ele>414.50</ele>
        <time>2011-05-25T12:42:55Z</time>
      </trkpt>
      <trkpt lat="41.553267000" lon="1.850000000">
        <ele>416.50</ele>
        <time>2011-05-25T12:43:02Z</time>
      </trkpt>
      <trkpt lat="41.553252000" lon="1.849935000">
        <ele>415.50</ele>
        <time>2011-05-25T12:43:03Z</time>
      </trkpt>
      <trkpt lat="41.553237000" lon="1.849885000">
        <ele>417.00</ele>
        <time>2011-05-25T12:43:07Z</time>
      </trkpt>
      <trkpt lat="41.553227000" lon="1.849855000">
        <ele>417.00</ele>
        <time>2011-05-25T12:43:09Z</time>
      </trkpt>
      <trkpt lat="41.553235000" lon="1.849802000">
        <ele>417.00</ele>
        <time>2011-05-25T12:43:10Z</time>
      </trkpt>
      <trkpt lat="41.553253000" lon="1.849753000">
        <ele>418.00</ele>
        <time>2011-05-25T12:43:12Z</time>
      </trkpt>
      <trkpt lat="41.553377000" lon="1.849640000">
        <ele>418.00</ele>
        <time>2011-05-25T12:43:17Z</time>
      </trkpt>
      <trkpt lat="41.553467000" lon="1.849610000">
        <ele>416.00</ele>
        <time>2011-05-25T12:43:21Z</time>
      </trkpt>
      <trkpt lat="41.553530000" lon="1.849587000">
        <ele>413.00</ele>
        <time>2011-05-25T12:43:23Z</time>
      </trkpt>
      <trkpt lat="41.553647000" lon="1.849572000">
        <ele>411.00</ele>
        <time>2011-05-25T12:43:26Z</time>
      </trkpt>
      <trkpt lat="41.553675000" lon="1.849560000">
        <ele>409.50</ele>
        <time>2011-05-25T12:43:28Z</time>
      </trkpt>
      <trkpt lat="41.553722000" lon="1.849523000">
        <ele>409.50</ele>
        <time>2011-05-25T12:43:30Z</time>
      </trkpt>
      <trkpt lat="41.553753000" lon="1.849483000">
        <ele>409.00</ele>
        <time>2011-05-25T12:43:31Z</time>
      </trkpt>
      <trkpt lat="41.553853000" lon="1.849340000">
        <ele>410.50</ele>
        <time>2011-05-25T12:43:36Z</time>
      </trkpt>
      <trkpt lat="41.553945000" lon="1.849177000">
        <ele>414.50</ele>
        <time>2011-05-25T12:43:42Z</time>
      </trkpt>
      <trkpt lat="41.553990000" lon="1.849117000">
        <ele>414.50</ele>
        <time>2011-05-25T12:43:43Z</time>
      </trkpt>
      <trkpt lat="41.554023000" lon="1.849082000">
        <ele>416.50</ele>
        <time>2011-05-25T12:43:45Z</time>
      </trkpt>
      <trkpt lat="41.554042000" lon="1.849057000">
        <ele>416.50</ele>
        <time>2011-05-25T12:43:47Z</time>
      </trkpt>
      <trkpt lat="41.554057000" lon="1.849030000">
        <ele>418.50</ele>
        <time>2011-05-25T12:43:47Z</time>
      </trkpt>
      <trkpt lat="41.554090000" lon="1.848982000">
        <ele>418.00</ele>
        <time>2011-05-25T12:43:49Z</time>
      </trkpt>
      <trkpt lat="41.554138000" lon="1.848923000">
        <ele>420.00</ele>
        <time>2011-05-25T12:43:52Z</time>
      </trkpt>
      <trkpt lat="41.554160000" lon="1.848895000">
        <ele>422.00</ele>
        <time>2011-05-25T12:43:54Z</time>
      </trkpt>
      <trkpt lat="41.554278000" lon="1.848757000">
        <ele>426.00</ele>
        <time>2011-05-25T12:43:59Z</time>
      </trkpt>
      <trkpt lat="41.554322000" lon="1.848695000">
        <ele>426.00</ele>
        <time>2011-05-25T12:44:01Z</time>
      </trkpt>
      <trkpt lat="41.554383000" lon="1.848605000">
        <ele>424.50</ele>
        <time>2011-05-25T12:44:04Z</time>
      </trkpt>
      <trkpt lat="41.554398000" lon="1.848577000">
        <ele>423.00</ele>
        <time>2011-05-25T12:44:04Z</time>
      </trkpt>
      <trkpt lat="41.554400000" lon="1.848550000">
        <ele>425.00</ele>
        <time>2011-05-25T12:44:06Z</time>
      </trkpt>
      <trkpt lat="41.554403000" lon="1.848517000">
        <ele>424.50</ele>
        <time>2011-05-25T12:44:06Z</time>
      </trkpt>
      <trkpt lat="41.554315000" lon="1.848255000">
        <ele>422.00</ele>
        <time>2011-05-25T12:44:13Z</time>
      </trkpt>
      <trkpt lat="41.554198000" lon="1.848007000">
        <ele>420.50</ele>
        <time>2011-05-25T12:44:20Z</time>
      </trkpt>
      <trkpt lat="41.554150000" lon="1.847942000">
        <ele>421.00</ele>
        <time>2011-05-25T12:44:22Z</time>
      </trkpt>
      <trkpt lat="41.554042000" lon="1.847662000">
        <ele>420.00</ele>
        <time>2011-05-25T12:44:27Z</time>
      </trkpt>
      <trkpt lat="41.553932000" lon="1.847317000">
        <ele>418.00</ele>
        <time>2011-05-25T12:44:34Z</time>
      </trkpt>
      <trkpt lat="41.553863000" lon="1.847057000">
        <ele>415.00</ele>
        <time>2011-05-25T12:44:39Z</time>
      </trkpt>
      <trkpt lat="41.553793000" lon="1.846945000">
        <ele>414.00</ele>
        <time>2011-05-25T12:44:43Z</time>
      </trkpt>
      <trkpt lat="41.553708000" lon="1.846900000">
        <ele>413.50</ele>
        <time>2011-05-25T12:44:46Z</time>
      </trkpt>
      <trkpt lat="41.553582000" lon="1.846873000">
        <ele>411.00</ele>
        <time>2011-05-25T12:44:51Z</time>
      </trkpt>
      <trkpt lat="41.553563000" lon="1.846890000">
        <ele>411.00</ele>
        <time>2011-05-25T12:44:53Z</time>
      </trkpt>
      <trkpt lat="41.553542000" lon="1.846912000">
        <ele>412.50</ele>
        <time>2011-05-25T12:44:53Z</time>
      </trkpt>
      <trkpt lat="41.553507000" lon="1.846977000">
        <ele>415.00</ele>
        <time>2011-05-25T12:44:55Z</time>
      </trkpt>
      <trkpt lat="41.553505000" lon="1.847052000">
        <ele>416.00</ele>
        <time>2011-05-25T12:44:58Z</time>
      </trkpt>
      <trkpt lat="41.553295000" lon="1.847495000">
        <ele>413.00</ele>
        <time>2011-05-25T12:45:09Z</time>
      </trkpt>
      <trkpt lat="41.553258000" lon="1.847538000">
        <ele>412.50</ele>
        <time>2011-05-25T12:45:09Z</time>
      </trkpt>
      <trkpt lat="41.552845000" lon="1.848098000">
        <ele>409.50</ele>
        <time>2011-05-25T12:45:23Z</time>
      </trkpt>
      <trkpt lat="41.552472000" lon="1.848565000">
        <ele>408.00</ele>
        <time>2011-05-25T12:45:33Z</time>
      </trkpt>
      <trkpt lat="41.552412000" lon="1.848637000">
        <ele>408.00</ele>
        <time>2011-05-25T12:45:35Z</time>
      </trkpt>
      <trkpt lat="41.552360000" lon="1.848703000">
        <ele>409.50</ele>
        <time>2011-05-25T12:45:37Z</time>
      </trkpt>
      <trkpt lat="41.552310000" lon="1.848763000">
        <ele>409.00</ele>
        <time>2011-05-25T12:45:38Z</time>
      </trkpt>
      <trkpt lat="41.552273000" lon="1.848765000">
        <ele>408.50</ele>
        <time>2011-05-25T12:45:40Z</time>
      </trkpt>
      <trkpt lat="41.552210000" lon="1.848743000">
        <ele>409.50</ele>
        <time>2011-05-25T12:45:42Z</time>
      </trkpt>
      <trkpt lat="41.552123000" lon="1.848690000">
        <ele>406.50</ele>
        <time>2011-05-25T12:45:45Z</time>
      </trkpt>
      <trkpt lat="41.552002000" lon="1.848663000">
        <ele>405.00</ele>
        <time>2011-05-25T12:45:47Z</time>
      </trkpt>
      <trkpt lat="41.551950000" lon="1.848655000">
        <ele>404.00</ele>
        <time>2011-05-25T12:45:49Z</time>
      </trkpt>
      <trkpt lat="41.551835000" lon="1.848730000">
        <ele>401.00</ele>
        <time>2011-05-25T12:45:51Z</time>
      </trkpt>
      <trkpt lat="41.551797000" lon="1.848795000">
        <ele>401.50</ele>
        <time>2011-05-25T12:45:52Z</time>
      </trkpt>
      <trkpt lat="41.551762000" lon="1.848927000">
        <ele>401.50</ele>
        <time>2011-05-25T12:45:54Z</time>
      </trkpt>
      <trkpt lat="41.551747000" lon="1.849000000">
        <ele>403.50</ele>
        <time>2011-05-25T12:45:54Z</time>
      </trkpt>
      <trkpt lat="41.551740000" lon="1.849075000">
        <ele>403.00</ele>
        <time>2011-05-25T12:45:56Z</time>
      </trkpt>
      <trkpt lat="41.551790000" lon="1.849440000">
        <ele>402.50</ele>
        <time>2011-05-25T12:46:01Z</time>
      </trkpt>
      <trkpt lat="41.551852000" lon="1.849795000">
        <ele>400.00</ele>
        <time>2011-05-25T12:46:06Z</time>
      </trkpt>
      <trkpt lat="41.551852000" lon="1.849940000">
        <ele>398.50</ele>
        <time>2011-05-25T12:46:08Z</time>
      </trkpt>
      <trkpt lat="41.551838000" lon="1.850083000">
        <ele>398.50</ele>
        <time>2011-05-25T12:46:10Z</time>
      </trkpt>
      <trkpt lat="41.551825000" lon="1.850322000">
        <ele>396.50</ele>
        <time>2011-05-25T12:46:13Z</time>
      </trkpt>
      <trkpt lat="41.551825000" lon="1.850608000">
        <ele>395.50</ele>
        <time>2011-05-25T12:46:17Z</time>
      </trkpt>
      <trkpt lat="41.551795000" lon="1.850985000">
        <ele>393.50</ele>
        <time>2011-05-25T12:46:22Z</time>
      </trkpt>
      <trkpt lat="41.551678000" lon="1.852118000">
        <ele>391.50</ele>
        <time>2011-05-25T12:46:36Z</time>
      </trkpt>
      <trkpt lat="41.551670000" lon="1.852203000">
        <ele>389.50</ele>
        <time>2011-05-25T12:46:36Z</time>
      </trkpt>
      <trkpt lat="41.551627000" lon="1.852543000">
        <ele>385.50</ele>
        <time>2011-05-25T12:46:41Z</time>
      </trkpt>
      <trkpt lat="41.551532000" lon="1.853135000">
        <ele>382.00</ele>
        <time>2011-05-25T12:46:48Z</time>
      </trkpt>
      <trkpt lat="41.551515000" lon="1.853215000">
        <ele>381.50</ele>
        <time>2011-05-25T12:46:48Z</time>
      </trkpt>
      <trkpt lat="41.551415000" lon="1.853687000">
        <ele>380.50</ele>
        <time>2011-05-25T12:46:55Z</time>
      </trkpt>
      <trkpt lat="41.551258000" lon="1.854230000">
        <ele>377.00</ele>
        <time>2011-05-25T12:47:02Z</time>
      </trkpt>
      <trkpt lat="41.551103000" lon="1.854687000">
        <ele>375.50</ele>
        <time>2011-05-25T12:47:07Z</time>
      </trkpt>
      <trkpt lat="41.550673000" lon="1.855697000">
        <ele>371.00</ele>
        <time>2011-05-25T12:47:21Z</time>
      </trkpt>
      <trkpt lat="41.550538000" lon="1.855972000">
        <ele>371.00</ele>
        <time>2011-05-25T12:47:25Z</time>
      </trkpt>
      <trkpt lat="41.550465000" lon="1.856113000">
        <ele>370.00</ele>
        <time>2011-05-25T12:47:26Z</time>
      </trkpt>
      <trkpt lat="41.550432000" lon="1.856178000">
        <ele>370.50</ele>
        <time>2011-05-25T12:47:28Z</time>
      </trkpt>
      <trkpt lat="41.550390000" lon="1.856248000">
        <ele>370.50</ele>
        <time>2011-05-25T12:47:28Z</time>
      </trkpt>
      <trkpt lat="41.550012000" lon="1.856797000">
        <ele>366.00</ele>
        <time>2011-05-25T12:47:37Z</time>
      </trkpt>
      <trkpt lat="41.549787000" lon="1.857117000">
        <ele>364.50</ele>
        <time>2011-05-25T12:47:42Z</time>
      </trkpt>
      <trkpt lat="41.549708000" lon="1.857235000">
        <ele>365.00</ele>
        <time>2011-05-25T12:47:44Z</time>
      </trkpt>
      <trkpt lat="41.549460000" lon="1.857535000">
        <ele>365.00</ele>
        <time>2011-05-25T12:47:49Z</time>
      </trkpt>
      <trkpt lat="41.549207000" lon="1.857843000">
        <ele>366.50</ele>
        <time>2011-05-25T12:47:56Z</time>
      </trkpt>
      <trkpt lat="41.548777000" lon="1.858402000">
        <ele>366.50</ele>
        <time>2011-05-25T12:48:10Z</time>
      </trkpt>
      <trkpt lat="41.548487000" lon="1.858747000">
        <ele>365.00</ele>
        <time>2011-05-25T12:48:19Z</time>
      </trkpt>
      <trkpt lat="41.548247000" lon="1.859040000">
        <ele>366.00</ele>
        <time>2011-05-25T12:48:26Z</time>
      </trkpt>
      <trkpt lat="41.547880000" lon="1.859488000">
        <ele>363.00</ele>
        <time>2011-05-25T12:48:36Z</time>
      </trkpt>
      <trkpt lat="41.547675000" lon="1.859745000">
        <ele>363.00</ele>
        <time>2011-05-25T12:48:41Z</time>
      </trkpt>
      <trkpt lat="41.547595000" lon="1.859820000">
        <ele>363.50</ele>
        <time>2011-05-25T12:48:43Z</time>
      </trkpt>
      <trkpt lat="41.547570000" lon="1.859857000">
        <ele>365.00</ele>
        <time>2011-05-25T12:48:45Z</time>
      </trkpt>
      <trkpt lat="41.547512000" lon="1.859942000">
        <ele>366.00</ele>
        <time>2011-05-25T12:48:47Z</time>
      </trkpt>
      <trkpt lat="41.547350000" lon="1.860155000">
        <ele>365.50</ele>
        <time>2011-05-25T12:48:52Z</time>
      </trkpt>
      <trkpt lat="41.547095000" lon="1.860487000">
        <ele>367.00</ele>
        <time>2011-05-25T12:48:59Z</time>
      </trkpt>
      <trkpt lat="41.546932000" lon="1.860688000">
        <ele>366.50</ele>
        <time>2011-05-25T12:49:04Z</time>
      </trkpt>
      <trkpt lat="41.546907000" lon="1.860725000">
        <ele>368.00</ele>
        <time>2011-05-25T12:49:06Z</time>
      </trkpt>
      <trkpt lat="41.546850000" lon="1.860798000">
        <ele>368.00</ele>
        <time>2011-05-25T12:49:07Z</time>
      </trkpt>
      <trkpt lat="41.546827000" lon="1.860828000">
        <ele>370.50</ele>
        <time>2011-05-25T12:49:09Z</time>
      </trkpt>
      <trkpt lat="41.546758000" lon="1.860915000">
        <ele>369.00</ele>
        <time>2011-05-25T12:49:11Z</time>
      </trkpt>
      <trkpt lat="41.546725000" lon="1.860958000">
        <ele>369.50</ele>
        <time>2011-05-25T12:49:13Z</time>
      </trkpt>
      <trkpt lat="41.546465000" lon="1.861267000">
        <ele>368.00</ele>
        <time>2011-05-25T12:49:18Z</time>
      </trkpt>
      <trkpt lat="41.546398000" lon="1.861350000">
        <ele>368.50</ele>
        <time>2011-05-25T12:49:21Z</time>
      </trkpt>
      <trkpt lat="41.546158000" lon="1.861582000">
        <ele>368.50</ele>
        <time>2011-05-25T12:49:27Z</time>
      </trkpt>
      <trkpt lat="41.545983000" lon="1.861738000">
        <ele>367.00</ele>
        <time>2011-05-25T12:49:30Z</time>
      </trkpt>
      <trkpt lat="41.545823000" lon="1.861892000">
        <ele>367.00</ele>
        <time>2011-05-25T12:49:35Z</time>
      </trkpt>
      <trkpt lat="41.545785000" lon="1.861928000">
        <ele>368.00</ele>
        <time>2011-05-25T12:49:35Z</time>
      </trkpt>
      <trkpt lat="41.545658000" lon="1.862027000">
        <ele>368.00</ele>
        <time>2011-05-25T12:49:39Z</time>
      </trkpt>
      <trkpt lat="41.545588000" lon="1.862093000">
        <ele>369.00</ele>
        <time>2011-05-25T12:49:41Z</time>
      </trkpt>
      <trkpt lat="41.545412000" lon="1.862235000">
        <ele>367.00</ele>
        <time>2011-05-25T12:49:44Z</time>
      </trkpt>
      <trkpt lat="41.545367000" lon="1.862258000">
        <ele>366.50</ele>
        <time>2011-05-25T12:49:46Z</time>
      </trkpt>
      <trkpt lat="41.545325000" lon="1.862288000">
        <ele>368.50</ele>
        <time>2011-05-25T12:49:46Z</time>
      </trkpt>
      <trkpt lat="41.545225000" lon="1.862337000">
        <ele>370.50</ele>
        <time>2011-05-25T12:49:49Z</time>
      </trkpt>
      <trkpt lat="41.545115000" lon="1.862390000">
        <ele>371.00</ele>
        <time>2011-05-25T12:49:51Z</time>
      </trkpt>
      <trkpt lat="41.544837000" lon="1.862515000">
        <ele>368.00</ele>
        <time>2011-05-25T12:49:54Z</time>
      </trkpt>
      <trkpt lat="41.544775000" lon="1.862660000">
        <ele>368.50</ele>
        <time>2011-05-25T12:49:56Z</time>
      </trkpt>
      <trkpt lat="41.544835000" lon="1.862832000">
        <ele>368.50</ele>
        <time>2011-05-25T12:49:58Z</time>
      </trkpt>
      <trkpt lat="41.544938000" lon="1.862992000">
        <ele>367.00</ele>
        <time>2011-05-25T12:50:01Z</time>
      </trkpt>
      <trkpt lat="41.544953000" lon="1.863052000">
        <ele>366.50</ele>
        <time>2011-05-25T12:50:03Z</time>
      </trkpt>
      <trkpt lat="41.544938000" lon="1.863238000">
        <ele>367.50</ele>
        <time>2011-05-25T12:50:05Z</time>
      </trkpt>
      <trkpt lat="41.544892000" lon="1.863325000">
        <ele>368.50</ele>
        <time>2011-05-25T12:50:07Z</time>
      </trkpt>
      <trkpt lat="41.544868000" lon="1.863363000">
        <ele>370.00</ele>
        <time>2011-05-25T12:50:08Z</time>
      </trkpt>
      <trkpt lat="41.544840000" lon="1.863403000">
        <ele>370.00</ele>
        <time>2011-05-25T12:50:10Z</time>
      </trkpt>
      <trkpt lat="41.544817000" lon="1.863425000">
        <ele>371.50</ele>
        <time>2011-05-25T12:50:10Z</time>
      </trkpt>
      <trkpt lat="41.544718000" lon="1.863567000">
        <ele>369.00</ele>
        <time>2011-05-25T12:50:14Z</time>
      </trkpt>
      <trkpt lat="41.544693000" lon="1.863613000">
        <ele>371.00</ele>
        <time>2011-05-25T12:50:17Z</time>
      </trkpt>
      <trkpt lat="41.544618000" lon="1.863645000">
        <ele>370.50</ele>
        <time>2011-05-25T12:50:19Z</time>
      </trkpt>
      <trkpt lat="41.544602000" lon="1.863668000">
        <ele>371.00</ele>
        <time>2011-05-25T12:50:21Z</time>
      </trkpt>
      <trkpt lat="41.544588000" lon="1.863750000">
        <ele>371.50</ele>
        <time>2011-05-25T12:50:22Z</time>
      </trkpt>
      <trkpt lat="41.544552000" lon="1.863853000">
        <ele>370.50</ele>
        <time>2011-05-25T12:50:24Z</time>
      </trkpt>
      <trkpt lat="41.544520000" lon="1.863880000">
        <ele>371.50</ele>
        <time>2011-05-25T12:50:26Z</time>
      </trkpt>
      <trkpt lat="41.544427000" lon="1.864217000">
        <ele>369.50</ele>
        <time>2011-05-25T12:50:31Z</time>
      </trkpt>
      <trkpt lat="41.544362000" lon="1.864403000">
        <ele>371.00</ele>
        <time>2011-05-25T12:50:35Z</time>
      </trkpt>
      <trkpt lat="41.544307000" lon="1.864452000">
        <ele>370.00</ele>
        <time>2011-05-25T12:50:36Z</time>
      </trkpt>
      <trkpt lat="41.544072000" lon="1.864665000">
        <ele>370.00</ele>
        <time>2011-05-25T12:50:40Z</time>
      </trkpt>
      <trkpt lat="41.543970000" lon="1.864772000">
        <ele>371.00</ele>
        <time>2011-05-25T12:50:43Z</time>
      </trkpt>
      <trkpt lat="41.543613000" lon="1.865170000">
        <ele>370.00</ele>
        <time>2011-05-25T12:50:50Z</time>
      </trkpt>
      <trkpt lat="41.543583000" lon="1.865220000">
        <ele>371.00</ele>
        <time>2011-05-25T12:50:52Z</time>
      </trkpt>
      <trkpt lat="41.543505000" lon="1.865322000">
        <ele>371.00</ele>
        <time>2011-05-25T12:50:54Z</time>
      </trkpt>
      <trkpt lat="41.543482000" lon="1.865373000">
        <ele>372.50</ele>
        <time>2011-05-25T12:50:54Z</time>
      </trkpt>
      <trkpt lat="41.543440000" lon="1.865423000">
        <ele>373.00</ele>
        <time>2011-05-25T12:50:55Z</time>
      </trkpt>
      <trkpt lat="41.543390000" lon="1.865467000">
        <ele>372.50</ele>
        <time>2011-05-25T12:50:57Z</time>
      </trkpt>
      <trkpt lat="41.543348000" lon="1.865495000">
        <ele>374.50</ele>
        <time>2011-05-25T12:50:57Z</time>
      </trkpt>
      <trkpt lat="41.543302000" lon="1.865540000">
        <ele>374.00</ele>
        <time>2011-05-25T12:50:59Z</time>
      </trkpt>
      <trkpt lat="41.543080000" lon="1.865695000">
        <ele>367.00</ele>
        <time>2011-05-25T12:51:01Z</time>
      </trkpt>
      <trkpt lat="41.543047000" lon="1.865737000">
        <ele>367.00</ele>
        <time>2011-05-25T12:51:02Z</time>
      </trkpt>
      <trkpt lat="41.543000000" lon="1.865777000">
        <ele>365.50</ele>
        <time>2011-05-25T12:51:04Z</time>
      </trkpt>
      <trkpt lat="41.542933000" lon="1.865842000">
        <ele>365.50</ele>
        <time>2011-05-25T12:51:06Z</time>
      </trkpt>
      <trkpt lat="41.542910000" lon="1.865875000">
        <ele>367.50</ele>
        <time>2011-05-25T12:51:06Z</time>
      </trkpt>
      <trkpt lat="41.542767000" lon="1.865997000">
        <ele>361.50</ele>
        <time>2011-05-25T12:51:09Z</time>
      </trkpt>
      <trkpt lat="41.542685000" lon="1.866100000">
        <ele>359.00</ele>
        <time>2011-05-25T12:51:11Z</time>
      </trkpt>
      <trkpt lat="41.542537000" lon="1.866228000">
        <ele>357.00</ele>
        <time>2011-05-25T12:51:16Z</time>
      </trkpt>
      <trkpt lat="41.542272000" lon="1.866488000">
        <ele>357.00</ele>
        <time>2011-05-25T12:51:27Z</time>
      </trkpt>
      <trkpt lat="41.542268000" lon="1.866495000">
        <ele>359.00</ele>
        <time>2011-05-25T12:51:27Z</time>
      </trkpt>
      <trkpt lat="41.542252000" lon="1.866508000">
        <ele>360.50</ele>
        <time>2011-05-25T12:51:30Z</time>
      </trkpt>
      <trkpt lat="41.542245000" lon="1.866502000">
        <ele>360.00</ele>
        <time>2011-05-25T12:51:30Z</time>
      </trkpt>
      <trkpt lat="41.542192000" lon="1.866563000">
        <ele>355.50</ele>
        <time>2011-05-25T12:51:34Z</time>
      </trkpt>
      <trkpt lat="41.542137000" lon="1.866657000">
        <ele>353.50</ele>
        <time>2011-05-25T12:51:37Z</time>
      </trkpt>
      <trkpt lat="41.542092000" lon="1.866700000">
        <ele>350.50</ele>
        <time>2011-05-25T12:51:37Z</time>
      </trkpt>
      <trkpt lat="41.542003000" lon="1.866887000">
        <ele>348.00</ele>
        <time>2011-05-25T12:51:41Z</time>
      </trkpt>
      <trkpt lat="41.541622000" lon="1.867412000">
        <ele>346.50</ele>
        <time>2011-05-25T12:51:53Z</time>
      </trkpt>
      <trkpt lat="41.541568000" lon="1.867498000">
        <ele>347.50</ele>
        <time>2011-05-25T12:51:55Z</time>
      </trkpt>
      <trkpt lat="41.541530000" lon="1.867540000">
        <ele>348.50</ele>
        <time>2011-05-25T12:51:55Z</time>
      </trkpt>
      <trkpt lat="41.541258000" lon="1.867787000">
        <ele>347.50</ele>
        <time>2011-05-25T12:52:02Z</time>
      </trkpt>
      <trkpt lat="41.541158000" lon="1.867855000">
        <ele>348.50</ele>
        <time>2011-05-25T12:52:03Z</time>
      </trkpt>
      <trkpt lat="41.540990000" lon="1.868105000">
        <ele>348.50</ele>
        <time>2011-05-25T12:52:10Z</time>
      </trkpt>
      <trkpt lat="41.540863000" lon="1.868293000">
        <ele>347.50</ele>
        <time>2011-05-25T12:52:17Z</time>
      </trkpt>
      <trkpt lat="41.540882000" lon="1.868268000">
        <ele>352.00</ele>
        <time>2011-05-25T12:52:21Z</time>
      </trkpt>
      <trkpt lat="41.540898000" lon="1.868155000">
        <ele>353.00</ele>
        <time>2011-05-25T12:52:24Z</time>
      </trkpt>
      <trkpt lat="41.540833000" lon="1.868062000">
        <ele>353.50</ele>
        <time>2011-05-25T12:52:28Z</time>
      </trkpt>
      <trkpt lat="41.540760000" lon="1.868008000">
        <ele>353.50</ele>
        <time>2011-05-25T12:52:30Z</time>
      </trkpt>
      <trkpt lat="41.540787000" lon="1.867943000">
        <ele>353.50</ele>
        <time>2011-05-25T12:52:31Z</time>
      </trkpt>
      <trkpt lat="41.540663000" lon="1.867770000">
        <ele>350.50</ele>
        <time>2011-05-25T12:52:35Z</time>
      </trkpt>
      <trkpt lat="41.540687000" lon="1.867737000">
        <ele>350.50</ele>
        <time>2011-05-25T12:52:36Z</time>
      </trkpt>
      <trkpt lat="41.540595000" lon="1.867745000">
        <ele>350.50</ele>
        <time>2011-05-25T12:52:40Z</time>
      </trkpt>
      <trkpt lat="41.540617000" lon="1.867683000">
        <ele>348.50</ele>
        <time>2011-05-25T12:52:45Z</time>
      </trkpt>
      <trkpt lat="41.540567000" lon="1.867762000">
        <ele>347.50</ele>
        <time>2011-05-25T12:52:49Z</time>
      </trkpt>
      <trkpt lat="41.540332000" lon="1.867970000">
        <ele>347.00</ele>
        <time>2011-05-25T12:52:59Z</time>
      </trkpt>
      <trkpt lat="41.540305000" lon="1.867963000">
        <ele>348.50</ele>
        <time>2011-05-25T12:53:01Z</time>
      </trkpt>
      <trkpt lat="41.540098000" lon="1.868045000">
        <ele>348.50</ele>
        <time>2011-05-25T12:53:06Z</time>
      </trkpt>
      <trkpt lat="41.540018000" lon="1.868060000">
        <ele>348.00</ele>
        <time>2011-05-25T12:53:08Z</time>
      </trkpt>
      <trkpt lat="41.539910000" lon="1.868190000">
        <ele>347.00</ele>
        <time>2011-05-25T12:53:15Z</time>
      </trkpt>
      <trkpt lat="41.539842000" lon="1.868182000">
        <ele>349.00</ele>
        <time>2011-05-25T12:53:17Z</time>
      </trkpt>
      <trkpt lat="41.539760000" lon="1.868270000">
        <ele>349.00</ele>
        <time>2011-05-25T12:53:22Z</time>
      </trkpt>
      <trkpt lat="41.539692000" lon="1.868305000">
        <ele>351.00</ele>
        <time>2011-05-25T12:53:27Z</time>
      </trkpt>
      <trkpt lat="41.539538000" lon="1.868432000">
        <ele>351.50</ele>
        <time>2011-05-25T12:53:34Z</time>
      </trkpt>
      <trkpt lat="41.539467000" lon="1.868463000">
        <ele>351.00</ele>
        <time>2011-05-25T12:53:36Z</time>
      </trkpt>
      <trkpt lat="41.539433000" lon="1.868528000">
        <ele>346.00</ele>
        <time>2011-05-25T12:53:39Z</time>
      </trkpt>
      <trkpt lat="41.539325000" lon="1.868678000">
        <ele>347.50</ele>
        <time>2011-05-25T12:53:46Z</time>
      </trkpt>
      <trkpt lat="41.539290000" lon="1.868720000">
        <ele>349.00</ele>
        <time>2011-05-25T12:53:48Z</time>
      </trkpt>
      <trkpt lat="41.539232000" lon="1.868833000">
        <ele>350.50</ele>
        <time>2011-05-25T12:53:53Z</time>
      </trkpt>
      <trkpt lat="41.539225000" lon="1.868853000">
        <ele>351.00</ele>
        <time>2011-05-25T12:53:53Z</time>
      </trkpt>
      <trkpt lat="41.539220000" lon="1.868868000">
        <ele>353.50</ele>
        <time>2011-05-25T12:53:55Z</time>
      </trkpt>
      <trkpt lat="41.539213000" lon="1.868888000">
        <ele>354.50</ele>
        <time>2011-05-25T12:53:55Z</time>
      </trkpt>
      <trkpt lat="41.539153000" lon="1.868928000">
        <ele>356.50</ele>
        <time>2011-05-25T12:53:58Z</time>
      </trkpt>
      <trkpt lat="41.539145000" lon="1.868937000">
        <ele>358.50</ele>
        <time>2011-05-25T12:53:58Z</time>
      </trkpt>
      <trkpt lat="41.539028000" lon="1.869007000">
        <ele>358.50</ele>
        <time>2011-05-25T12:54:02Z</time>
      </trkpt>
      <trkpt lat="41.539002000" lon="1.869043000">
        <ele>359.00</ele>
        <time>2011-05-25T12:54:05Z</time>
      </trkpt>
      <trkpt lat="41.538985000" lon="1.869063000">
        <ele>361.00</ele>
        <time>2011-05-25T12:54:05Z</time>
      </trkpt>
      <trkpt lat="41.538815000" lon="1.869238000">
        <ele>362.00</ele>
        <time>2011-05-25T12:54:12Z</time>
      </trkpt>
      <trkpt lat="41.538788000" lon="1.869262000">
        <ele>364.00</ele>
        <time>2011-05-25T12:54:14Z</time>
      </trkpt>
      <trkpt lat="41.538685000" lon="1.869218000">
        <ele>363.00</ele>
        <time>2011-05-25T12:54:18Z</time>
      </trkpt>
      <trkpt lat="41.538582000" lon="1.869197000">
        <ele>364.50</ele>
        <time>2011-05-25T12:54:19Z</time>
      </trkpt>
      <trkpt lat="41.538395000" lon="1.869075000">
        <ele>362.50</ele>
        <time>2011-05-25T12:54:23Z</time>
      </trkpt>
      <trkpt lat="41.538268000" lon="1.868923000">
        <ele>361.50</ele>
        <time>2011-05-25T12:54:28Z</time>
      </trkpt>
      <trkpt lat="41.538082000" lon="1.868832000">
        <ele>358.50</ele>
        <time>2011-05-25T12:54:33Z</time>
      </trkpt>
      <trkpt lat="41.537993000" lon="1.868722000">
        <ele>355.00</ele>
        <time>2011-05-25T12:54:37Z</time>
      </trkpt>
      <trkpt lat="41.537935000" lon="1.868673000">
        <ele>354.00</ele>
        <time>2011-05-25T12:54:38Z</time>
      </trkpt>
      <trkpt lat="41.537898000" lon="1.868668000">
        <ele>353.50</ele>
        <time>2011-05-25T12:54:40Z</time>
      </trkpt>
      <trkpt lat="41.537720000" lon="1.868638000">
        <ele>358.50</ele>
        <time>2011-05-25T12:54:45Z</time>
      </trkpt>
      <trkpt lat="41.537670000" lon="1.868690000">
        <ele>358.50</ele>
        <time>2011-05-25T12:54:47Z</time>
      </trkpt>
      <trkpt lat="41.537593000" lon="1.868773000">
        <ele>357.00</ele>
        <time>2011-05-25T12:54:49Z</time>
      </trkpt>
      <trkpt lat="41.537342000" lon="1.868952000">
        <ele>349.00</ele>
        <time>2011-05-25T12:54:56Z</time>
      </trkpt>
      <trkpt lat="41.537083000" lon="1.869153000">
        <ele>347.00</ele>
        <time>2011-05-25T12:55:01Z</time>
      </trkpt>
      <trkpt lat="41.536900000" lon="1.869278000">
        <ele>344.00</ele>
        <time>2011-05-25T12:55:03Z</time>
      </trkpt>
      <trkpt lat="41.536847000" lon="1.869310000">
        <ele>345.50</ele>
        <time>2011-05-25T12:55:05Z</time>
      </trkpt>
      <trkpt lat="41.536582000" lon="1.869510000">
        <ele>342.50</ele>
        <time>2011-05-25T12:55:10Z</time>
      </trkpt>
      <trkpt lat="41.536510000" lon="1.869560000">
        <ele>340.50</ele>
        <time>2011-05-25T12:55:12Z</time>
      </trkpt>
      <trkpt lat="41.536493000" lon="1.869572000">
        <ele>339.50</ele>
        <time>2011-05-25T12:55:13Z</time>
      </trkpt>
      <trkpt lat="41.536463000" lon="1.869557000">
        <ele>337.50</ele>
        <time>2011-05-25T12:55:15Z</time>
      </trkpt>
      <trkpt lat="41.536360000" lon="1.869530000">
        <ele>336.00</ele>
        <time>2011-05-25T12:55:38Z</time>
      </trkpt>
      <trkpt lat="41.536342000" lon="1.869532000">
        <ele>336.50</ele>
        <time>2011-05-25T12:55:45Z</time>
      </trkpt>
      <trkpt lat="41.536348000" lon="1.869548000">
        <ele>335.00</ele>
        <time>2011-05-25T12:55:46Z</time>
      </trkpt>
      <trkpt lat="41.536300000" lon="1.869532000">
        <ele>336.50</ele>
        <time>2011-05-25T12:55:55Z</time>
      </trkpt>
      <trkpt lat="41.536332000" lon="1.869513000">
        <ele>340.50</ele>
        <time>2011-05-25T12:55:59Z</time>
      </trkpt>
      <trkpt lat="41.536350000" lon="1.869485000">
        <ele>339.50</ele>
        <time>2011-05-25T12:56:02Z</time>
      </trkpt>
      <trkpt lat="41.536365000" lon="1.869510000">
        <ele>341.00</ele>
        <time>2011-05-25T12:56:04Z</time>
      </trkpt>
      <trkpt lat="41.536358000" lon="1.869513000">
        <ele>341.50</ele>
        <time>2011-05-25T12:56:06Z</time>
      </trkpt>
      <trkpt lat="41.536327000" lon="1.869472000">
        <ele>341.50</ele>
        <time>2011-05-25T12:56:09Z</time>
      </trkpt>
      <trkpt lat="41.536325000" lon="1.869463000">
        <ele>343.50</ele>
        <time>2011-05-25T12:56:11Z</time>
      </trkpt>
      <trkpt lat="41.536310000" lon="1.869448000">
        <ele>339.00</ele>
        <time>2011-05-25T12:56:14Z</time>
      </trkpt>
      <trkpt lat="41.536287000" lon="1.869417000">
        <ele>338.50</ele>
        <time>2011-05-25T12:56:16Z</time>
      </trkpt>
      <trkpt lat="41.536262000" lon="1.869415000">
        <ele>333.00</ele>
        <time>2011-05-25T12:56:25Z</time>
      </trkpt>
      <trkpt lat="41.536205000" lon="1.869435000">
        <ele>332.50</ele>
        <time>2011-05-25T12:56:26Z</time>
      </trkpt>
      <trkpt lat="41.536183000" lon="1.869453000">
        <ele>332.00</ele>
        <time>2011-05-25T12:56:30Z</time>
      </trkpt>
      <trkpt lat="41.536243000" lon="1.869553000">
        <ele>333.00</ele>
        <time>2011-05-25T12:56:35Z</time>
      </trkpt>
      <trkpt lat="41.536230000" lon="1.869575000">
        <ele>333.00</ele>
        <time>2011-05-25T12:56:37Z</time>
      </trkpt>
      <trkpt lat="41.536197000" lon="1.869633000">
        <ele>331.50</ele>
        <time>2011-05-25T12:56:44Z</time>
      </trkpt>
      <trkpt lat="41.536170000" lon="1.869692000">
        <ele>332.00</ele>
        <time>2011-05-25T12:56:53Z</time>
      </trkpt>
      <trkpt lat="41.536242000" lon="1.869668000">
        <ele>331.50</ele>
        <time>2011-05-25T12:56:56Z</time>
      </trkpt>
      <trkpt lat="41.536262000" lon="1.869627000">
        <ele>330.00</ele>
        <time>2011-05-25T12:57:01Z</time>
      </trkpt>
      <trkpt lat="41.536262000" lon="1.869623000">
        <ele>330.50</ele>
        <time>2011-05-25T12:57:03Z</time>
      </trkpt>
      <trkpt lat="41.536250000" lon="1.869635000">
        <ele>330.50</ele>
        <time>2011-05-25T12:57:03Z</time>
      </trkpt>
      <trkpt lat="41.536258000" lon="1.869712000">
        <ele>326.00</ele>
        <time>2011-05-25T12:57:05Z</time>
      </trkpt>
      <trkpt lat="41.536297000" lon="1.869765000">
        <ele>326.00</ele>
        <time>2011-05-25T12:57:08Z</time>
      </trkpt>
      <trkpt lat="41.536313000" lon="1.869770000">
        <ele>326.50</ele>
        <time>2011-05-25T12:57:08Z</time>
      </trkpt>
      <trkpt lat="41.536308000" lon="1.869752000">
        <ele>327.00</ele>
        <time>2011-05-25T12:57:10Z</time>
      </trkpt>
      <trkpt lat="41.536312000" lon="1.869743000">
        <ele>330.00</ele>
        <time>2011-05-25T12:57:15Z</time>
      </trkpt>
      <trkpt lat="41.536267000" lon="1.869697000">
        <ele>331.00</ele>
        <time>2011-05-25T12:57:24Z</time>
      </trkpt>
      <trkpt lat="41.536248000" lon="1.869692000">
        <ele>329.50</ele>
        <time>2011-05-25T12:57:29Z</time>
      </trkpt>
      <trkpt lat="41.536257000" lon="1.869670000">
        <ele>329.50</ele>
        <time>2011-05-25T12:57:31Z</time>
      </trkpt>
      <trkpt lat="41.536302000" lon="1.869538000">
        <ele>325.00</ele>
        <time>2011-05-25T12:57:36Z</time>
      </trkpt>
      <trkpt lat="41.536287000" lon="1.869527000">
        <ele>323.50</ele>
        <time>2011-05-25T12:57:38Z</time>
      </trkpt>
      <trkpt lat="41.536297000" lon="1.869532000">
        <ele>319.50</ele>
        <time>2011-05-25T12:57:41Z</time>
      </trkpt>
      <trkpt lat="41.536310000" lon="1.869545000">
        <ele>319.50</ele>
        <time>2011-05-25T12:57:43Z</time>
      </trkpt>
      <trkpt lat="41.536315000" lon="1.869573000">
        <ele>318.00</ele>
        <time>2011-05-25T12:57:48Z</time>
      </trkpt>
      <trkpt lat="41.536278000" lon="1.869512000">
        <ele>321.00</ele>
        <time>2011-05-25T12:57:59Z</time>
      </trkpt>
      <trkpt lat="41.536285000" lon="1.869522000">
        <ele>321.50</ele>
        <time>2011-05-25T12:58:04Z</time>
      </trkpt>
      <trkpt lat="41.536273000" lon="1.869532000">
        <ele>323.50</ele>
        <time>2011-05-25T12:58:04Z</time>
      </trkpt>
      <trkpt lat="41.536273000" lon="1.869530000">
        <ele>322.50</ele>
        <time>2011-05-25T12:58:06Z</time>
      </trkpt>
      <trkpt lat="41.536300000" lon="1.869548000">
        <ele>325.50</ele>
        <time>2011-05-25T12:58:09Z</time>
      </trkpt>
      <trkpt lat="41.536303000" lon="1.869565000">
        <ele>323.50</ele>
        <time>2011-05-25T12:58:09Z</time>
      </trkpt>
      <trkpt lat="41.536297000" lon="1.869568000">
        <ele>326.50</ele>
        <time>2011-05-25T12:58:13Z</time>
      </trkpt>
      <trkpt lat="41.536300000" lon="1.869572000">
        <ele>325.00</ele>
        <time>2011-05-25T12:58:13Z</time>
      </trkpt>
      <trkpt lat="41.536295000" lon="1.869580000">
        <ele>327.00</ele>
        <time>2011-05-25T12:58:14Z</time>
      </trkpt>
      <trkpt lat="41.536320000" lon="1.869547000">
        <ele>328.00</ele>
        <time>2011-05-25T12:58:18Z</time>
      </trkpt>
      <trkpt lat="41.536320000" lon="1.869545000">
        <ele>326.50</ele>
        <time>2011-05-25T12:58:20Z</time>
      </trkpt>
      <trkpt lat="41.536340000" lon="1.869533000">
        <ele>332.00</ele>
        <time>2011-05-25T12:58:21Z</time>
      </trkpt>
      <trkpt lat="41.536360000" lon="1.869542000">
        <ele>329.00</ele>
        <time>2011-05-25T12:58:25Z</time>
      </trkpt>
      <trkpt lat="41.536368000" lon="1.869547000">
        <ele>331.00</ele>
        <time>2011-05-25T12:58:28Z</time>
      </trkpt>
      <trkpt lat="41.536360000" lon="1.869550000">
        <ele>330.00</ele>
        <time>2011-05-25T12:58:28Z</time>
      </trkpt>
      <trkpt lat="41.536375000" lon="1.869565000">
        <ele>333.50</ele>
        <time>2011-05-25T12:58:30Z</time>
      </trkpt>
      <trkpt lat="41.536348000" lon="1.869597000">
        <ele>331.50</ele>
        <time>2011-05-25T12:58:32Z</time>
      </trkpt>
      <trkpt lat="41.536347000" lon="1.869598000">
        <ele>336.00</ele>
        <time>2011-05-25T12:58:34Z</time>
      </trkpt>
      <trkpt lat="41.536343000" lon="1.869632000">
        <ele>339.00</ele>
        <time>2011-05-25T12:58:37Z</time>
      </trkpt>
      <trkpt lat="41.536332000" lon="1.869620000">
        <ele>343.50</ele>
        <time>2011-05-25T12:58:41Z</time>
      </trkpt>
      <trkpt lat="41.536342000" lon="1.869602000">
        <ele>344.50</ele>
        <time>2011-05-25T12:58:42Z</time>
      </trkpt>
      <trkpt lat="41.536335000" lon="1.869552000">
        <ele>342.00</ele>
        <time>2011-05-25T12:58:47Z</time>
      </trkpt>
      <trkpt lat="41.536345000" lon="1.869545000">
        <ele>338.00</ele>
        <time>2011-05-25T12:58:49Z</time>
      </trkpt>
      <trkpt lat="41.536327000" lon="1.869522000">
        <ele>335.00</ele>
        <time>2011-05-25T12:58:53Z</time>
      </trkpt>
      <trkpt lat="41.536335000" lon="1.869533000">
        <ele>334.50</ele>
        <time>2011-05-25T12:58:56Z</time>
      </trkpt>
      <trkpt lat="41.536308000" lon="1.869658000">
        <ele>334.00</ele>
        <time>2011-05-25T12:59:15Z</time>
      </trkpt>
      <trkpt lat="41.536193000" lon="1.869688000">
        <ele>334.50</ele>
        <time>2011-05-25T12:59:24Z</time>
      </trkpt>
      <trkpt lat="41.536217000" lon="1.869588000">
        <ele>334.50</ele>
        <time>2011-05-25T12:59:33Z</time>
      </trkpt>
      <trkpt lat="41.536268000" lon="1.869563000">
        <ele>334.50</ele>
        <time>2011-05-25T12:59:45Z</time>
      </trkpt>
      <trkpt lat="41.536298000" lon="1.869567000">
        <ele>336.00</ele>
        <time>2011-05-25T12:59:50Z</time>
      </trkpt>
      <trkpt lat="41.536313000" lon="1.869575000">
        <ele>336.00</ele>
        <time>2011-05-25T12:59:52Z</time>
      </trkpt>
      <trkpt lat="41.536270000" lon="1.869587000">
        <ele>335.50</ele>
        <time>2011-05-25T12:59:54Z</time>
      </trkpt>
      <trkpt lat="41.536273000" lon="1.869612000">
        <ele>336.50</ele>
        <time>2011-05-25T13:00:01Z</time>
      </trkpt>
      <trkpt lat="41.536202000" lon="1.869762000">
        <ele>336.50</ele>
        <time>2011-05-25T13:00:29Z</time>
      </trkpt>
      <trkpt lat="41.536208000" lon="1.869780000">
        <ele>337.00</ele>
        <time>2011-05-25T13:00:30Z</time>
      </trkpt>
      <trkpt lat="41.536210000" lon="1.869795000">
        <ele>339.00</ele>
        <time>2011-05-25T13:00:32Z</time>
      </trkpt>
      <trkpt lat="41.536210000" lon="1.869842000">
        <ele>335.50</ele>
        <time>2011-05-25T13:00:35Z</time>
      </trkpt>
      <trkpt lat="41.536225000" lon="1.869818000">
        <ele>334.50</ele>
        <time>2011-05-25T13:00:37Z</time>
      </trkpt>
      <trkpt lat="41.536298000" lon="1.869697000">
        <ele>333.00</ele>
        <time>2011-05-25T13:00:41Z</time>
      </trkpt>
      <trkpt lat="41.536282000" lon="1.869685000">
        <ele>313.00</ele>
        <time>2011-05-25T13:00:46Z</time>
      </trkpt>
      <trkpt lat="41.536292000" lon="1.869682000">
        <ele>328.50</ele>
        <time>2011-05-25T13:00:46Z</time>
      </trkpt>
      <trkpt lat="41.536320000" lon="1.869662000">
        <ele>352.00</ele>
        <time>2011-05-25T13:00:51Z</time>
      </trkpt>
      <trkpt lat="41.536325000" lon="1.869652000">
        <ele>352.50</ele>
        <time>2011-05-25T13:00:51Z</time>
      </trkpt>
      <trkpt lat="41.536347000" lon="1.869628000">
        <ele>367.00</ele>
        <time>2011-05-25T13:00:55Z</time>
      </trkpt>
      <trkpt lat="41.536357000" lon="1.869605000">
        <ele>369.00</ele>
        <time>2011-05-25T13:00:56Z</time>
      </trkpt>
      <trkpt lat="41.536372000" lon="1.869562000">
        <ele>370.00</ele>
        <time>2011-05-25T13:00:58Z</time>
      </trkpt>
      <trkpt lat="41.536375000" lon="1.869550000">
        <ele>373.00</ele>
        <time>2011-05-25T13:01:00Z</time>
      </trkpt>
      <trkpt lat="41.536378000" lon="1.869523000">
        <ele>372.00</ele>
        <time>2011-05-25T13:01:02Z</time>
      </trkpt>
      <trkpt lat="41.536377000" lon="1.869512000">
        <ele>370.50</ele>
        <time>2011-05-25T13:01:03Z</time>
      </trkpt>
      <trkpt lat="41.536380000" lon="1.869493000">
        <ele>373.50</ele>
        <time>2011-05-25T13:01:07Z</time>
      </trkpt>
      <trkpt lat="41.536390000" lon="1.869440000">
        <ele>373.00</ele>
        <time>2011-05-25T13:01:10Z</time>
      </trkpt>
      <trkpt lat="41.536392000" lon="1.869430000">
        <ele>374.00</ele>
        <time>2011-05-25T13:01:12Z</time>
      </trkpt>
      <trkpt lat="41.536365000" lon="1.869453000">
        <ele>363.50</ele>
        <time>2011-05-25T13:01:14Z</time>
      </trkpt>
      <trkpt lat="41.536362000" lon="1.869447000">
        <ele>365.00</ele>
        <time>2011-05-25T13:01:16Z</time>
      </trkpt>
      <trkpt lat="41.536350000" lon="1.869457000">
        <ele>364.00</ele>
        <time>2011-05-25T13:01:19Z</time>
      </trkpt>
      <trkpt lat="41.536347000" lon="1.869457000">
        <ele>366.00</ele>
        <time>2011-05-25T13:01:24Z</time>
      </trkpt>
      <trkpt lat="41.536357000" lon="1.869435000">
        <ele>367.00</ele>
        <time>2011-05-25T13:01:28Z</time>
      </trkpt>
      <trkpt lat="41.536222000" lon="1.869687000">
        <ele>368.00</ele>
        <time>2011-05-25T13:02:25Z</time>
      </trkpt>
      <trkpt lat="41.536208000" lon="1.869732000">
        <ele>367.50</ele>
        <time>2011-05-25T13:02:29Z</time>
      </trkpt>
      <trkpt lat="41.536213000" lon="1.869737000">
        <ele>367.00</ele>
        <time>2011-05-25T13:02:30Z</time>
      </trkpt>
      <trkpt lat="41.536228000" lon="1.869700000">
        <ele>365.00</ele>
        <time>2011-05-25T13:02:34Z</time>
      </trkpt>
      <trkpt lat="41.536225000" lon="1.869707000">
        <ele>364.50</ele>
        <time>2011-05-25T13:02:36Z</time>
      </trkpt>
      <trkpt lat="41.536243000" lon="1.869697000">
        <ele>363.00</ele>
        <time>2011-05-25T13:02:41Z</time>
      </trkpt>
      <trkpt lat="41.536298000" lon="1.869523000">
        <ele>362.00</ele>
        <time>2011-05-25T13:02:48Z</time>
      </trkpt>
      <trkpt lat="41.536297000" lon="1.869468000">
        <ele>361.00</ele>
        <time>2011-05-25T13:02:50Z</time>
      </trkpt>
      <trkpt lat="41.536323000" lon="1.869438000">
        <ele>357.50</ele>
        <time>2011-05-25T13:02:53Z</time>
      </trkpt>
      <trkpt lat="41.536355000" lon="1.869412000">
        <ele>357.00</ele>
        <time>2011-05-25T13:02:58Z</time>
      </trkpt>
      <trkpt lat="41.536343000" lon="1.869412000">
        <ele>356.50</ele>
        <time>2011-05-25T13:02:58Z</time>
      </trkpt>
      <trkpt lat="41.536345000" lon="1.869415000">
        <ele>354.50</ele>
        <time>2011-05-25T13:03:00Z</time>
      </trkpt>
      <trkpt lat="41.536312000" lon="1.869437000">
        <ele>355.50</ele>
        <time>2011-05-25T13:03:07Z</time>
      </trkpt>
      <trkpt lat="41.536273000" lon="1.869483000">
        <ele>350.00</ele>
        <time>2011-05-25T13:03:12Z</time>
      </trkpt>
      <trkpt lat="41.536213000" lon="1.869625000">
        <ele>345.50</ele>
        <time>2011-05-25T13:03:24Z</time>
      </trkpt>
      <trkpt lat="41.536148000" lon="1.869663000">
        <ele>341.50</ele>
        <time>2011-05-25T13:03:30Z</time>
      </trkpt>
      <trkpt lat="41.536133000" lon="1.869632000">
        <ele>337.50</ele>
        <time>2011-05-25T13:03:33Z</time>
      </trkpt>
      <trkpt lat="41.536123000" lon="1.869610000">
        <ele>337.00</ele>
        <time>2011-05-25T13:03:35Z</time>
      </trkpt>
      <trkpt lat="41.536098000" lon="1.869552000">
        <ele>336.50</ele>
        <time>2011-05-25T13:03:37Z</time>
      </trkpt>
      <trkpt lat="41.536032000" lon="1.869497000">
        <ele>339.50</ele>
        <time>2011-05-25T13:03:42Z</time>
      </trkpt>
      <trkpt lat="41.535948000" lon="1.869385000">
        <ele>337.50</ele>
        <time>2011-05-25T13:03:52Z</time>
      </trkpt>
      <trkpt lat="41.535948000" lon="1.869360000">
        <ele>335.00</ele>
        <time>2011-05-25T13:03:56Z</time>
      </trkpt>
      <trkpt lat="41.535975000" lon="1.869295000">
        <ele>336.00</ele>
        <time>2011-05-25T13:04:01Z</time>
      </trkpt>
      <trkpt lat="41.535937000" lon="1.869208000">
        <ele>339.00</ele>
        <time>2011-05-25T13:04:06Z</time>
      </trkpt>
      <trkpt lat="41.535907000" lon="1.869217000">
        <ele>339.00</ele>
        <time>2011-05-25T13:04:08Z</time>
      </trkpt>
      <trkpt lat="41.535862000" lon="1.869245000">
        <ele>342.50</ele>
        <time>2011-05-25T13:04:12Z</time>
      </trkpt>
      <trkpt lat="41.535843000" lon="1.869203000">
        <ele>342.50</ele>
        <time>2011-05-25T13:04:15Z</time>
      </trkpt>
      <trkpt lat="41.535848000" lon="1.869152000">
        <ele>341.00</ele>
        <time>2011-05-25T13:04:17Z</time>
      </trkpt>
      <trkpt lat="41.535785000" lon="1.869018000">
        <ele>340.00</ele>
        <time>2011-05-25T13:04:22Z</time>
      </trkpt>
      <trkpt lat="41.535675000" lon="1.868832000">
        <ele>336.00</ele>
        <time>2011-05-25T13:04:25Z</time>
      </trkpt>
      <trkpt lat="41.535637000" lon="1.868798000">
        <ele>337.00</ele>
        <time>2011-05-25T13:04:27Z</time>
      </trkpt>
      <trkpt lat="41.535620000" lon="1.868757000">
        <ele>336.00</ele>
        <time>2011-05-25T13:04:29Z</time>
      </trkpt>
      <trkpt lat="41.535652000" lon="1.868712000">
        <ele>338.00</ele>
        <time>2011-05-25T13:04:31Z</time>
      </trkpt>
      <trkpt lat="41.535762000" lon="1.868645000">
        <ele>337.00</ele>
        <time>2011-05-25T13:04:36Z</time>
      </trkpt>
      <trkpt lat="41.535880000" lon="1.868548000">
        <ele>335.50</ele>
        <time>2011-05-25T13:04:41Z</time>
      </trkpt>
      <trkpt lat="41.535905000" lon="1.868530000">
        <ele>333.50</ele>
        <time>2011-05-25T13:04:43Z</time>
      </trkpt>
      <trkpt lat="41.535955000" lon="1.868493000">
        <ele>334.00</ele>
        <time>2011-05-25T13:04:45Z</time>
      </trkpt>
      <trkpt lat="41.536013000" lon="1.868453000">
        <ele>333.00</ele>
        <time>2011-05-25T13:04:48Z</time>
      </trkpt>
      <trkpt lat="41.536022000" lon="1.868463000">
        <ele>331.50</ele>
        <time>2011-05-25T13:04:48Z</time>
      </trkpt>
      <trkpt lat="41.536033000" lon="1.868453000">
        <ele>331.50</ele>
        <time>2011-05-25T13:04:50Z</time>
      </trkpt>
      <trkpt lat="41.536092000" lon="1.868382000">
        <ele>330.00</ele>
        <time>2011-05-25T13:04:52Z</time>
      </trkpt>
      <trkpt lat="41.536115000" lon="1.868357000">
        <ele>331.50</ele>
        <time>2011-05-25T13:04:53Z</time>
      </trkpt>
      <trkpt lat="41.536152000" lon="1.868322000">
        <ele>330.50</ele>
        <time>2011-05-25T13:04:55Z</time>
      </trkpt>
      <trkpt lat="41.536207000" lon="1.868215000">
        <ele>336.00</ele>
        <time>2011-05-25T13:04:57Z</time>
      </trkpt>
      <trkpt lat="41.536265000" lon="1.868168000">
        <ele>334.50</ele>
        <time>2011-05-25T13:05:00Z</time>
      </trkpt>
      <trkpt lat="41.536512000" lon="1.867920000">
        <ele>339.00</ele>
        <time>2011-05-25T13:05:09Z</time>
      </trkpt>
      <trkpt lat="41.536553000" lon="1.867902000">
        <ele>338.50</ele>
        <time>2011-05-25T13:05:11Z</time>
      </trkpt>
      <trkpt lat="41.536595000" lon="1.867878000">
        <ele>341.50</ele>
        <time>2011-05-25T13:05:14Z</time>
      </trkpt>
      <trkpt lat="41.536608000" lon="1.867895000">
        <ele>345.50</ele>
        <time>2011-05-25T13:05:16Z</time>
      </trkpt>
      <trkpt lat="41.536652000" lon="1.867832000">
        <ele>340.50</ele>
        <time>2011-05-25T13:05:21Z</time>
      </trkpt>
      <trkpt lat="41.536673000" lon="1.867808000">
        <ele>335.50</ele>
        <time>2011-05-25T13:05:23Z</time>
      </trkpt>
      <trkpt lat="41.536702000" lon="1.867770000">
        <ele>332.00</ele>
        <time>2011-05-25T13:05:26Z</time>
      </trkpt>
      <trkpt lat="41.536713000" lon="1.867765000">
        <ele>332.00</ele>
        <time>2011-05-25T13:05:28Z</time>
      </trkpt>
      <trkpt lat="41.536733000" lon="1.867757000">
        <ele>334.00</ele>
        <time>2011-05-25T13:05:28Z</time>
      </trkpt>
      <trkpt lat="41.536828000" lon="1.867802000">
        <ele>334.50</ele>
        <time>2011-05-25T13:05:33Z</time>
      </trkpt>
      <trkpt lat="41.536877000" lon="1.867843000">
        <ele>336.00</ele>
        <time>2011-05-25T13:05:35Z</time>
      </trkpt>
      <trkpt lat="41.536952000" lon="1.867883000">
        <ele>342.00</ele>
        <time>2011-05-25T13:05:37Z</time>
      </trkpt>
      <trkpt lat="41.536968000" lon="1.867918000">
        <ele>342.50</ele>
        <time>2011-05-25T13:05:39Z</time>
      </trkpt>
      <trkpt lat="41.536993000" lon="1.867963000">
        <ele>343.00</ele>
        <time>2011-05-25T13:05:40Z</time>
      </trkpt>
      <trkpt lat="41.537008000" lon="1.868028000">
        <ele>342.00</ele>
        <time>2011-05-25T13:05:42Z</time>
      </trkpt>
      <trkpt lat="41.537038000" lon="1.868062000">
        <ele>338.50</ele>
        <time>2011-05-25T13:05:44Z</time>
      </trkpt>
      <trkpt lat="41.537080000" lon="1.868088000">
        <ele>338.00</ele>
        <time>2011-05-25T13:05:44Z</time>
      </trkpt>
      <trkpt lat="41.537123000" lon="1.868097000">
        <ele>336.00</ele>
        <time>2011-05-25T13:05:46Z</time>
      </trkpt>
      <trkpt lat="41.537363000" lon="1.867912000">
        <ele>336.00</ele>
        <time>2011-05-25T13:05:53Z</time>
      </trkpt>
      <trkpt lat="41.537397000" lon="1.867887000">
        <ele>337.50</ele>
        <time>2011-05-25T13:05:54Z</time>
      </trkpt>
      <trkpt lat="41.537493000" lon="1.867830000">
        <ele>339.00</ele>
        <time>2011-05-25T13:05:56Z</time>
      </trkpt>
      <trkpt lat="41.537515000" lon="1.867802000">
        <ele>342.00</ele>
        <time>2011-05-25T13:05:58Z</time>
      </trkpt>
      <trkpt lat="41.537560000" lon="1.867747000">
        <ele>344.50</ele>
        <time>2011-05-25T13:06:00Z</time>
      </trkpt>
      <trkpt lat="41.537625000" lon="1.867702000">
        <ele>346.00</ele>
        <time>2011-05-25T13:06:01Z</time>
      </trkpt>
      <trkpt lat="41.537752000" lon="1.867595000">
        <ele>345.00</ele>
        <time>2011-05-25T13:06:05Z</time>
      </trkpt>
      <trkpt lat="41.537847000" lon="1.867517000">
        <ele>343.00</ele>
        <time>2011-05-25T13:06:08Z</time>
      </trkpt>
      <trkpt lat="41.537917000" lon="1.867468000">
        <ele>343.00</ele>
        <time>2011-05-25T13:06:10Z</time>
      </trkpt>
      <trkpt lat="41.537938000" lon="1.867440000">
        <ele>344.00</ele>
        <time>2011-05-25T13:06:12Z</time>
      </trkpt>
      <trkpt lat="41.538102000" lon="1.867360000">
        <ele>339.00</ele>
        <time>2011-05-25T13:06:15Z</time>
      </trkpt>
      <trkpt lat="41.538300000" lon="1.867220000">
        <ele>339.00</ele>
        <time>2011-05-25T13:06:20Z</time>
      </trkpt>
      <trkpt lat="41.538417000" lon="1.867122000">
        <ele>343.00</ele>
        <time>2011-05-25T13:06:24Z</time>
      </trkpt>
      <trkpt lat="41.538500000" lon="1.867102000">
        <ele>341.00</ele>
        <time>2011-05-25T13:06:26Z</time>
      </trkpt>
      <trkpt lat="41.538598000" lon="1.867047000">
        <ele>344.00</ele>
        <time>2011-05-25T13:06:31Z</time>
      </trkpt>
      <trkpt lat="41.538672000" lon="1.867022000">
        <ele>343.50</ele>
        <time>2011-05-25T13:06:33Z</time>
      </trkpt>
      <trkpt lat="41.538698000" lon="1.867023000">
        <ele>344.50</ele>
        <time>2011-05-25T13:06:34Z</time>
      </trkpt>
      <trkpt lat="41.538768000" lon="1.866993000">
        <ele>344.50</ele>
        <time>2011-05-25T13:06:36Z</time>
      </trkpt>
      <trkpt lat="41.538802000" lon="1.866978000">
        <ele>345.00</ele>
        <time>2011-05-25T13:06:36Z</time>
      </trkpt>
      <trkpt lat="41.538835000" lon="1.866953000">
        <ele>346.00</ele>
        <time>2011-05-25T13:06:38Z</time>
      </trkpt>
      <trkpt lat="41.539118000" lon="1.866738000">
        <ele>347.50</ele>
        <time>2011-05-25T13:06:45Z</time>
      </trkpt>
      <trkpt lat="41.539162000" lon="1.866698000">
        <ele>349.00</ele>
        <time>2011-05-25T13:06:45Z</time>
      </trkpt>
      <trkpt lat="41.539200000" lon="1.866643000">
        <ele>352.50</ele>
        <time>2011-05-25T13:06:47Z</time>
      </trkpt>
      <trkpt lat="41.539300000" lon="1.866525000">
        <ele>356.50</ele>
        <time>2011-05-25T13:06:48Z</time>
      </trkpt>
      <trkpt lat="41.539495000" lon="1.866370000">
        <ele>360.00</ele>
        <time>2011-05-25T13:06:54Z</time>
      </trkpt>
      <trkpt lat="41.539615000" lon="1.866290000">
        <ele>360.00</ele>
        <time>2011-05-25T13:06:57Z</time>
      </trkpt>
      <trkpt lat="41.539655000" lon="1.866278000">
        <ele>358.00</ele>
        <time>2011-05-25T13:06:59Z</time>
      </trkpt>
      <trkpt lat="41.539712000" lon="1.866225000">
        <ele>357.50</ele>
        <time>2011-05-25T13:07:02Z</time>
      </trkpt>
      <trkpt lat="41.539677000" lon="1.866175000">
        <ele>354.50</ele>
        <time>2011-05-25T13:07:04Z</time>
      </trkpt>
      <trkpt lat="41.539653000" lon="1.866127000">
        <ele>349.00</ele>
        <time>2011-05-25T13:07:06Z</time>
      </trkpt>
      <trkpt lat="41.539612000" lon="1.866037000">
        <ele>346.50</ele>
        <time>2011-05-25T13:07:09Z</time>
      </trkpt>
      <trkpt lat="41.539580000" lon="1.865955000">
        <ele>345.50</ele>
        <time>2011-05-25T13:07:11Z</time>
      </trkpt>
      <trkpt lat="41.539560000" lon="1.865937000">
        <ele>347.00</ele>
        <time>2011-05-25T13:07:11Z</time>
      </trkpt>
      <trkpt lat="41.539478000" lon="1.865747000">
        <ele>345.00</ele>
        <time>2011-05-25T13:07:16Z</time>
      </trkpt>
      <trkpt lat="41.539153000" lon="1.864848000">
        <ele>344.50</ele>
        <time>2011-05-25T13:07:35Z</time>
      </trkpt>
      <trkpt lat="41.539072000" lon="1.864618000">
        <ele>343.50</ele>
        <time>2011-05-25T13:07:39Z</time>
      </trkpt>
      <trkpt lat="41.539088000" lon="1.864473000">
        <ele>343.00</ele>
        <time>2011-05-25T13:07:42Z</time>
      </trkpt>
      <trkpt lat="41.539108000" lon="1.864427000">
        <ele>343.50</ele>
        <time>2011-05-25T13:07:42Z</time>
      </trkpt>
      <trkpt lat="41.539203000" lon="1.864307000">
        <ele>345.00</ele>
        <time>2011-05-25T13:07:46Z</time>
      </trkpt>
      <trkpt lat="41.539247000" lon="1.864268000">
        <ele>346.50</ele>
        <time>2011-05-25T13:07:46Z</time>
      </trkpt>
      <trkpt lat="41.539348000" lon="1.864175000">
        <ele>347.00</ele>
        <time>2011-05-25T13:07:49Z</time>
      </trkpt>
      <trkpt lat="41.539427000" lon="1.864060000">
        <ele>346.00</ele>
        <time>2011-05-25T13:07:53Z</time>
      </trkpt>
      <trkpt lat="41.539457000" lon="1.864028000">
        <ele>346.00</ele>
        <time>2011-05-25T13:07:53Z</time>
      </trkpt>
      <trkpt lat="41.539485000" lon="1.864010000">
        <ele>346.50</ele>
        <time>2011-05-25T13:07:56Z</time>
      </trkpt>
      <trkpt lat="41.539483000" lon="1.864032000">
        <ele>345.00</ele>
        <time>2011-05-25T13:07:56Z</time>
      </trkpt>
      <trkpt lat="41.539500000" lon="1.864032000">
        <ele>345.00</ele>
        <time>2011-05-25T13:07:58Z</time>
      </trkpt>
      <trkpt lat="41.539910000" lon="1.863647000">
        <ele>351.00</ele>
        <time>2011-05-25T13:08:10Z</time>
      </trkpt>
      <trkpt lat="41.539983000" lon="1.863608000">
        <ele>349.50</ele>
        <time>2011-05-25T13:08:12Z</time>
      </trkpt>
      <trkpt lat="41.540040000" lon="1.863558000">
        <ele>352.50</ele>
        <time>2011-05-25T13:08:14Z</time>
      </trkpt>
      <trkpt lat="41.540170000" lon="1.863495000">
        <ele>351.50</ele>
        <time>2011-05-25T13:08:19Z</time>
      </trkpt>
      <trkpt lat="41.540247000" lon="1.863443000">
        <ele>354.00</ele>
        <time>2011-05-25T13:08:22Z</time>
      </trkpt>
      <trkpt lat="41.540257000" lon="1.863378000">
        <ele>353.50</ele>
        <time>2011-05-25T13:08:24Z</time>
      </trkpt>
      <trkpt lat="41.540267000" lon="1.863335000">
        <ele>352.00</ele>
        <time>2011-05-25T13:08:26Z</time>
      </trkpt>
      <trkpt lat="41.540270000" lon="1.863305000">
        <ele>350.50</ele>
        <time>2011-05-25T13:08:28Z</time>
      </trkpt>
      <trkpt lat="41.540267000" lon="1.863263000">
        <ele>346.00</ele>
        <time>2011-05-25T13:08:31Z</time>
      </trkpt>
      <trkpt lat="41.540227000" lon="1.863210000">
        <ele>344.50</ele>
        <time>2011-05-25T13:08:33Z</time>
      </trkpt>
      <trkpt lat="41.540155000" lon="1.863078000">
        <ele>345.00</ele>
        <time>2011-05-25T13:08:38Z</time>
      </trkpt>
      <trkpt lat="41.540147000" lon="1.863018000">
        <ele>346.50</ele>
        <time>2011-05-25T13:08:40Z</time>
      </trkpt>
      <trkpt lat="41.540160000" lon="1.862992000">
        <ele>346.50</ele>
        <time>2011-05-25T13:08:40Z</time>
      </trkpt>
      <trkpt lat="41.540273000" lon="1.862942000">
        <ele>346.50</ele>
        <time>2011-05-25T13:08:45Z</time>
      </trkpt>
      <trkpt lat="41.540377000" lon="1.862877000">
        <ele>348.50</ele>
        <time>2011-05-25T13:08:48Z</time>
      </trkpt>
      <trkpt lat="41.540738000" lon="1.862627000">
        <ele>351.00</ele>
        <time>2011-05-25T13:09:01Z</time>
      </trkpt>
      <trkpt lat="41.540797000" lon="1.862582000">
        <ele>350.00</ele>
        <time>2011-05-25T13:09:02Z</time>
      </trkpt>
      <trkpt lat="41.540890000" lon="1.862510000">
        <ele>351.50</ele>
        <time>2011-05-25T13:09:06Z</time>
      </trkpt>
      <trkpt lat="41.540972000" lon="1.862435000">
        <ele>351.50</ele>
        <time>2011-05-25T13:09:08Z</time>
      </trkpt>
      <trkpt lat="41.541042000" lon="1.862390000">
        <ele>350.00</ele>
        <time>2011-05-25T13:09:09Z</time>
      </trkpt>
      <trkpt lat="41.541142000" lon="1.862307000">
        <ele>351.50</ele>
        <time>2011-05-25T13:09:13Z</time>
      </trkpt>
      <trkpt lat="41.541348000" lon="1.862145000">
        <ele>351.00</ele>
        <time>2011-05-25T13:09:18Z</time>
      </trkpt>
      <trkpt lat="41.541472000" lon="1.862050000">
        <ele>352.50</ele>
        <time>2011-05-25T13:09:23Z</time>
      </trkpt>
      <trkpt lat="41.541505000" lon="1.862022000">
        <ele>354.00</ele>
        <time>2011-05-25T13:09:23Z</time>
      </trkpt>
      <trkpt lat="41.541608000" lon="1.861947000">
        <ele>356.00</ele>
        <time>2011-05-25T13:09:27Z</time>
      </trkpt>
      <trkpt lat="41.541635000" lon="1.861917000">
        <ele>359.00</ele>
        <time>2011-05-25T13:09:27Z</time>
      </trkpt>
      <trkpt lat="41.541707000" lon="1.861872000">
        <ele>357.00</ele>
        <time>2011-05-25T13:09:30Z</time>
      </trkpt>
      <trkpt lat="41.541735000" lon="1.861843000">
        <ele>358.50</ele>
        <time>2011-05-25T13:09:30Z</time>
      </trkpt>
      <trkpt lat="41.541763000" lon="1.861815000">
        <ele>358.50</ele>
        <time>2011-05-25T13:09:32Z</time>
      </trkpt>
      <trkpt lat="41.541803000" lon="1.861803000">
        <ele>354.00</ele>
        <time>2011-05-25T13:09:32Z</time>
      </trkpt>
      <trkpt lat="41.541868000" lon="1.861760000">
        <ele>350.50</ele>
        <time>2011-05-25T13:09:34Z</time>
      </trkpt>
      <trkpt lat="41.541897000" lon="1.861735000">
        <ele>350.50</ele>
        <time>2011-05-25T13:09:35Z</time>
      </trkpt>
      <trkpt lat="41.542058000" lon="1.861577000">
        <ele>355.50</ele>
        <time>2011-05-25T13:09:41Z</time>
      </trkpt>
      <trkpt lat="41.542083000" lon="1.861547000">
        <ele>357.50</ele>
        <time>2011-05-25T13:09:42Z</time>
      </trkpt>
      <trkpt lat="41.542163000" lon="1.861473000">
        <ele>357.50</ele>
        <time>2011-05-25T13:09:46Z</time>
      </trkpt>
      <trkpt lat="41.542217000" lon="1.861425000">
        <ele>359.00</ele>
        <time>2011-05-25T13:09:48Z</time>
      </trkpt>
      <trkpt lat="41.542325000" lon="1.861313000">
        <ele>364.00</ele>
        <time>2011-05-25T13:09:51Z</time>
      </trkpt>
      <trkpt lat="41.542417000" lon="1.861248000">
        <ele>365.50</ele>
        <time>2011-05-25T13:09:55Z</time>
      </trkpt>
      <trkpt lat="41.542445000" lon="1.861222000">
        <ele>367.50</ele>
        <time>2011-05-25T13:09:55Z</time>
      </trkpt>
      <trkpt lat="41.542518000" lon="1.861165000">
        <ele>366.50</ele>
        <time>2011-05-25T13:09:58Z</time>
      </trkpt>
      <trkpt lat="41.542642000" lon="1.861065000">
        <ele>367.00</ele>
        <time>2011-05-25T13:10:02Z</time>
      </trkpt>
      <trkpt lat="41.542668000" lon="1.861033000">
        <ele>369.00</ele>
        <time>2011-05-25T13:10:02Z</time>
      </trkpt>
      <trkpt lat="41.542762000" lon="1.860952000">
        <ele>367.00</ele>
        <time>2011-05-25T13:10:05Z</time>
      </trkpt>
      <trkpt lat="41.542787000" lon="1.860893000">
        <ele>367.50</ele>
        <time>2011-05-25T13:10:09Z</time>
      </trkpt>
      <trkpt lat="41.542803000" lon="1.860873000">
        <ele>362.50</ele>
        <time>2011-05-25T13:10:10Z</time>
      </trkpt>
      <trkpt lat="41.542787000" lon="1.860770000">
        <ele>359.00</ele>
        <time>2011-05-25T13:10:12Z</time>
      </trkpt>
      <trkpt lat="41.542773000" lon="1.860692000">
        <ele>357.50</ele>
        <time>2011-05-25T13:10:14Z</time>
      </trkpt>
      <trkpt lat="41.542760000" lon="1.860653000">
        <ele>358.00</ele>
        <time>2011-05-25T13:10:16Z</time>
      </trkpt>
      <trkpt lat="41.542667000" lon="1.860545000">
        <ele>356.00</ele>
        <time>2011-05-25T13:10:19Z</time>
      </trkpt>
      <trkpt lat="41.542593000" lon="1.860320000">
        <ele>356.00</ele>
        <time>2011-05-25T13:10:26Z</time>
      </trkpt>
      <trkpt lat="41.542583000" lon="1.860283000">
        <ele>356.50</ele>
        <time>2011-05-25T13:10:26Z</time>
      </trkpt>
      <trkpt lat="41.542582000" lon="1.860173000">
        <ele>357.00</ele>
        <time>2011-05-25T13:10:29Z</time>
      </trkpt>
      <trkpt lat="41.542658000" lon="1.859907000">
        <ele>355.50</ele>
        <time>2011-05-25T13:10:36Z</time>
      </trkpt>
      <trkpt lat="41.542705000" lon="1.859802000">
        <ele>355.00</ele>
        <time>2011-05-25T13:10:40Z</time>
      </trkpt>
      <trkpt lat="41.542843000" lon="1.859557000">
        <ele>355.00</ele>
        <time>2011-05-25T13:10:47Z</time>
      </trkpt>
      <trkpt lat="41.542967000" lon="1.859317000">
        <ele>356.50</ele>
        <time>2011-05-25T13:10:54Z</time>
      </trkpt>
      <trkpt lat="41.543000000" lon="1.859260000">
        <ele>356.00</ele>
        <time>2011-05-25T13:10:57Z</time>
      </trkpt>
      <trkpt lat="41.543062000" lon="1.859102000">
        <ele>357.50</ele>
        <time>2011-05-25T13:11:04Z</time>
      </trkpt>
      <trkpt lat="41.543092000" lon="1.859032000">
        <ele>357.00</ele>
        <time>2011-05-25T13:11:06Z</time>
      </trkpt>
      <trkpt lat="41.543360000" lon="1.858372000">
        <ele>362.50</ele>
        <time>2011-05-25T13:11:27Z</time>
      </trkpt>
      <trkpt lat="41.543417000" lon="1.858258000">
        <ele>362.00</ele>
        <time>2011-05-25T13:11:29Z</time>
      </trkpt>
      <trkpt lat="41.543472000" lon="1.858170000">
        <ele>362.50</ele>
        <time>2011-05-25T13:11:32Z</time>
      </trkpt>
      <trkpt lat="41.543555000" lon="1.858038000">
        <ele>365.00</ele>
        <time>2011-05-25T13:11:37Z</time>
      </trkpt>
      <trkpt lat="41.543615000" lon="1.857950000">
        <ele>365.50</ele>
        <time>2011-05-25T13:11:41Z</time>
      </trkpt>
      <trkpt lat="41.543637000" lon="1.857932000">
        <ele>366.00</ele>
        <time>2011-05-25T13:11:41Z</time>
      </trkpt>
      <trkpt lat="41.543688000" lon="1.857918000">
        <ele>365.50</ele>
        <time>2011-05-25T13:11:43Z</time>
      </trkpt>
      <trkpt lat="41.543735000" lon="1.857893000">
        <ele>367.50</ele>
        <time>2011-05-25T13:11:46Z</time>
      </trkpt>
      <trkpt lat="41.543793000" lon="1.857828000">
        <ele>367.00</ele>
        <time>2011-05-25T13:11:48Z</time>
      </trkpt>
      <trkpt lat="41.543952000" lon="1.857533000">
        <ele>365.00</ele>
        <time>2011-05-25T13:11:58Z</time>
      </trkpt>
      <trkpt lat="41.544157000" lon="1.857210000">
        <ele>365.00</ele>
        <time>2011-05-25T13:12:09Z</time>
      </trkpt>
      <trkpt lat="41.544220000" lon="1.857107000">
        <ele>364.00</ele>
        <time>2011-05-25T13:12:12Z</time>
      </trkpt>
      <trkpt lat="41.544285000" lon="1.856983000">
        <ele>364.50</ele>
        <time>2011-05-25T13:12:16Z</time>
      </trkpt>
      <trkpt lat="41.544390000" lon="1.856708000">
        <ele>362.50</ele>
        <time>2011-05-25T13:12:23Z</time>
      </trkpt>
      <trkpt lat="41.544397000" lon="1.856668000">
        <ele>362.00</ele>
        <time>2011-05-25T13:12:24Z</time>
      </trkpt>
      <trkpt lat="41.544400000" lon="1.856523000">
        <ele>362.00</ele>
        <time>2011-05-25T13:12:28Z</time>
      </trkpt>
      <trkpt lat="41.544395000" lon="1.856495000">
        <ele>363.00</ele>
        <time>2011-05-25T13:12:30Z</time>
      </trkpt>
      <trkpt lat="41.544375000" lon="1.856135000">
        <ele>362.50</ele>
        <time>2011-05-25T13:12:38Z</time>
      </trkpt>
      <trkpt lat="41.544363000" lon="1.856125000">
        <ele>364.50</ele>
        <time>2011-05-25T13:12:40Z</time>
      </trkpt>
      <trkpt lat="41.544370000" lon="1.855677000">
        <ele>364.50</ele>
        <time>2011-05-25T13:12:51Z</time>
      </trkpt>
      <trkpt lat="41.544348000" lon="1.855675000">
        <ele>366.00</ele>
        <time>2011-05-25T13:12:52Z</time>
      </trkpt>
      <trkpt lat="41.544347000" lon="1.855603000">
        <ele>367.00</ele>
        <time>2011-05-25T13:12:54Z</time>
      </trkpt>
      <trkpt lat="41.544350000" lon="1.855515000">
        <ele>367.00</ele>
        <time>2011-05-25T13:12:56Z</time>
      </trkpt>
      <trkpt lat="41.544378000" lon="1.855262000">
        <ele>370.50</ele>
        <time>2011-05-25T13:13:03Z</time>
      </trkpt>
      <trkpt lat="41.544400000" lon="1.855128000">
        <ele>371.00</ele>
        <time>2011-05-25T13:13:08Z</time>
      </trkpt>
      <trkpt lat="41.544400000" lon="1.854967000">
        <ele>373.00</ele>
        <time>2011-05-25T13:13:13Z</time>
      </trkpt>
      <trkpt lat="41.544393000" lon="1.854902000">
        <ele>373.00</ele>
        <time>2011-05-25T13:13:15Z</time>
      </trkpt>
      <trkpt lat="41.544212000" lon="1.854412000">
        <ele>372.50</ele>
        <time>2011-05-25T13:13:31Z</time>
      </trkpt>
      <trkpt lat="41.544165000" lon="1.854362000">
        <ele>374.50</ele>
        <time>2011-05-25T13:13:34Z</time>
      </trkpt>
      <trkpt lat="41.544102000" lon="1.854192000">
        <ele>372.00</ele>
        <time>2011-05-25T13:13:39Z</time>
      </trkpt>
      <trkpt lat="41.544107000" lon="1.854150000">
        <ele>372.00</ele>
        <time>2011-05-25T13:13:41Z</time>
      </trkpt>
      <trkpt lat="41.544145000" lon="1.854118000">
        <ele>372.50</ele>
        <time>2011-05-25T13:13:43Z</time>
      </trkpt>
      <trkpt lat="41.544182000" lon="1.854125000">
        <ele>370.50</ele>
        <time>2011-05-25T13:13:45Z</time>
      </trkpt>
      <trkpt lat="41.544245000" lon="1.854155000">
        <ele>369.50</ele>
        <time>2011-05-25T13:13:46Z</time>
      </trkpt>
      <trkpt lat="41.544327000" lon="1.854202000">
        <ele>370.00</ele>
        <time>2011-05-25T13:13:50Z</time>
      </trkpt>
      <trkpt lat="41.544363000" lon="1.854213000">
        <ele>368.00</ele>
        <time>2011-05-25T13:13:52Z</time>
      </trkpt>
      <trkpt lat="41.544382000" lon="1.854188000">
        <ele>370.00</ele>
        <time>2011-05-25T13:13:53Z</time>
      </trkpt>
      <trkpt lat="41.544543000" lon="1.854005000">
        <ele>370.00</ele>
        <time>2011-05-25T13:14:00Z</time>
      </trkpt>
      <trkpt lat="41.544612000" lon="1.853923000">
        <ele>372.00</ele>
        <time>2011-05-25T13:14:02Z</time>
      </trkpt>
      <trkpt lat="41.544848000" lon="1.853708000">
        <ele>372.00</ele>
        <time>2011-05-25T13:14:11Z</time>
      </trkpt>
      <trkpt lat="41.544920000" lon="1.853600000">
        <ele>376.50</ele>
        <time>2011-05-25T13:14:14Z</time>
      </trkpt>
      <trkpt lat="41.545038000" lon="1.853468000">
        <ele>379.00</ele>
        <time>2011-05-25T13:14:19Z</time>
      </trkpt>
      <trkpt lat="41.545102000" lon="1.853377000">
        <ele>384.00</ele>
        <time>2011-05-25T13:14:23Z</time>
      </trkpt>
      <trkpt lat="41.545130000" lon="1.853357000">
        <ele>384.00</ele>
        <time>2011-05-25T13:14:23Z</time>
      </trkpt>
      <trkpt lat="41.545150000" lon="1.853355000">
        <ele>381.00</ele>
        <time>2011-05-25T13:14:25Z</time>
      </trkpt>
      <trkpt lat="41.545170000" lon="1.853330000">
        <ele>380.50</ele>
        <time>2011-05-25T13:14:26Z</time>
      </trkpt>
      <trkpt lat="41.545215000" lon="1.853275000">
        <ele>381.00</ele>
        <time>2011-05-25T13:14:28Z</time>
      </trkpt>
      <trkpt lat="41.545312000" lon="1.853192000">
        <ele>379.50</ele>
        <time>2011-05-25T13:14:33Z</time>
      </trkpt>
      <trkpt lat="41.545385000" lon="1.853117000">
        <ele>380.50</ele>
        <time>2011-05-25T13:14:37Z</time>
      </trkpt>
      <trkpt lat="41.545498000" lon="1.852945000">
        <ele>380.50</ele>
        <time>2011-05-25T13:14:42Z</time>
      </trkpt>
      <trkpt lat="41.545532000" lon="1.852907000">
        <ele>382.50</ele>
        <time>2011-05-25T13:14:44Z</time>
      </trkpt>
      <trkpt lat="41.545610000" lon="1.852820000">
        <ele>382.50</ele>
        <time>2011-05-25T13:14:47Z</time>
      </trkpt>
      <trkpt lat="41.545662000" lon="1.852753000">
        <ele>385.00</ele>
        <time>2011-05-25T13:14:51Z</time>
      </trkpt>
      <trkpt lat="41.545735000" lon="1.852662000">
        <ele>386.50</ele>
        <time>2011-05-25T13:14:54Z</time>
      </trkpt>
      <trkpt lat="41.545758000" lon="1.852630000">
        <ele>386.00</ele>
        <time>2011-05-25T13:14:54Z</time>
      </trkpt>
      <trkpt lat="41.545807000" lon="1.852557000">
        <ele>388.00</ele>
        <time>2011-05-25T13:14:56Z</time>
      </trkpt>
      <trkpt lat="41.545892000" lon="1.852447000">
        <ele>389.00</ele>
        <time>2011-05-25T13:15:00Z</time>
      </trkpt>
      <trkpt lat="41.545955000" lon="1.852382000">
        <ele>391.00</ele>
        <time>2011-05-25T13:15:01Z</time>
      </trkpt>
      <trkpt lat="41.546130000" lon="1.852237000">
        <ele>390.50</ele>
        <time>2011-05-25T13:15:06Z</time>
      </trkpt>
      <trkpt lat="41.546197000" lon="1.852162000">
        <ele>391.50</ele>
        <time>2011-05-25T13:15:08Z</time>
      </trkpt>
      <trkpt lat="41.546282000" lon="1.852077000">
        <ele>389.50</ele>
        <time>2011-05-25T13:15:12Z</time>
      </trkpt>
      <trkpt lat="41.546325000" lon="1.852007000">
        <ele>389.00</ele>
        <time>2011-05-25T13:15:13Z</time>
      </trkpt>
      <trkpt lat="41.546412000" lon="1.851880000">
        <ele>385.00</ele>
        <time>2011-05-25T13:15:17Z</time>
      </trkpt>
      <trkpt lat="41.546507000" lon="1.851672000">
        <ele>383.00</ele>
        <time>2011-05-25T13:15:22Z</time>
      </trkpt>
      <trkpt lat="41.546725000" lon="1.851187000">
        <ele>385.00</ele>
        <time>2011-05-25T13:15:34Z</time>
      </trkpt>
      <trkpt lat="41.546817000" lon="1.850975000">
        <ele>384.00</ele>
        <time>2011-05-25T13:15:41Z</time>
      </trkpt>
      <trkpt lat="41.546917000" lon="1.850778000">
        <ele>388.00</ele>
        <time>2011-05-25T13:15:48Z</time>
      </trkpt>
      <trkpt lat="41.547002000" lon="1.850643000">
        <ele>387.50</ele>
        <time>2011-05-25T13:15:54Z</time>
      </trkpt>
      <trkpt lat="41.547090000" lon="1.850475000">
        <ele>389.50</ele>
        <time>2011-05-25T13:16:02Z</time>
      </trkpt>
      <trkpt lat="41.547143000" lon="1.850383000">
        <ele>388.50</ele>
        <time>2011-05-25T13:16:04Z</time>
      </trkpt>
      <trkpt lat="41.547252000" lon="1.850207000">
        <ele>389.50</ele>
        <time>2011-05-25T13:16:13Z</time>
      </trkpt>
      <trkpt lat="41.547345000" lon="1.850025000">
        <ele>392.50</ele>
        <time>2011-05-25T13:16:21Z</time>
      </trkpt>
      <trkpt lat="41.547392000" lon="1.849943000">
        <ele>392.50</ele>
        <time>2011-05-25T13:16:25Z</time>
      </trkpt>
      <trkpt lat="41.547415000" lon="1.849898000">
        <ele>393.50</ele>
        <time>2011-05-25T13:16:28Z</time>
      </trkpt>
      <trkpt lat="41.547550000" lon="1.849667000">
        <ele>396.50</ele>
        <time>2011-05-25T13:16:39Z</time>
      </trkpt>
      <trkpt lat="41.547665000" lon="1.849483000">
        <ele>400.50</ele>
        <time>2011-05-25T13:16:49Z</time>
      </trkpt>
      <trkpt lat="41.547803000" lon="1.849295000">
        <ele>402.00</ele>
        <time>2011-05-25T13:16:58Z</time>
      </trkpt>
      <trkpt lat="41.547852000" lon="1.849210000">
        <ele>404.50</ele>
        <time>2011-05-25T13:17:03Z</time>
      </trkpt>
      <trkpt lat="41.548020000" lon="1.848982000">
        <ele>406.50</ele>
        <time>2011-05-25T13:17:14Z</time>
      </trkpt>
      <trkpt lat="41.548080000" lon="1.848908000">
        <ele>408.50</ele>
        <time>2011-05-25T13:17:17Z</time>
      </trkpt>
      <trkpt lat="41.548282000" lon="1.848572000">
        <ele>413.00</ele>
        <time>2011-05-25T13:17:33Z</time>
      </trkpt>
      <trkpt lat="41.548305000" lon="1.848517000">
        <ele>413.50</ele>
        <time>2011-05-25T13:17:36Z</time>
      </trkpt>
      <trkpt lat="41.548342000" lon="1.848432000">
        <ele>415.50</ele>
        <time>2011-05-25T13:17:42Z</time>
      </trkpt>
      <trkpt lat="41.548410000" lon="1.848248000">
        <ele>414.00</ele>
        <time>2011-05-25T13:17:52Z</time>
      </trkpt>
      <trkpt lat="41.548440000" lon="1.848192000">
        <ele>414.50</ele>
        <time>2011-05-25T13:17:57Z</time>
      </trkpt>
      <trkpt lat="41.548453000" lon="1.848163000">
        <ele>413.50</ele>
        <time>2011-05-25T13:17:59Z</time>
      </trkpt>
      <trkpt lat="41.548487000" lon="1.848068000">
        <ele>413.50</ele>
        <time>2011-05-25T13:18:06Z</time>
      </trkpt>
      <trkpt lat="41.548528000" lon="1.848002000">
        <ele>412.00</ele>
        <time>2011-05-25T13:18:11Z</time>
      </trkpt>
      <trkpt lat="41.548538000" lon="1.847987000">
        <ele>413.00</ele>
        <time>2011-05-25T13:18:11Z</time>
      </trkpt>
      <trkpt lat="41.548568000" lon="1.847887000">
        <ele>413.50</ele>
        <time>2011-05-25T13:18:18Z</time>
      </trkpt>
      <trkpt lat="41.548592000" lon="1.847807000">
        <ele>415.50</ele>
        <time>2011-05-25T13:18:23Z</time>
      </trkpt>
      <trkpt lat="41.548600000" lon="1.847800000">
        <ele>416.00</ele>
        <time>2011-05-25T13:18:25Z</time>
      </trkpt>
      <trkpt lat="41.548610000" lon="1.847780000">
        <ele>415.50</ele>
        <time>2011-05-25T13:18:25Z</time>
      </trkpt>
      <trkpt lat="41.548642000" lon="1.847757000">
        <ele>416.50</ele>
        <time>2011-05-25T13:18:29Z</time>
      </trkpt>
      <trkpt lat="41.548665000" lon="1.847748000">
        <ele>417.50</ele>
        <time>2011-05-25T13:18:30Z</time>
      </trkpt>
      <trkpt lat="41.548683000" lon="1.847763000">
        <ele>421.00</ele>
        <time>2011-05-25T13:18:34Z</time>
      </trkpt>
      <trkpt lat="41.548737000" lon="1.847712000">
        <ele>421.50</ele>
        <time>2011-05-25T13:18:42Z</time>
      </trkpt>
      <trkpt lat="41.548743000" lon="1.847715000">
        <ele>422.50</ele>
        <time>2011-05-25T13:19:02Z</time>
      </trkpt>
      <trkpt lat="41.548743000" lon="1.847715000">
        <ele>422.50</ele>
        <time>2011-05-25T13:19:02Z</time>
      </trkpt>
      <trkpt lat="41.548757000" lon="1.847622000">
        <ele>423.50</ele>
        <time>2011-05-25T13:19:07Z</time>
      </trkpt>
      <trkpt lat="41.548775000" lon="1.847377000">
        <ele>422.00</ele>
        <time>2011-05-25T13:19:17Z</time>
      </trkpt>
      <trkpt lat="41.548778000" lon="1.847303000">
        <ele>423.00</ele>
        <time>2011-05-25T13:19:21Z</time>
      </trkpt>
      <trkpt lat="41.548773000" lon="1.847170000">
        <ele>423.00</ele>
        <time>2011-05-25T13:19:28Z</time>
      </trkpt>
      <trkpt lat="41.548795000" lon="1.847057000">
        <ele>422.00</ele>
        <time>2011-05-25T13:19:33Z</time>
      </trkpt>
      <trkpt lat="41.548773000" lon="1.847058000">
        <ele>423.50</ele>
        <time>2011-05-25T13:19:38Z</time>
      </trkpt>
      <trkpt lat="41.548777000" lon="1.847045000">
        <ele>427.00</ele>
        <time>2011-05-25T13:19:47Z</time>
      </trkpt>
      <trkpt lat="41.548728000" lon="1.847143000">
        <ele>427.50</ele>
        <time>2011-05-25T13:19:54Z</time>
      </trkpt>
      <trkpt lat="41.548673000" lon="1.847167000">
        <ele>429.00</ele>
        <time>2011-05-25T13:19:59Z</time>
      </trkpt>
      <trkpt lat="41.548625000" lon="1.847148000">
        <ele>428.00</ele>
        <time>2011-05-25T13:20:04Z</time>
      </trkpt>
      <trkpt lat="41.548602000" lon="1.847127000">
        <ele>430.50</ele>
        <time>2011-05-25T13:20:06Z</time>
      </trkpt>
      <trkpt lat="41.548588000" lon="1.847120000">
        <ele>430.50</ele>
        <time>2011-05-25T13:20:06Z</time>
      </trkpt>
      <trkpt lat="41.548515000" lon="1.847043000">
        <ele>434.00</ele>
        <time>2011-05-25T13:20:11Z</time>
      </trkpt>
      <trkpt lat="41.548473000" lon="1.846998000">
        <ele>439.00</ele>
        <time>2011-05-25T13:20:15Z</time>
      </trkpt>
      <trkpt lat="41.548437000" lon="1.846955000">
        <ele>440.00</ele>
        <time>2011-05-25T13:20:18Z</time>
      </trkpt>
      <trkpt lat="41.548412000" lon="1.846958000">
        <ele>439.50</ele>
        <time>2011-05-25T13:20:20Z</time>
      </trkpt>
      <trkpt lat="41.548397000" lon="1.846955000">
        <ele>440.50</ele>
        <time>2011-05-25T13:20:20Z</time>
      </trkpt>
      <trkpt lat="41.548373000" lon="1.846817000">
        <ele>443.50</ele>
        <time>2011-05-25T13:20:27Z</time>
      </trkpt>
      <trkpt lat="41.548363000" lon="1.846702000">
        <ele>440.00</ele>
        <time>2011-05-25T13:20:34Z</time>
      </trkpt>
      <trkpt lat="41.548412000" lon="1.846568000">
        <ele>439.50</ele>
        <time>2011-05-25T13:20:39Z</time>
      </trkpt>
      <trkpt lat="41.548488000" lon="1.846328000">
        <ele>435.50</ele>
        <time>2011-05-25T13:20:48Z</time>
      </trkpt>
      <trkpt lat="41.548533000" lon="1.846188000">
        <ele>435.50</ele>
        <time>2011-05-25T13:20:53Z</time>
      </trkpt>
      <trkpt lat="41.548560000" lon="1.846113000">
        <ele>434.50</ele>
        <time>2011-05-25T13:20:55Z</time>
      </trkpt>
      <trkpt lat="41.548632000" lon="1.845928000">
        <ele>434.50</ele>
        <time>2011-05-25T13:21:00Z</time>
      </trkpt>
      <trkpt lat="41.548683000" lon="1.845783000">
        <ele>436.00</ele>
        <time>2011-05-25T13:21:05Z</time>
      </trkpt>
      <trkpt lat="41.548752000" lon="1.845597000">
        <ele>436.50</ele>
        <time>2011-05-25T13:21:09Z</time>
      </trkpt>
      <trkpt lat="41.548893000" lon="1.845127000">
        <ele>437.00</ele>
        <time>2011-05-25T13:21:23Z</time>
      </trkpt>
      <trkpt lat="41.548985000" lon="1.844828000">
        <ele>435.50</ele>
        <time>2011-05-25T13:21:30Z</time>
      </trkpt>
      <trkpt lat="41.549105000" lon="1.844387000">
        <ele>435.50</ele>
        <time>2011-05-25T13:21:42Z</time>
      </trkpt>
      <trkpt lat="41.549093000" lon="1.844387000">
        <ele>434.00</ele>
        <time>2011-05-25T13:21:44Z</time>
      </trkpt>
      <trkpt lat="41.549207000" lon="1.844035000">
        <ele>436.50</ele>
        <time>2011-05-25T13:21:54Z</time>
      </trkpt>
      <trkpt lat="41.549253000" lon="1.843847000">
        <ele>439.00</ele>
        <time>2011-05-25T13:21:59Z</time>
      </trkpt>
      <trkpt lat="41.549282000" lon="1.843755000">
        <ele>439.00</ele>
        <time>2011-05-25T13:22:03Z</time>
      </trkpt>
      <trkpt lat="41.549505000" lon="1.843290000">
        <ele>439.00</ele>
        <time>2011-05-25T13:22:18Z</time>
      </trkpt>
      <trkpt lat="41.549575000" lon="1.843182000">
        <ele>441.00</ele>
        <time>2011-05-25T13:22:24Z</time>
      </trkpt>
      <trkpt lat="41.549630000" lon="1.843090000">
        <ele>441.50</ele>
        <time>2011-05-25T13:22:29Z</time>
      </trkpt>
      <trkpt lat="41.549690000" lon="1.842998000">
        <ele>443.50</ele>
        <time>2011-05-25T13:22:32Z</time>
      </trkpt>
      <trkpt lat="41.549702000" lon="1.842990000">
        <ele>445.50</ele>
        <time>2011-05-25T13:22:34Z</time>
      </trkpt>
      <trkpt lat="41.549700000" lon="1.842977000">
        <ele>444.00</ele>
        <time>2011-05-25T13:22:36Z</time>
      </trkpt>
      <trkpt lat="41.549722000" lon="1.842945000">
        <ele>445.00</ele>
        <time>2011-05-25T13:22:38Z</time>
      </trkpt>
      <trkpt lat="41.549777000" lon="1.842855000">
        <ele>444.50</ele>
        <time>2011-05-25T13:22:41Z</time>
      </trkpt>
      <trkpt lat="41.549828000" lon="1.842763000">
        <ele>445.50</ele>
        <time>2011-05-25T13:22:46Z</time>
      </trkpt>
      <trkpt lat="41.549863000" lon="1.842673000">
        <ele>445.50</ele>
        <time>2011-05-25T13:22:50Z</time>
      </trkpt>
      <trkpt lat="41.550003000" lon="1.842353000">
        <ele>442.50</ele>
        <time>2011-05-25T13:22:57Z</time>
      </trkpt>
      <trkpt lat="41.550092000" lon="1.842137000">
        <ele>442.00</ele>
        <time>2011-05-25T13:23:00Z</time>
      </trkpt>
      <trkpt lat="41.550138000" lon="1.842030000">
        <ele>443.00</ele>
        <time>2011-05-25T13:23:02Z</time>
      </trkpt>
      <trkpt lat="41.550173000" lon="1.841932000">
        <ele>442.50</ele>
        <time>2011-05-25T13:23:04Z</time>
      </trkpt>
      <trkpt lat="41.550178000" lon="1.841898000">
        <ele>444.00</ele>
        <time>2011-05-25T13:23:07Z</time>
      </trkpt>
      <trkpt lat="41.550218000" lon="1.841825000">
        <ele>444.00</ele>
        <time>2011-05-25T13:23:09Z</time>
      </trkpt>
      <trkpt lat="41.550265000" lon="1.841727000">
        <ele>445.00</ele>
        <time>2011-05-25T13:23:11Z</time>
      </trkpt>
      <trkpt lat="41.550275000" lon="1.841702000">
        <ele>446.00</ele>
        <time>2011-05-25T13:23:12Z</time>
      </trkpt>
      <trkpt lat="41.550438000" lon="1.841283000">
        <ele>446.00</ele>
        <time>2011-05-25T13:23:23Z</time>
      </trkpt>
      <trkpt lat="41.550578000" lon="1.840958000">
        <ele>448.50</ele>
        <time>2011-05-25T13:23:33Z</time>
      </trkpt>
      <trkpt lat="41.550632000" lon="1.840845000">
        <ele>448.50</ele>
        <time>2011-05-25T13:23:37Z</time>
      </trkpt>
      <trkpt lat="41.550680000" lon="1.840742000">
        <ele>449.50</ele>
        <time>2011-05-25T13:23:42Z</time>
      </trkpt>
      <trkpt lat="41.550735000" lon="1.840622000">
        <ele>452.00</ele>
        <time>2011-05-25T13:23:47Z</time>
      </trkpt>
      <trkpt lat="41.550793000" lon="1.840493000">
        <ele>452.00</ele>
        <time>2011-05-25T13:23:51Z</time>
      </trkpt>
      <trkpt lat="41.550820000" lon="1.840412000">
        <ele>453.50</ele>
        <time>2011-05-25T13:23:54Z</time>
      </trkpt>
      <trkpt lat="41.550873000" lon="1.840302000">
        <ele>454.00</ele>
        <time>2011-05-25T13:23:58Z</time>
      </trkpt>
      <trkpt lat="41.550932000" lon="1.840172000">
        <ele>453.50</ele>
        <time>2011-05-25T13:24:03Z</time>
      </trkpt>
      <trkpt lat="41.550950000" lon="1.840147000">
        <ele>456.00</ele>
        <time>2011-05-25T13:24:05Z</time>
      </trkpt>
      <trkpt lat="41.550997000" lon="1.840038000">
        <ele>456.00</ele>
        <time>2011-05-25T13:24:08Z</time>
      </trkpt>
      <trkpt lat="41.551075000" lon="1.839865000">
        <ele>459.00</ele>
        <time>2011-05-25T13:24:15Z</time>
      </trkpt>
      <trkpt lat="41.551243000" lon="1.839220000">
        <ele>459.00</ele>
        <time>2011-05-25T13:24:34Z</time>
      </trkpt>
      <trkpt lat="41.551303000" lon="1.838962000">
        <ele>464.00</ele>
        <time>2011-05-25T13:24:43Z</time>
      </trkpt>
      <trkpt lat="41.551305000" lon="1.838875000">
        <ele>462.50</ele>
        <time>2011-05-25T13:24:45Z</time>
      </trkpt>
      <trkpt lat="41.551308000" lon="1.838853000">
        <ele>464.00</ele>
        <time>2011-05-25T13:24:45Z</time>
      </trkpt>
      <trkpt lat="41.551333000" lon="1.838757000">
        <ele>465.50</ele>
        <time>2011-05-25T13:24:48Z</time>
      </trkpt>
      <trkpt lat="41.551382000" lon="1.838635000">
        <ele>466.50</ele>
        <time>2011-05-25T13:24:52Z</time>
      </trkpt>
      <trkpt lat="41.551412000" lon="1.838573000">
        <ele>467.00</ele>
        <time>2011-05-25T13:24:55Z</time>
      </trkpt>
      <trkpt lat="41.551457000" lon="1.838483000">
        <ele>467.00</ele>
        <time>2011-05-25T13:24:57Z</time>
      </trkpt>
      <trkpt lat="41.551557000" lon="1.838273000">
        <ele>465.00</ele>
        <time>2011-05-25T13:25:04Z</time>
      </trkpt>
      <trkpt lat="41.551568000" lon="1.838243000">
        <ele>465.50</ele>
        <time>2011-05-25T13:25:06Z</time>
      </trkpt>
      <trkpt lat="41.551810000" lon="1.837897000">
        <ele>464.00</ele>
        <time>2011-05-25T13:25:16Z</time>
      </trkpt>
      <trkpt lat="41.551883000" lon="1.837765000">
        <ele>462.50</ele>
        <time>2011-05-25T13:25:20Z</time>
      </trkpt>
      <trkpt lat="41.552018000" lon="1.837598000">
        <ele>462.50</ele>
        <time>2011-05-25T13:25:25Z</time>
      </trkpt>
      <trkpt lat="41.552457000" lon="1.836947000">
        <ele>455.00</ele>
        <time>2011-05-25T13:25:42Z</time>
      </trkpt>
      <trkpt lat="41.552568000" lon="1.836667000">
        <ele>452.50</ele>
        <time>2011-05-25T13:25:46Z</time>
      </trkpt>
      <trkpt lat="41.552655000" lon="1.836372000">
        <ele>451.50</ele>
        <time>2011-05-25T13:25:51Z</time>
      </trkpt>
      <trkpt lat="41.552723000" lon="1.836053000">
        <ele>451.00</ele>
        <time>2011-05-25T13:25:56Z</time>
      </trkpt>
      <trkpt lat="41.552723000" lon="1.836005000">
        <ele>451.50</ele>
        <time>2011-05-25T13:25:58Z</time>
      </trkpt>
      <trkpt lat="41.552698000" lon="1.835838000">
        <ele>452.50</ele>
        <time>2011-05-25T13:26:01Z</time>
      </trkpt>
      <trkpt lat="41.552672000" lon="1.835788000">
        <ele>454.50</ele>
        <time>2011-05-25T13:26:03Z</time>
      </trkpt>
      <trkpt lat="41.552645000" lon="1.835695000">
        <ele>455.00</ele>
        <time>2011-05-25T13:26:07Z</time>
      </trkpt>
      <trkpt lat="41.552642000" lon="1.835682000">
        <ele>457.00</ele>
        <time>2011-05-25T13:26:07Z</time>
      </trkpt>
      <trkpt lat="41.552650000" lon="1.835567000">
        <ele>456.50</ele>
        <time>2011-05-25T13:26:10Z</time>
      </trkpt>
      <trkpt lat="41.552668000" lon="1.835528000">
        <ele>458.50</ele>
        <time>2011-05-25T13:26:12Z</time>
      </trkpt>
      <trkpt lat="41.552630000" lon="1.835518000">
        <ele>457.50</ele>
        <time>2011-05-25T13:26:12Z</time>
      </trkpt>
      <trkpt lat="41.552588000" lon="1.835422000">
        <ele>458.00</ele>
        <time>2011-05-25T13:26:17Z</time>
      </trkpt>
      <trkpt lat="41.552585000" lon="1.835307000">
        <ele>461.50</ele>
        <time>2011-05-25T13:26:22Z</time>
      </trkpt>
      <trkpt lat="41.552588000" lon="1.835212000">
        <ele>463.00</ele>
        <time>2011-05-25T13:26:26Z</time>
      </trkpt>
      <trkpt lat="41.552673000" lon="1.835055000">
        <ele>467.00</ele>
        <time>2011-05-25T13:26:38Z</time>
      </trkpt>
      <trkpt lat="41.552708000" lon="1.834997000">
        <ele>465.50</ele>
        <time>2011-05-25T13:26:40Z</time>
      </trkpt>
      <trkpt lat="41.552760000" lon="1.834945000">
        <ele>466.00</ele>
        <time>2011-05-25T13:26:43Z</time>
      </trkpt>
      <trkpt lat="41.552820000" lon="1.834892000">
        <ele>464.00</ele>
        <time>2011-05-25T13:26:47Z</time>
      </trkpt>
      <trkpt lat="41.552935000" lon="1.834758000">
        <ele>462.00</ele>
        <time>2011-05-25T13:26:52Z</time>
      </trkpt>
      <trkpt lat="41.552950000" lon="1.834737000">
        <ele>462.00</ele>
        <time>2011-05-25T13:26:54Z</time>
      </trkpt>
      <trkpt lat="41.552992000" lon="1.834653000">
        <ele>462.00</ele>
        <time>2011-05-25T13:26:57Z</time>
      </trkpt>
      <trkpt lat="41.553127000" lon="1.834298000">
        <ele>457.00</ele>
        <time>2011-05-25T13:27:06Z</time>
      </trkpt>
      <trkpt lat="41.553153000" lon="1.834173000">
        <ele>456.50</ele>
        <time>2011-05-25T13:27:08Z</time>
      </trkpt>
      <trkpt lat="41.553097000" lon="1.833942000">
        <ele>458.00</ele>
        <time>2011-05-25T13:27:13Z</time>
      </trkpt>
      <trkpt lat="41.553022000" lon="1.833868000">
        <ele>459.00</ele>
        <time>2011-05-25T13:27:15Z</time>
      </trkpt>
      <trkpt lat="41.552833000" lon="1.833638000">
        <ele>458.50</ele>
        <time>2011-05-25T13:27:18Z</time>
      </trkpt>
      <trkpt lat="41.552613000" lon="1.833433000">
        <ele>459.50</ele>
        <time>2011-05-25T13:27:23Z</time>
      </trkpt>
      <trkpt lat="41.552553000" lon="1.833292000">
        <ele>459.50</ele>
        <time>2011-05-25T13:27:25Z</time>
      </trkpt>
      <trkpt lat="41.552550000" lon="1.833113000">
        <ele>461.00</ele>
        <time>2011-05-25T13:27:27Z</time>
      </trkpt>
      <trkpt lat="41.552540000" lon="1.833087000">
        <ele>462.50</ele>
        <time>2011-05-25T13:27:29Z</time>
      </trkpt>
      <trkpt lat="41.552538000" lon="1.833048000">
        <ele>462.50</ele>
        <time>2011-05-25T13:27:30Z</time>
      </trkpt>
      <trkpt lat="41.552533000" lon="1.833030000">
        <ele>464.00</ele>
        <time>2011-05-25T13:27:30Z</time>
      </trkpt>
      <trkpt lat="41.552550000" lon="1.832977000">
        <ele>464.50</ele>
        <time>2011-05-25T13:27:32Z</time>
      </trkpt>
      <trkpt lat="41.552595000" lon="1.832908000">
        <ele>467.00</ele>
        <time>2011-05-25T13:27:36Z</time>
      </trkpt>
      <trkpt lat="41.552730000" lon="1.832793000">
        <ele>465.50</ele>
        <time>2011-05-25T13:27:39Z</time>
      </trkpt>
      <trkpt lat="41.552765000" lon="1.832747000">
        <ele>467.50</ele>
        <time>2011-05-25T13:27:41Z</time>
      </trkpt>
      <trkpt lat="41.552782000" lon="1.832720000">
        <ele>467.50</ele>
        <time>2011-05-25T13:27:42Z</time>
      </trkpt>
      <trkpt lat="41.552833000" lon="1.832447000">
        <ele>469.50</ele>
        <time>2011-05-25T13:27:51Z</time>
      </trkpt>
      <trkpt lat="41.552843000" lon="1.832418000">
        <ele>470.50</ele>
        <time>2011-05-25T13:27:51Z</time>
      </trkpt>
      <trkpt lat="41.552967000" lon="1.832333000">
        <ele>468.50</ele>
        <time>2011-05-25T13:27:56Z</time>
      </trkpt>
      <trkpt lat="41.553077000" lon="1.832235000">
        <ele>468.50</ele>
        <time>2011-05-25T13:28:02Z</time>
      </trkpt>
      <trkpt lat="41.553108000" lon="1.832140000">
        <ele>473.50</ele>
        <time>2011-05-25T13:28:05Z</time>
      </trkpt>
      <trkpt lat="41.553125000" lon="1.832115000">
        <ele>474.00</ele>
        <time>2011-05-25T13:28:05Z</time>
      </trkpt>
      <trkpt lat="41.553138000" lon="1.832090000">
        <ele>473.00</ele>
        <time>2011-05-25T13:28:07Z</time>
      </trkpt>
      <trkpt lat="41.553235000" lon="1.831918000">
        <ele>471.00</ele>
        <time>2011-05-25T13:28:12Z</time>
      </trkpt>
      <trkpt lat="41.553380000" lon="1.831702000">
        <ele>471.00</ele>
        <time>2011-05-25T13:28:21Z</time>
      </trkpt>
      <trkpt lat="41.553455000" lon="1.831580000">
        <ele>469.00</ele>
        <time>2011-05-25T13:28:24Z</time>
      </trkpt>
      <trkpt lat="41.553510000" lon="1.831495000">
        <ele>469.00</ele>
        <time>2011-05-25T13:28:28Z</time>
      </trkpt>
      <trkpt lat="41.553593000" lon="1.831340000">
        <ele>468.50</ele>
        <time>2011-05-25T13:28:33Z</time>
      </trkpt>
      <trkpt lat="41.553677000" lon="1.831123000">
        <ele>465.00</ele>
        <time>2011-05-25T13:28:38Z</time>
      </trkpt>
      <trkpt lat="41.553717000" lon="1.830975000">
        <ele>464.50</ele>
        <time>2011-05-25T13:28:42Z</time>
      </trkpt>
      <trkpt lat="41.553908000" lon="1.830618000">
        <ele>460.00</ele>
        <time>2011-05-25T13:28:49Z</time>
      </trkpt>
      <trkpt lat="41.554177000" lon="1.830122000">
        <ele>458.00</ele>
        <time>2011-05-25T13:28:54Z</time>
      </trkpt>
      <trkpt lat="41.554278000" lon="1.829858000">
        <ele>458.00</ele>
        <time>2011-05-25T13:28:57Z</time>
      </trkpt>
      <trkpt lat="41.554255000" lon="1.829705000">
        <ele>457.00</ele>
        <time>2011-05-25T13:29:01Z</time>
      </trkpt>
      <trkpt lat="41.554202000" lon="1.829680000">
        <ele>456.50</ele>
        <time>2011-05-25T13:29:03Z</time>
      </trkpt>
      <trkpt lat="41.554137000" lon="1.829637000">
        <ele>457.50</ele>
        <time>2011-05-25T13:29:06Z</time>
      </trkpt>
      <trkpt lat="41.554072000" lon="1.829640000">
        <ele>460.00</ele>
        <time>2011-05-25T13:29:08Z</time>
      </trkpt>
      <trkpt lat="41.554013000" lon="1.829602000">
        <ele>461.00</ele>
        <time>2011-05-25T13:29:10Z</time>
      </trkpt>
      <trkpt lat="41.553962000" lon="1.829518000">
        <ele>459.50</ele>
        <time>2011-05-25T13:29:11Z</time>
      </trkpt>
      <trkpt lat="41.553942000" lon="1.829455000">
        <ele>457.50</ele>
        <time>2011-05-25T13:29:13Z</time>
      </trkpt>
      <trkpt lat="41.553758000" lon="1.829260000">
        <ele>459.00</ele>
        <time>2011-05-25T13:29:18Z</time>
      </trkpt>
      <trkpt lat="41.553753000" lon="1.829203000">
        <ele>460.00</ele>
        <time>2011-05-25T13:29:18Z</time>
      </trkpt>
      <trkpt lat="41.553765000" lon="1.829155000">
        <ele>462.00</ele>
        <time>2011-05-25T13:29:20Z</time>
      </trkpt>
      <trkpt lat="41.553872000" lon="1.828867000">
        <ele>463.00</ele>
        <time>2011-05-25T13:29:25Z</time>
      </trkpt>
      <trkpt lat="41.553903000" lon="1.828798000">
        <ele>465.00</ele>
        <time>2011-05-25T13:29:27Z</time>
      </trkpt>
      <trkpt lat="41.553955000" lon="1.828653000">
        <ele>465.50</ele>
        <time>2011-05-25T13:29:30Z</time>
      </trkpt>
      <trkpt lat="41.553980000" lon="1.828597000">
        <ele>467.50</ele>
        <time>2011-05-25T13:29:32Z</time>
      </trkpt>
      <trkpt lat="41.554030000" lon="1.828493000">
        <ele>467.00</ele>
        <time>2011-05-25T13:29:34Z</time>
      </trkpt>
      <trkpt lat="41.554042000" lon="1.828467000">
        <ele>468.50</ele>
        <time>2011-05-25T13:29:36Z</time>
      </trkpt>
      <trkpt lat="41.554075000" lon="1.828403000">
        <ele>470.00</ele>
        <time>2011-05-25T13:29:37Z</time>
      </trkpt>
      <trkpt lat="41.554117000" lon="1.828287000">
        <ele>469.50</ele>
        <time>2011-05-25T13:29:39Z</time>
      </trkpt>
      <trkpt lat="41.554150000" lon="1.827960000">
        <ele>470.00</ele>
        <time>2011-05-25T13:29:46Z</time>
      </trkpt>
      <trkpt lat="41.554150000" lon="1.827920000">
        <ele>471.00</ele>
        <time>2011-05-25T13:29:48Z</time>
      </trkpt>
      <trkpt lat="41.554145000" lon="1.827757000">
        <ele>472.00</ele>
        <time>2011-05-25T13:29:51Z</time>
      </trkpt>
      <trkpt lat="41.554212000" lon="1.827422000">
        <ele>472.00</ele>
        <time>2011-05-25T13:29:58Z</time>
      </trkpt>
      <trkpt lat="41.554247000" lon="1.827330000">
        <ele>472.00</ele>
        <time>2011-05-25T13:30:00Z</time>
      </trkpt>
      <trkpt lat="41.554280000" lon="1.827248000">
        <ele>470.00</ele>
        <time>2011-05-25T13:30:02Z</time>
      </trkpt>
      <trkpt lat="41.554298000" lon="1.827147000">
        <ele>465.00</ele>
        <time>2011-05-25T13:30:05Z</time>
      </trkpt>
      <trkpt lat="41.554320000" lon="1.827107000">
        <ele>464.50</ele>
        <time>2011-05-25T13:30:07Z</time>
      </trkpt>
      <trkpt lat="41.554417000" lon="1.826942000">
        <ele>466.50</ele>
        <time>2011-05-25T13:30:14Z</time>
      </trkpt>
      <trkpt lat="41.554517000" lon="1.826718000">
        <ele>466.00</ele>
        <time>2011-05-25T13:30:21Z</time>
      </trkpt>
      <trkpt lat="41.554523000" lon="1.826700000">
        <ele>467.00</ele>
        <time>2011-05-25T13:30:23Z</time>
      </trkpt>
      <trkpt lat="41.554533000" lon="1.826673000">
        <ele>466.50</ele>
        <time>2011-05-25T13:30:23Z</time>
      </trkpt>
      <trkpt lat="41.554555000" lon="1.826613000">
        <ele>467.50</ele>
        <time>2011-05-25T13:30:28Z</time>
      </trkpt>
      <trkpt lat="41.554603000" lon="1.826543000">
        <ele>466.00</ele>
        <time>2011-05-25T13:30:31Z</time>
      </trkpt>
      <trkpt lat="41.554743000" lon="1.826415000">
        <ele>465.00</ele>
        <time>2011-05-25T13:30:38Z</time>
      </trkpt>
      <trkpt lat="41.554817000" lon="1.826357000">
        <ele>463.50</ele>
        <time>2011-05-25T13:30:42Z</time>
      </trkpt>
      <trkpt lat="41.555000000" lon="1.826217000">
        <ele>462.50</ele>
        <time>2011-05-25T13:30:47Z</time>
      </trkpt>
      <trkpt lat="41.555290000" lon="1.825967000">
        <ele>462.50</ele>
        <time>2011-05-25T13:30:59Z</time>
      </trkpt>
      <trkpt lat="41.555332000" lon="1.825943000">
        <ele>460.00</ele>
        <time>2011-05-25T13:30:59Z</time>
      </trkpt>
      <trkpt lat="41.555590000" lon="1.825793000">
        <ele>460.50</ele>
        <time>2011-05-25T13:31:06Z</time>
      </trkpt>
      <trkpt lat="41.555968000" lon="1.826167000">
        <ele>455.00</ele>
        <time>2011-05-25T13:31:15Z</time>
      </trkpt>
      <trkpt lat="41.556115000" lon="1.826363000">
        <ele>454.00</ele>
        <time>2011-05-25T13:31:17Z</time>
      </trkpt>
      <trkpt lat="41.556260000" lon="1.826557000">
        <ele>453.50</ele>
        <time>2011-05-25T13:31:20Z</time>
      </trkpt>
      <trkpt lat="41.556303000" lon="1.826623000">
        <ele>453.00</ele>
        <time>2011-05-25T13:31:22Z</time>
      </trkpt>
      <trkpt lat="41.556457000" lon="1.826887000">
        <ele>453.50</ele>
        <time>2011-05-25T13:31:25Z</time>
      </trkpt>
      <trkpt lat="41.556617000" lon="1.827275000">
        <ele>452.50</ele>
        <time>2011-05-25T13:31:31Z</time>
      </trkpt>
      <trkpt lat="41.556870000" lon="1.827508000">
        <ele>451.50</ele>
        <time>2011-05-25T13:31:38Z</time>
      </trkpt>
      <trkpt lat="41.557008000" lon="1.827653000">
        <ele>452.00</ele>
        <time>2011-05-25T13:31:43Z</time>
      </trkpt>
      <trkpt lat="41.557058000" lon="1.827702000">
        <ele>451.00</ele>
        <time>2011-05-25T13:31:46Z</time>
      </trkpt>
      <trkpt lat="41.557262000" lon="1.827853000">
        <ele>451.00</ele>
        <time>2011-05-25T13:31:55Z</time>
      </trkpt>
      <trkpt lat="41.557275000" lon="1.827863000">
        <ele>452.00</ele>
        <time>2011-05-25T13:31:57Z</time>
      </trkpt>
      <trkpt lat="41.557343000" lon="1.827938000">
        <ele>452.00</ele>
        <time>2011-05-25T13:32:00Z</time>
      </trkpt>
      <trkpt lat="41.557352000" lon="1.827968000">
        <ele>452.50</ele>
        <time>2011-05-25T13:32:02Z</time>
      </trkpt>
      <trkpt lat="41.557350000" lon="1.828008000">
        <ele>451.00</ele>
        <time>2011-05-25T13:32:02Z</time>
      </trkpt>
      <trkpt lat="41.557318000" lon="1.828200000">
        <ele>450.00</ele>
        <time>2011-05-25T13:32:09Z</time>
      </trkpt>
      <trkpt lat="41.557292000" lon="1.828305000">
        <ele>450.00</ele>
        <time>2011-05-25T13:32:11Z</time>
      </trkpt>
      <trkpt lat="41.557235000" lon="1.828508000">
        <ele>454.00</ele>
        <time>2011-05-25T13:32:16Z</time>
      </trkpt>
      <trkpt lat="41.557215000" lon="1.828603000">
        <ele>454.50</ele>
        <time>2011-05-25T13:32:18Z</time>
      </trkpt>
      <trkpt lat="41.557200000" lon="1.828687000">
        <ele>457.50</ele>
        <time>2011-05-25T13:32:21Z</time>
      </trkpt>
      <trkpt lat="41.557190000" lon="1.828860000">
        <ele>456.50</ele>
        <time>2011-05-25T13:32:23Z</time>
      </trkpt>
      <trkpt lat="41.557188000" lon="1.828913000">
        <ele>457.00</ele>
        <time>2011-05-25T13:32:25Z</time>
      </trkpt>
      <trkpt lat="41.557177000" lon="1.829045000">
        <ele>455.50</ele>
        <time>2011-05-25T13:32:26Z</time>
      </trkpt>
      <trkpt lat="41.557168000" lon="1.829108000">
        <ele>455.50</ele>
        <time>2011-05-25T13:32:28Z</time>
      </trkpt>
      <trkpt lat="41.557023000" lon="1.829453000">
        <ele>456.00</ele>
        <time>2011-05-25T13:32:35Z</time>
      </trkpt>
      <trkpt lat="41.556948000" lon="1.829698000">
        <ele>460.50</ele>
        <time>2011-05-25T13:32:40Z</time>
      </trkpt>
      <trkpt lat="41.556905000" lon="1.829818000">
        <ele>458.00</ele>
        <time>2011-05-25T13:32:42Z</time>
      </trkpt>
      <trkpt lat="41.556782000" lon="1.830107000">
        <ele>454.50</ele>
        <time>2011-05-25T13:32:47Z</time>
      </trkpt>
      <trkpt lat="41.556737000" lon="1.830225000">
        <ele>454.50</ele>
        <time>2011-05-25T13:32:51Z</time>
      </trkpt>
      <trkpt lat="41.556657000" lon="1.830453000">
        <ele>452.00</ele>
        <time>2011-05-25T13:32:54Z</time>
      </trkpt>
      <trkpt lat="41.556595000" lon="1.830598000">
        <ele>451.50</ele>
        <time>2011-05-25T13:32:56Z</time>
      </trkpt>
      <trkpt lat="41.556522000" lon="1.830768000">
        <ele>455.00</ele>
        <time>2011-05-25T13:33:01Z</time>
      </trkpt>
      <trkpt lat="41.556490000" lon="1.830862000">
        <ele>457.00</ele>
        <time>2011-05-25T13:33:03Z</time>
      </trkpt>
      <trkpt lat="41.556447000" lon="1.831198000">
        <ele>457.00</ele>
        <time>2011-05-25T13:33:08Z</time>
      </trkpt>
      <trkpt lat="41.556425000" lon="1.831233000">
        <ele>458.50</ele>
        <time>2011-05-25T13:33:10Z</time>
      </trkpt>
      <trkpt lat="41.556400000" lon="1.831282000">
        <ele>458.50</ele>
        <time>2011-05-25T13:33:10Z</time>
      </trkpt>
      <trkpt lat="41.556377000" lon="1.831357000">
        <ele>456.00</ele>
        <time>2011-05-25T13:33:12Z</time>
      </trkpt>
      <trkpt lat="41.556247000" lon="1.831668000">
        <ele>454.50</ele>
        <time>2011-05-25T13:33:17Z</time>
      </trkpt>
      <trkpt lat="41.556177000" lon="1.831773000">
        <ele>456.00</ele>
        <time>2011-05-25T13:33:19Z</time>
      </trkpt>
      <trkpt lat="41.556147000" lon="1.831838000">
        <ele>454.50</ele>
        <time>2011-05-25T13:33:19Z</time>
      </trkpt>
      <trkpt lat="41.556022000" lon="1.832155000">
        <ele>455.00</ele>
        <time>2011-05-25T13:33:24Z</time>
      </trkpt>
      <trkpt lat="41.555968000" lon="1.832283000">
        <ele>451.50</ele>
        <time>2011-05-25T13:33:26Z</time>
      </trkpt>
      <trkpt lat="41.555892000" lon="1.832463000">
        <ele>452.50</ele>
        <time>2011-05-25T13:33:29Z</time>
      </trkpt>
      <trkpt lat="41.555838000" lon="1.832572000">
        <ele>452.50</ele>
        <time>2011-05-25T13:33:31Z</time>
      </trkpt>
      <trkpt lat="41.555740000" lon="1.832650000">
        <ele>455.00</ele>
        <time>2011-05-25T13:33:34Z</time>
      </trkpt>
      <trkpt lat="41.555700000" lon="1.832703000">
        <ele>454.00</ele>
        <time>2011-05-25T13:33:34Z</time>
      </trkpt>
      <trkpt lat="41.555535000" lon="1.832860000">
        <ele>456.50</ele>
        <time>2011-05-25T13:33:38Z</time>
      </trkpt>
      <trkpt lat="41.555407000" lon="1.833115000">
        <ele>447.00</ele>
        <time>2011-05-25T13:33:41Z</time>
      </trkpt>
      <trkpt lat="41.555312000" lon="1.833170000">
        <ele>446.50</ele>
        <time>2011-05-25T13:33:43Z</time>
      </trkpt>
      <trkpt lat="41.555212000" lon="1.833298000">
        <ele>443.00</ele>
        <time>2011-05-25T13:33:45Z</time>
      </trkpt>
      <trkpt lat="41.555182000" lon="1.833322000">
        <ele>444.00</ele>
        <time>2011-05-25T13:33:47Z</time>
      </trkpt>
      <trkpt lat="41.555173000" lon="1.833370000">
        <ele>442.50</ele>
        <time>2011-05-25T13:33:48Z</time>
      </trkpt>
      <trkpt lat="41.555180000" lon="1.833523000">
        <ele>444.00</ele>
        <time>2011-05-25T13:33:50Z</time>
      </trkpt>
      <trkpt lat="41.555188000" lon="1.833583000">
        <ele>443.00</ele>
        <time>2011-05-25T13:33:52Z</time>
      </trkpt>
      <trkpt lat="41.555180000" lon="1.834020000">
        <ele>443.00</ele>
        <time>2011-05-25T13:33:59Z</time>
      </trkpt>
      <trkpt lat="41.555178000" lon="1.834347000">
        <ele>445.00</ele>
        <time>2011-05-25T13:34:06Z</time>
      </trkpt>
      <trkpt lat="41.555163000" lon="1.834402000">
        <ele>445.50</ele>
        <time>2011-05-25T13:34:06Z</time>
      </trkpt>
      <trkpt lat="41.555113000" lon="1.834525000">
        <ele>445.50</ele>
        <time>2011-05-25T13:34:09Z</time>
      </trkpt>
      <trkpt lat="41.555088000" lon="1.834567000">
        <ele>446.50</ele>
        <time>2011-05-25T13:34:09Z</time>
      </trkpt>
      <trkpt lat="41.555065000" lon="1.834625000">
        <ele>446.00</ele>
        <time>2011-05-25T13:34:11Z</time>
      </trkpt>
      <trkpt lat="41.555027000" lon="1.834693000">
        <ele>447.50</ele>
        <time>2011-05-25T13:34:13Z</time>
      </trkpt>
      <trkpt lat="41.555002000" lon="1.834742000">
        <ele>447.50</ele>
        <time>2011-05-25T13:34:13Z</time>
      </trkpt>
      <trkpt lat="41.554943000" lon="1.834868000">
        <ele>445.50</ele>
        <time>2011-05-25T13:34:16Z</time>
      </trkpt>
      <trkpt lat="41.554770000" lon="1.835210000">
        <ele>445.00</ele>
        <time>2011-05-25T13:34:23Z</time>
      </trkpt>
      <trkpt lat="41.554725000" lon="1.835415000">
        <ele>442.00</ele>
        <time>2011-05-25T13:34:25Z</time>
      </trkpt>
      <trkpt lat="41.554603000" lon="1.835697000">
        <ele>440.50</ele>
        <time>2011-05-25T13:34:30Z</time>
      </trkpt>
      <trkpt lat="41.554542000" lon="1.835782000">
        <ele>439.50</ele>
        <time>2011-05-25T13:34:32Z</time>
      </trkpt>
      <trkpt lat="41.554338000" lon="1.836085000">
        <ele>434.00</ele>
        <time>2011-05-25T13:34:42Z</time>
      </trkpt>
      <trkpt lat="41.554322000" lon="1.836133000">
        <ele>434.00</ele>
        <time>2011-05-25T13:34:42Z</time>
      </trkpt>
      <trkpt lat="41.554280000" lon="1.836547000">
        <ele>433.00</ele>
        <time>2011-05-25T13:34:51Z</time>
      </trkpt>
      <trkpt lat="41.554248000" lon="1.836682000">
        <ele>431.00</ele>
        <time>2011-05-25T13:34:53Z</time>
      </trkpt>
      <trkpt lat="41.554190000" lon="1.836858000">
        <ele>431.00</ele>
        <time>2011-05-25T13:34:56Z</time>
      </trkpt>
      <trkpt lat="41.554145000" lon="1.837045000">
        <ele>428.00</ele>
        <time>2011-05-25T13:34:58Z</time>
      </trkpt>
      <trkpt lat="41.554138000" lon="1.837308000">
        <ele>426.00</ele>
        <time>2011-05-25T13:35:03Z</time>
      </trkpt>
      <trkpt lat="41.554142000" lon="1.837373000">
        <ele>426.50</ele>
        <time>2011-05-25T13:35:03Z</time>
      </trkpt>
      <trkpt lat="41.554142000" lon="1.837453000">
        <ele>425.00</ele>
        <time>2011-05-25T13:35:05Z</time>
      </trkpt>
      <trkpt lat="41.554125000" lon="1.837602000">
        <ele>425.00</ele>
        <time>2011-05-25T13:35:07Z</time>
      </trkpt>
      <trkpt lat="41.554027000" lon="1.838117000">
        <ele>420.00</ele>
        <time>2011-05-25T13:35:12Z</time>
      </trkpt>
      <trkpt lat="41.553992000" lon="1.838195000">
        <ele>420.50</ele>
        <time>2011-05-25T13:35:14Z</time>
      </trkpt>
      <trkpt lat="41.553932000" lon="1.838367000">
        <ele>419.50</ele>
        <time>2011-05-25T13:35:15Z</time>
      </trkpt>
      <trkpt lat="41.553907000" lon="1.838565000">
        <ele>416.50</ele>
        <time>2011-05-25T13:35:17Z</time>
      </trkpt>
      <trkpt lat="41.553910000" lon="1.838762000">
        <ele>415.50</ele>
        <time>2011-05-25T13:35:19Z</time>
      </trkpt>
      <trkpt lat="41.553852000" lon="1.839240000">
        <ele>416.00</ele>
        <time>2011-05-25T13:35:26Z</time>
      </trkpt>
      <trkpt lat="41.553840000" lon="1.839290000">
        <ele>418.00</ele>
        <time>2011-05-25T13:35:26Z</time>
      </trkpt>
      <trkpt lat="41.553757000" lon="1.839613000">
        <ele>418.00</ele>
        <time>2011-05-25T13:35:31Z</time>
      </trkpt>
      <trkpt lat="41.553702000" lon="1.839745000">
        <ele>416.00</ele>
        <time>2011-05-25T13:35:33Z</time>
      </trkpt>
      <trkpt lat="41.553520000" lon="1.840073000">
        <ele>414.00</ele>
        <time>2011-05-25T13:35:40Z</time>
      </trkpt>
      <trkpt lat="41.553398000" lon="1.840290000">
        <ele>414.00</ele>
        <time>2011-05-25T13:35:43Z</time>
      </trkpt>
      <trkpt lat="41.553362000" lon="1.840413000">
        <ele>410.50</ele>
        <time>2011-05-25T13:35:47Z</time>
      </trkpt>
      <trkpt lat="41.553348000" lon="1.840425000">
        <ele>412.00</ele>
        <time>2011-05-25T13:35:48Z</time>
      </trkpt>
      <trkpt lat="41.553177000" lon="1.840713000">
        <ele>412.00</ele>
        <time>2011-05-25T13:35:59Z</time>
      </trkpt>
      <trkpt lat="41.552907000" lon="1.841152000">
        <ele>410.00</ele>
        <time>2011-05-25T13:36:11Z</time>
      </trkpt>
      <trkpt lat="41.552848000" lon="1.841242000">
        <ele>410.50</ele>
        <time>2011-05-25T13:36:16Z</time>
      </trkpt>
      <trkpt lat="41.552797000" lon="1.841302000">
        <ele>412.50</ele>
        <time>2011-05-25T13:36:18Z</time>
      </trkpt>
      <trkpt lat="41.552723000" lon="1.841422000">
        <ele>412.50</ele>
        <time>2011-05-25T13:36:23Z</time>
      </trkpt>
      <trkpt lat="41.552487000" lon="1.841820000">
        <ele>409.50</ele>
        <time>2011-05-25T13:36:32Z</time>
      </trkpt>
      <trkpt lat="41.552412000" lon="1.841942000">
        <ele>409.50</ele>
        <time>2011-05-25T13:36:37Z</time>
      </trkpt>
      <trkpt lat="41.552393000" lon="1.841992000">
        <ele>408.50</ele>
        <time>2011-05-25T13:36:41Z</time>
      </trkpt>
      <trkpt lat="41.552407000" lon="1.842043000">
        <ele>407.50</ele>
        <time>2011-05-25T13:36:44Z</time>
      </trkpt>
      <trkpt lat="41.552570000" lon="1.842210000">
        <ele>406.50</ele>
        <time>2011-05-25T13:36:53Z</time>
      </trkpt>
      <trkpt lat="41.552665000" lon="1.842325000">
        <ele>404.00</ele>
        <time>2011-05-25T13:36:58Z</time>
      </trkpt>
      <trkpt lat="41.552732000" lon="1.842385000">
        <ele>404.50</ele>
        <time>2011-05-25T13:37:00Z</time>
      </trkpt>
      <trkpt lat="41.552847000" lon="1.842437000">
        <ele>405.00</ele>
        <time>2011-05-25T13:37:05Z</time>
      </trkpt>
      <trkpt lat="41.552925000" lon="1.842403000">
        <ele>404.50</ele>
        <time>2011-05-25T13:37:07Z</time>
      </trkpt>
      <trkpt lat="41.552988000" lon="1.842328000">
        <ele>404.50</ele>
        <time>2011-05-25T13:37:09Z</time>
      </trkpt>
      <trkpt lat="41.553215000" lon="1.841972000">
        <ele>407.00</ele>
        <time>2011-05-25T13:37:17Z</time>
      </trkpt>
      <trkpt lat="41.553350000" lon="1.841713000">
        <ele>407.50</ele>
        <time>2011-05-25T13:37:23Z</time>
      </trkpt>
      <trkpt lat="41.553590000" lon="1.841328000">
        <ele>407.00</ele>
        <time>2011-05-25T13:37:33Z</time>
      </trkpt>
      <trkpt lat="41.553702000" lon="1.841142000">
        <ele>405.00</ele>
        <time>2011-05-25T13:37:36Z</time>
      </trkpt>
      <trkpt lat="41.553723000" lon="1.841088000">
        <ele>404.50</ele>
        <time>2011-05-25T13:37:38Z</time>
      </trkpt>
      <trkpt lat="41.553748000" lon="1.840717000">
        <ele>404.00</ele>
        <time>2011-05-25T13:37:45Z</time>
      </trkpt>
      <trkpt lat="41.553738000" lon="1.840647000">
        <ele>405.50</ele>
        <time>2011-05-25T13:37:47Z</time>
      </trkpt>
      <trkpt lat="41.553753000" lon="1.840578000">
        <ele>405.50</ele>
        <time>2011-05-25T13:37:49Z</time>
      </trkpt>
      <trkpt lat="41.553875000" lon="1.840412000">
        <ele>406.50</ele>
        <time>2011-05-25T13:37:56Z</time>
      </trkpt>
      <trkpt lat="41.554058000" lon="1.840088000">
        <ele>412.50</ele>
        <time>2011-05-25T13:38:06Z</time>
      </trkpt>
      <trkpt lat="41.554138000" lon="1.839933000">
        <ele>414.50</ele>
        <time>2011-05-25T13:38:11Z</time>
      </trkpt>
      <trkpt lat="41.554228000" lon="1.839777000">
        <ele>415.00</ele>
        <time>2011-05-25T13:38:15Z</time>
      </trkpt>
      <trkpt lat="41.554308000" lon="1.839645000">
        <ele>417.50</ele>
        <time>2011-05-25T13:38:20Z</time>
      </trkpt>
      <trkpt lat="41.554398000" lon="1.839495000">
        <ele>418.50</ele>
        <time>2011-05-25T13:38:27Z</time>
      </trkpt>
      <trkpt lat="41.554555000" lon="1.839387000">
        <ele>419.50</ele>
        <time>2011-05-25T13:38:34Z</time>
      </trkpt>
      <trkpt lat="41.554578000" lon="1.839390000">
        <ele>420.00</ele>
        <time>2011-05-25T13:38:34Z</time>
      </trkpt>
      <trkpt lat="41.554652000" lon="1.839413000">
        <ele>421.50</ele>
        <time>2011-05-25T13:38:37Z</time>
      </trkpt>
      <trkpt lat="41.554728000" lon="1.839450000">
        <ele>422.00</ele>
        <time>2011-05-25T13:38:41Z</time>
      </trkpt>
      <trkpt lat="41.554947000" lon="1.839593000">
        <ele>422.00</ele>
        <time>2011-05-25T13:38:48Z</time>
      </trkpt>
      <trkpt lat="41.555010000" lon="1.839697000">
        <ele>422.50</ele>
        <time>2011-05-25T13:38:51Z</time>
      </trkpt>
      <trkpt lat="41.555110000" lon="1.840118000">
        <ele>421.00</ele>
        <time>2011-05-25T13:39:04Z</time>
      </trkpt>
      <trkpt lat="41.554972000" lon="1.840505000">
        <ele>417.00</ele>
        <time>2011-05-25T13:39:12Z</time>
      </trkpt>
      <trkpt lat="41.554852000" lon="1.840792000">
        <ele>416.00</ele>
        <time>2011-05-25T13:39:16Z</time>
      </trkpt>
      <trkpt lat="41.554835000" lon="1.840848000">
        <ele>414.50</ele>
        <time>2011-05-25T13:39:18Z</time>
      </trkpt>
      <trkpt lat="41.554552000" lon="1.841538000">
        <ele>412.00</ele>
        <time>2011-05-25T13:39:28Z</time>
      </trkpt>
      <trkpt lat="41.554530000" lon="1.841602000">
        <ele>411.00</ele>
        <time>2011-05-25T13:39:30Z</time>
      </trkpt>
      <trkpt lat="41.554397000" lon="1.841938000">
        <ele>410.50</ele>
        <time>2011-05-25T13:39:35Z</time>
      </trkpt>
      <trkpt lat="41.553953000" lon="1.843047000">
        <ele>404.50</ele>
        <time>2011-05-25T13:39:54Z</time>
      </trkpt>
      <trkpt lat="41.553938000" lon="1.843133000">
        <ele>404.00</ele>
        <time>2011-05-25T13:39:56Z</time>
      </trkpt>
      <trkpt lat="41.553882000" lon="1.843653000">
        <ele>404.00</ele>
        <time>2011-05-25T13:40:06Z</time>
      </trkpt>
      <trkpt lat="41.553855000" lon="1.843923000">
        <ele>403.00</ele>
        <time>2011-05-25T13:40:10Z</time>
      </trkpt>
      <trkpt lat="41.553842000" lon="1.844008000">
        <ele>401.00</ele>
        <time>2011-05-25T13:40:10Z</time>
      </trkpt>
      <trkpt lat="41.553835000" lon="1.844085000">
        <ele>400.50</ele>
        <time>2011-05-25T13:40:12Z</time>
      </trkpt>
      <trkpt lat="41.553800000" lon="1.844432000">
        <ele>401.50</ele>
        <time>2011-05-25T13:40:17Z</time>
      </trkpt>
      <trkpt lat="41.553780000" lon="1.844537000">
        <ele>405.50</ele>
        <time>2011-05-25T13:40:18Z</time>
      </trkpt>
      <trkpt lat="41.553710000" lon="1.844993000">
        <ele>406.50</ele>
        <time>2011-05-25T13:40:25Z</time>
      </trkpt>
      <trkpt lat="41.553707000" lon="1.845067000">
        <ele>405.00</ele>
        <time>2011-05-25T13:40:27Z</time>
      </trkpt>
      <trkpt lat="41.553648000" lon="1.845513000">
        <ele>403.00</ele>
        <time>2011-05-25T13:40:32Z</time>
      </trkpt>
      <trkpt lat="41.553643000" lon="1.845592000">
        <ele>403.00</ele>
        <time>2011-05-25T13:40:34Z</time>
      </trkpt>
      <trkpt lat="41.553653000" lon="1.845915000">
        <ele>402.00</ele>
        <time>2011-05-25T13:40:38Z</time>
      </trkpt>
      <trkpt lat="41.553650000" lon="1.845983000">
        <ele>403.00</ele>
        <time>2011-05-25T13:40:38Z</time>
      </trkpt>
      <trkpt lat="41.553660000" lon="1.846462000">
        <ele>402.50</ele>
        <time>2011-05-25T13:40:46Z</time>
      </trkpt>
      <trkpt lat="41.553917000" lon="1.846747000">
        <ele>398.50</ele>
        <time>2011-05-25T13:40:53Z</time>
      </trkpt>
      <trkpt lat="41.553947000" lon="1.846782000">
        <ele>398.50</ele>
        <time>2011-05-25T13:40:55Z</time>
      </trkpt>
      <trkpt lat="41.553992000" lon="1.846887000">
        <ele>400.50</ele>
        <time>2011-05-25T13:40:57Z</time>
      </trkpt>
      <trkpt lat="41.554272000" lon="1.847627000">
        <ele>398.50</ele>
        <time>2011-05-25T13:41:11Z</time>
      </trkpt>
      <trkpt lat="41.554378000" lon="1.847943000">
        <ele>399.00</ele>
        <time>2011-05-25T13:41:18Z</time>
      </trkpt>
      <trkpt lat="41.554413000" lon="1.848028000">
        <ele>398.00</ele>
        <time>2011-05-25T13:41:21Z</time>
      </trkpt>
      <trkpt lat="41.554517000" lon="1.848352000">
        <ele>398.00</ele>
        <time>2011-05-25T13:41:28Z</time>
      </trkpt>
      <trkpt lat="41.554227000" lon="1.848852000">
        <ele>398.50</ele>
        <time>2011-05-25T13:41:44Z</time>
      </trkpt>
      <trkpt lat="41.554203000" lon="1.848895000">
        <ele>397.00</ele>
        <time>2011-05-25T13:41:46Z</time>
      </trkpt>
      <trkpt lat="41.554015000" lon="1.849077000">
        <ele>397.00</ele>
        <time>2011-05-25T13:41:51Z</time>
      </trkpt>
      <trkpt lat="41.553938000" lon="1.849175000">
        <ele>395.00</ele>
        <time>2011-05-25T13:41:53Z</time>
      </trkpt>
      <trkpt lat="41.553853000" lon="1.849223000">
        <ele>396.00</ele>
        <time>2011-05-25T13:41:54Z</time>
      </trkpt>
      <trkpt lat="41.553820000" lon="1.849247000">
        <ele>395.50</ele>
        <time>2011-05-25T13:41:56Z</time>
      </trkpt>
      <trkpt lat="41.553723000" lon="1.849245000">
        <ele>394.50</ele>
        <time>2011-05-25T13:41:58Z</time>
      </trkpt>
      <trkpt lat="41.553655000" lon="1.849245000">
        <ele>396.00</ele>
        <time>2011-05-25T13:42:00Z</time>
      </trkpt>
      <trkpt lat="41.553528000" lon="1.849247000">
        <ele>395.00</ele>
        <time>2011-05-25T13:42:03Z</time>
      </trkpt>
      <trkpt lat="41.553490000" lon="1.849263000">
        <ele>396.00</ele>
        <time>2011-05-25T13:42:03Z</time>
      </trkpt>
      <trkpt lat="41.553378000" lon="1.849397000">
        <ele>396.00</ele>
        <time>2011-05-25T13:42:08Z</time>
      </trkpt>
      <trkpt lat="41.553365000" lon="1.849432000">
        <ele>396.00</ele>
        <time>2011-05-25T13:42:08Z</time>
      </trkpt>
      <trkpt lat="41.553347000" lon="1.849548000">
        <ele>395.00</ele>
        <time>2011-05-25T13:42:12Z</time>
      </trkpt>
      <trkpt lat="41.553312000" lon="1.849930000">
        <ele>394.50</ele>
        <time>2011-05-25T13:42:20Z</time>
      </trkpt>
      <trkpt lat="41.553272000" lon="1.850413000">
        <ele>397.00</ele>
        <time>2011-05-25T13:42:33Z</time>
      </trkpt>
      <trkpt lat="41.553295000" lon="1.850575000">
        <ele>395.50</ele>
        <time>2011-05-25T13:42:36Z</time>
      </trkpt>
      <trkpt lat="41.553308000" lon="1.850612000">
        <ele>396.00</ele>
        <time>2011-05-25T13:42:36Z</time>
      </trkpt>
      <trkpt lat="41.553327000" lon="1.850633000">
        <ele>395.00</ele>
        <time>2011-05-25T13:42:38Z</time>
      </trkpt>
      <trkpt lat="41.553313000" lon="1.850652000">
        <ele>397.00</ele>
        <time>2011-05-25T13:42:41Z</time>
      </trkpt>
      <trkpt lat="41.553322000" lon="1.850730000">
        <ele>395.50</ele>
        <time>2011-05-25T13:42:43Z</time>
      </trkpt>
      <trkpt lat="41.553323000" lon="1.850812000">
        <ele>396.00</ele>
        <time>2011-05-25T13:42:47Z</time>
      </trkpt>
      <trkpt lat="41.553362000" lon="1.850868000">
        <ele>397.00</ele>
        <time>2011-05-25T13:42:50Z</time>
      </trkpt>
      <trkpt lat="41.553382000" lon="1.850893000">
        <ele>395.00</ele>
        <time>2011-05-25T13:42:52Z</time>
      </trkpt>
      <trkpt lat="41.553438000" lon="1.850932000">
        <ele>394.00</ele>
        <time>2011-05-25T13:42:55Z</time>
      </trkpt>
      <trkpt lat="41.553518000" lon="1.850952000">
        <ele>396.50</ele>
        <time>2011-05-25T13:43:00Z</time>
      </trkpt>
      <trkpt lat="41.553542000" lon="1.850957000">
        <ele>396.00</ele>
        <time>2011-05-25T13:43:02Z</time>
      </trkpt>
      <trkpt lat="41.553553000" lon="1.850952000">
        <ele>396.50</ele>
        <time>2011-05-25T13:43:02Z</time>
      </trkpt>
      <trkpt lat="41.553577000" lon="1.850920000">
        <ele>401.00</ele>
        <time>2011-05-25T13:43:06Z</time>
      </trkpt>
      <trkpt lat="41.553665000" lon="1.850838000">
        <ele>405.50</ele>
        <time>2011-05-25T13:43:11Z</time>
      </trkpt>
      <trkpt lat="41.553752000" lon="1.850812000">
        <ele>406.00</ele>
        <time>2011-05-25T13:43:14Z</time>
      </trkpt>
      <trkpt lat="41.553783000" lon="1.850823000">
        <ele>405.00</ele>
        <time>2011-05-25T13:43:16Z</time>
      </trkpt>
      <trkpt lat="41.553848000" lon="1.850903000">
        <ele>404.00</ele>
        <time>2011-05-25T13:43:18Z</time>
      </trkpt>
      <trkpt lat="41.553990000" lon="1.851222000">
        <ele>404.00</ele>
        <time>2011-05-25T13:43:27Z</time>
      </trkpt>
      <trkpt lat="41.554045000" lon="1.851360000">
        <ele>401.50</ele>
        <time>2011-05-25T13:43:30Z</time>
      </trkpt>
      <trkpt lat="41.554062000" lon="1.851395000">
        <ele>402.00</ele>
        <time>2011-05-25T13:43:30Z</time>
      </trkpt>
      <trkpt lat="41.554060000" lon="1.851447000">
        <ele>400.00</ele>
        <time>2011-05-25T13:43:32Z</time>
      </trkpt>
      <trkpt lat="41.554043000" lon="1.851520000">
        <ele>399.50</ele>
        <time>2011-05-25T13:43:34Z</time>
      </trkpt>
      <trkpt lat="41.554028000" lon="1.851742000">
        <ele>402.50</ele>
        <time>2011-05-25T13:43:41Z</time>
      </trkpt>
      <trkpt lat="41.554023000" lon="1.851763000">
        <ele>404.00</ele>
        <time>2011-05-25T13:43:42Z</time>
      </trkpt>
      <trkpt lat="41.554018000" lon="1.851860000">
        <ele>405.00</ele>
        <time>2011-05-25T13:43:44Z</time>
      </trkpt>
      <trkpt lat="41.554008000" lon="1.851890000">
        <ele>407.00</ele>
        <time>2011-05-25T13:43:46Z</time>
      </trkpt>
      <trkpt lat="41.553992000" lon="1.851965000">
        <ele>406.00</ele>
        <time>2011-05-25T13:43:49Z</time>
      </trkpt>
      <trkpt lat="41.553992000" lon="1.851997000">
        <ele>404.00</ele>
        <time>2011-05-25T13:43:49Z</time>
      </trkpt>
      <trkpt lat="41.553937000" lon="1.852160000">
        <ele>401.50</ele>
        <time>2011-05-25T13:43:54Z</time>
      </trkpt>
      <trkpt lat="41.553913000" lon="1.852290000">
        <ele>397.00</ele>
        <time>2011-05-25T13:43:58Z</time>
      </trkpt>
      <trkpt lat="41.553893000" lon="1.852343000">
        <ele>399.00</ele>
        <time>2011-05-25T13:44:00Z</time>
      </trkpt>
      <trkpt lat="41.553893000" lon="1.852387000">
        <ele>397.50</ele>
        <time>2011-05-25T13:44:00Z</time>
      </trkpt>
      <trkpt lat="41.553862000" lon="1.852505000">
        <ele>397.50</ele>
        <time>2011-05-25T13:44:03Z</time>
      </trkpt>
      <trkpt lat="41.553837000" lon="1.852637000">
        <ele>395.00</ele>
        <time>2011-05-25T13:44:07Z</time>
      </trkpt>
      <trkpt lat="41.553823000" lon="1.852742000">
        <ele>397.00</ele>
        <time>2011-05-25T13:44:10Z</time>
      </trkpt>
      <trkpt lat="41.553830000" lon="1.852758000">
        <ele>398.00</ele>
        <time>2011-05-25T13:44:10Z</time>
      </trkpt>
      <trkpt lat="41.553830000" lon="1.852762000">
        <ele>400.00</ele>
        <time>2011-05-25T13:44:12Z</time>
      </trkpt>
      <trkpt lat="41.553848000" lon="1.852812000">
        <ele>401.00</ele>
        <time>2011-05-25T13:44:14Z</time>
      </trkpt>
      <trkpt lat="41.553867000" lon="1.852860000">
        <ele>404.00</ele>
        <time>2011-05-25T13:44:15Z</time>
      </trkpt>
      <trkpt lat="41.553910000" lon="1.852973000">
        <ele>401.50</ele>
        <time>2011-05-25T13:44:19Z</time>
      </trkpt>
      <trkpt lat="41.553913000" lon="1.852995000">
        <ele>402.00</ele>
        <time>2011-05-25T13:44:21Z</time>
      </trkpt>
      <trkpt lat="41.553927000" lon="1.853018000">
        <ele>400.50</ele>
        <time>2011-05-25T13:44:22Z</time>
      </trkpt>
      <trkpt lat="41.553948000" lon="1.853043000">
        <ele>400.50</ele>
        <time>2011-05-25T13:44:22Z</time>
      </trkpt>
      <trkpt lat="41.554072000" lon="1.853082000">
        <ele>402.00</ele>
        <time>2011-05-25T13:44:29Z</time>
      </trkpt>
      <trkpt lat="41.554115000" lon="1.853088000">
        <ele>400.50</ele>
        <time>2011-05-25T13:44:31Z</time>
      </trkpt>
      <trkpt lat="41.554155000" lon="1.853098000">
        <ele>401.50</ele>
        <time>2011-05-25T13:44:33Z</time>
      </trkpt>
      <trkpt lat="41.554242000" lon="1.853097000">
        <ele>401.00</ele>
        <time>2011-05-25T13:44:38Z</time>
      </trkpt>
      <trkpt lat="41.554480000" lon="1.853087000">
        <ele>403.50</ele>
        <time>2011-05-25T13:44:47Z</time>
      </trkpt>
      <trkpt lat="41.554528000" lon="1.853090000">
        <ele>405.00</ele>
        <time>2011-05-25T13:44:48Z</time>
      </trkpt>
      <trkpt lat="41.554643000" lon="1.853097000">
        <ele>406.00</ele>
        <time>2011-05-25T13:44:52Z</time>
      </trkpt>
      <trkpt lat="41.554840000" lon="1.853080000">
        <ele>412.50</ele>
        <time>2011-05-25T13:45:01Z</time>
      </trkpt>
      <trkpt lat="41.554860000" lon="1.853075000">
        <ele>414.00</ele>
        <time>2011-05-25T13:45:01Z</time>
      </trkpt>
      <trkpt lat="41.554967000" lon="1.853048000">
        <ele>415.00</ele>
        <time>2011-05-25T13:45:06Z</time>
      </trkpt>
      <trkpt lat="41.555088000" lon="1.853027000">
        <ele>418.00</ele>
        <time>2011-05-25T13:45:11Z</time>
      </trkpt>
      <trkpt lat="41.555202000" lon="1.853017000">
        <ele>419.00</ele>
        <time>2011-05-25T13:45:15Z</time>
      </trkpt>
      <trkpt lat="41.555235000" lon="1.853030000">
        <ele>418.50</ele>
        <time>2011-05-25T13:45:16Z</time>
      </trkpt>
      <trkpt lat="41.555252000" lon="1.853053000">
        <ele>420.00</ele>
        <time>2011-05-25T13:45:16Z</time>
      </trkpt>
      <trkpt lat="41.555275000" lon="1.853082000">
        <ele>420.50</ele>
        <time>2011-05-25T13:45:18Z</time>
      </trkpt>
      <trkpt lat="41.555340000" lon="1.853205000">
        <ele>419.50</ele>
        <time>2011-05-25T13:45:22Z</time>
      </trkpt>
      <trkpt lat="41.555378000" lon="1.853252000">
        <ele>417.50</ele>
        <time>2011-05-25T13:45:23Z</time>
      </trkpt>
      <trkpt lat="41.555407000" lon="1.853277000">
        <ele>415.50</ele>
        <time>2011-05-25T13:45:25Z</time>
      </trkpt>
      <trkpt lat="41.555508000" lon="1.853297000">
        <ele>414.00</ele>
        <time>2011-05-25T13:45:27Z</time>
      </trkpt>
      <trkpt lat="41.555625000" lon="1.853390000">
        <ele>414.50</ele>
        <time>2011-05-25T13:45:30Z</time>
      </trkpt>
      <trkpt lat="41.555692000" lon="1.853570000">
        <ele>413.50</ele>
        <time>2011-05-25T13:45:34Z</time>
      </trkpt>
      <trkpt lat="41.555697000" lon="1.853668000">
        <ele>414.50</ele>
        <time>2011-05-25T13:45:35Z</time>
      </trkpt>
      <trkpt lat="41.555787000" lon="1.853942000">
        <ele>410.50</ele>
        <time>2011-05-25T13:45:44Z</time>
      </trkpt>
      <trkpt lat="41.555873000" lon="1.854097000">
        <ele>410.00</ele>
        <time>2011-05-25T13:45:48Z</time>
      </trkpt>
      <trkpt lat="41.555917000" lon="1.854102000">
        <ele>411.50</ele>
        <time>2011-05-25T13:45:49Z</time>
      </trkpt>
      <trkpt lat="41.555928000" lon="1.854095000">
        <ele>413.50</ele>
        <time>2011-05-25T13:45:51Z</time>
      </trkpt>
      <trkpt lat="41.556197000" lon="1.853888000">
        <ele>421.00</ele>
        <time>2011-05-25T13:46:00Z</time>
      </trkpt>
      <trkpt lat="41.556233000" lon="1.853882000">
        <ele>420.50</ele>
        <time>2011-05-25T13:46:02Z</time>
      </trkpt>
      <trkpt lat="41.556460000" lon="1.853932000">
        <ele>418.50</ele>
        <time>2011-05-25T13:46:07Z</time>
      </trkpt>
      <trkpt lat="41.556613000" lon="1.853925000">
        <ele>419.00</ele>
        <time>2011-05-25T13:46:10Z</time>
      </trkpt>
      <trkpt lat="41.556655000" lon="1.853947000">
        <ele>419.50</ele>
        <time>2011-05-25T13:46:10Z</time>
      </trkpt>
      <trkpt lat="41.556685000" lon="1.853980000">
        <ele>421.50</ele>
        <time>2011-05-25T13:46:12Z</time>
      </trkpt>
      <trkpt lat="41.556713000" lon="1.854033000">
        <ele>421.00</ele>
        <time>2011-05-25T13:46:12Z</time>
      </trkpt>
      <trkpt lat="41.556648000" lon="1.854268000">
        <ele>420.00</ele>
        <time>2011-05-25T13:46:17Z</time>
      </trkpt>
      <trkpt lat="41.556618000" lon="1.854295000">
        <ele>420.00</ele>
        <time>2011-05-25T13:46:17Z</time>
      </trkpt>
      <trkpt lat="41.556595000" lon="1.854328000">
        <ele>419.00</ele>
        <time>2011-05-25T13:46:19Z</time>
      </trkpt>
      <trkpt lat="41.556455000" lon="1.854437000">
        <ele>423.00</ele>
        <time>2011-05-25T13:46:24Z</time>
      </trkpt>
      <trkpt lat="41.556432000" lon="1.854470000">
        <ele>420.50</ele>
        <time>2011-05-25T13:46:24Z</time>
      </trkpt>
      <trkpt lat="41.556387000" lon="1.854548000">
        <ele>421.00</ele>
        <time>2011-05-25T13:46:26Z</time>
      </trkpt>
      <trkpt lat="41.556363000" lon="1.854655000">
        <ele>422.50</ele>
        <time>2011-05-25T13:46:28Z</time>
      </trkpt>
      <trkpt lat="41.556353000" lon="1.854772000">
        <ele>422.50</ele>
        <time>2011-05-25T13:46:31Z</time>
      </trkpt>
      <trkpt lat="41.556323000" lon="1.854915000">
        <ele>420.00</ele>
        <time>2011-05-25T13:46:33Z</time>
      </trkpt>
      <trkpt lat="41.556303000" lon="1.854958000">
        <ele>419.00</ele>
        <time>2011-05-25T13:46:35Z</time>
      </trkpt>
      <trkpt lat="41.556225000" lon="1.855083000">
        <ele>417.50</ele>
        <time>2011-05-25T13:46:38Z</time>
      </trkpt>
      <trkpt lat="41.556170000" lon="1.855235000">
        <ele>413.50</ele>
        <time>2011-05-25T13:46:40Z</time>
      </trkpt>
      <trkpt lat="41.556120000" lon="1.855388000">
        <ele>411.00</ele>
        <time>2011-05-25T13:46:43Z</time>
      </trkpt>
      <trkpt lat="41.556105000" lon="1.855430000">
        <ele>412.00</ele>
        <time>2011-05-25T13:46:45Z</time>
      </trkpt>
      <trkpt lat="41.556087000" lon="1.855563000">
        <ele>412.50</ele>
        <time>2011-05-25T13:46:47Z</time>
      </trkpt>
      <trkpt lat="41.556035000" lon="1.855865000">
        <ele>410.50</ele>
        <time>2011-05-25T13:46:54Z</time>
      </trkpt>
      <trkpt lat="41.556000000" lon="1.856003000">
        <ele>412.50</ele>
        <time>2011-05-25T13:46:59Z</time>
      </trkpt>
      <trkpt lat="41.556023000" lon="1.856067000">
        <ele>412.00</ele>
        <time>2011-05-25T13:47:01Z</time>
      </trkpt>
      <trkpt lat="41.556083000" lon="1.856120000">
        <ele>411.00</ele>
        <time>2011-05-25T13:47:04Z</time>
      </trkpt>
      <trkpt lat="41.556215000" lon="1.856117000">
        <ele>411.00</ele>
        <time>2011-05-25T13:47:10Z</time>
      </trkpt>
      <trkpt lat="41.556277000" lon="1.856112000">
        <ele>409.00</ele>
        <time>2011-05-25T13:47:11Z</time>
      </trkpt>
      <trkpt lat="41.556330000" lon="1.856092000">
        <ele>407.50</ele>
        <time>2011-05-25T13:47:13Z</time>
      </trkpt>
      <trkpt lat="41.556472000" lon="1.856045000">
        <ele>399.50</ele>
        <time>2011-05-25T13:47:18Z</time>
      </trkpt>
      <trkpt lat="41.556555000" lon="1.855998000">
        <ele>396.50</ele>
        <time>2011-05-25T13:47:20Z</time>
      </trkpt>
      <trkpt lat="41.556587000" lon="1.856000000">
        <ele>397.00</ele>
        <time>2011-05-25T13:47:20Z</time>
      </trkpt>
      <trkpt lat="41.556718000" lon="1.855942000">
        <ele>395.50</ele>
        <time>2011-05-25T13:47:24Z</time>
      </trkpt>
      <trkpt lat="41.556835000" lon="1.855913000">
        <ele>392.00</ele>
        <time>2011-05-25T13:47:25Z</time>
      </trkpt>
      <trkpt lat="41.556905000" lon="1.855897000">
        <ele>391.00</ele>
        <time>2011-05-25T13:47:27Z</time>
      </trkpt>
      <trkpt lat="41.557193000" lon="1.855955000">
        <ele>390.00</ele>
        <time>2011-05-25T13:47:30Z</time>
      </trkpt>
      <trkpt lat="41.557477000" lon="1.856147000">
        <ele>385.50</ele>
        <time>2011-05-25T13:47:36Z</time>
      </trkpt>
      <trkpt lat="41.557547000" lon="1.856218000">
        <ele>383.00</ele>
        <time>2011-05-25T13:47:37Z</time>
      </trkpt>
      <trkpt lat="41.557565000" lon="1.856258000">
        <ele>382.50</ele>
        <time>2011-05-25T13:47:39Z</time>
      </trkpt>
      <trkpt lat="41.557472000" lon="1.856423000">
        <ele>380.50</ele>
        <time>2011-05-25T13:47:43Z</time>
      </trkpt>
      <trkpt lat="41.557390000" lon="1.856423000">
        <ele>379.50</ele>
        <time>2011-05-25T13:47:44Z</time>
      </trkpt>
      <trkpt lat="41.557343000" lon="1.856437000">
        <ele>376.50</ele>
        <time>2011-05-25T13:47:46Z</time>
      </trkpt>
      <trkpt lat="41.557288000" lon="1.856462000">
        <ele>376.50</ele>
        <time>2011-05-25T13:47:50Z</time>
      </trkpt>
      <trkpt lat="41.557255000" lon="1.856477000">
        <ele>375.50</ele>
        <time>2011-05-25T13:47:51Z</time>
      </trkpt>
      <trkpt lat="41.557213000" lon="1.856517000">
        <ele>377.50</ele>
        <time>2011-05-25T13:47:55Z</time>
      </trkpt>
      <trkpt lat="41.557225000" lon="1.856548000">
        <ele>379.00</ele>
        <time>2011-05-25T13:47:55Z</time>
      </trkpt>
      <trkpt lat="41.557198000" lon="1.856578000">
        <ele>378.00</ele>
        <time>2011-05-25T13:47:58Z</time>
      </trkpt>
      <trkpt lat="41.557028000" lon="1.856858000">
        <ele>378.00</ele>
        <time>2011-05-25T13:48:11Z</time>
      </trkpt>
      <trkpt lat="41.556958000" lon="1.856997000">
        <ele>374.50</ele>
        <time>2011-05-25T13:48:16Z</time>
      </trkpt>
      <trkpt lat="41.556912000" lon="1.857108000">
        <ele>374.50</ele>
        <time>2011-05-25T13:48:21Z</time>
      </trkpt>
      <trkpt lat="41.556888000" lon="1.857152000">
        <ele>375.50</ele>
        <time>2011-05-25T13:48:23Z</time>
      </trkpt>
      <trkpt lat="41.556817000" lon="1.857308000">
        <ele>374.50</ele>
        <time>2011-05-25T13:48:28Z</time>
      </trkpt>
      <trkpt lat="41.556735000" lon="1.857402000">
        <ele>373.50</ele>
        <time>2011-05-25T13:48:33Z</time>
      </trkpt>
      <trkpt lat="41.556647000" lon="1.857478000">
        <ele>375.00</ele>
        <time>2011-05-25T13:48:38Z</time>
      </trkpt>
      <trkpt lat="41.556603000" lon="1.857540000">
        <ele>373.50</ele>
        <time>2011-05-25T13:48:42Z</time>
      </trkpt>
      <trkpt lat="41.556458000" lon="1.857805000">
        <ele>373.50</ele>
        <time>2011-05-25T13:48:52Z</time>
      </trkpt>
      <trkpt lat="41.556448000" lon="1.857838000">
        <ele>373.00</ele>
        <time>2011-05-25T13:48:52Z</time>
      </trkpt>
      <trkpt lat="41.556373000" lon="1.858063000">
        <ele>378.50</ele>
        <time>2011-05-25T13:49:01Z</time>
      </trkpt>
      <trkpt lat="41.556368000" lon="1.858077000">
        <ele>378.50</ele>
        <time>2011-05-25T13:49:01Z</time>
      </trkpt>
      <trkpt lat="41.556372000" lon="1.858107000">
        <ele>376.00</ele>
        <time>2011-05-25T13:49:03Z</time>
      </trkpt>
      <trkpt lat="41.556362000" lon="1.858155000">
        <ele>375.00</ele>
        <time>2011-05-25T13:49:05Z</time>
      </trkpt>
      <trkpt lat="41.556347000" lon="1.858197000">
        <ele>377.00</ele>
        <time>2011-05-25T13:49:06Z</time>
      </trkpt>
      <trkpt lat="41.556342000" lon="1.858222000">
        <ele>376.00</ele>
        <time>2011-05-25T13:49:08Z</time>
      </trkpt>
      <trkpt lat="41.556332000" lon="1.858262000">
        <ele>377.00</ele>
        <time>2011-05-25T13:49:10Z</time>
      </trkpt>
      <trkpt lat="41.556327000" lon="1.858285000">
        <ele>376.50</ele>
        <time>2011-05-25T13:49:10Z</time>
      </trkpt>
      <trkpt lat="41.556302000" lon="1.858363000">
        <ele>381.50</ele>
        <time>2011-05-25T13:49:15Z</time>
      </trkpt>
      <trkpt lat="41.556288000" lon="1.858502000">
        <ele>386.00</ele>
        <time>2011-05-25T13:49:22Z</time>
      </trkpt>
      <trkpt lat="41.556265000" lon="1.858640000">
        <ele>387.50</ele>
        <time>2011-05-25T13:49:29Z</time>
      </trkpt>
      <trkpt lat="41.556195000" lon="1.858798000">
        <ele>389.00</ele>
        <time>2011-05-25T13:49:34Z</time>
      </trkpt>
      <trkpt lat="41.556172000" lon="1.858843000">
        <ele>390.50</ele>
        <time>2011-05-25T13:49:36Z</time>
      </trkpt>
      <trkpt lat="41.556122000" lon="1.858985000">
        <ele>391.00</ele>
        <time>2011-05-25T13:49:41Z</time>
      </trkpt>
      <trkpt lat="41.556092000" lon="1.859092000">
        <ele>393.50</ele>
        <time>2011-05-25T13:49:43Z</time>
      </trkpt>
      <trkpt lat="41.556052000" lon="1.859193000">
        <ele>393.50</ele>
        <time>2011-05-25T13:49:46Z</time>
      </trkpt>
      <trkpt lat="41.556025000" lon="1.859245000">
        <ele>395.00</ele>
        <time>2011-05-25T13:49:46Z</time>
      </trkpt>
      <trkpt lat="41.555950000" lon="1.859490000">
        <ele>394.00</ele>
        <time>2011-05-25T13:49:50Z</time>
      </trkpt>
      <trkpt lat="41.555943000" lon="1.859583000">
        <ele>391.00</ele>
        <time>2011-05-25T13:49:50Z</time>
      </trkpt>
      <trkpt lat="41.555982000" lon="1.859700000">
        <ele>389.50</ele>
        <time>2011-05-25T13:49:53Z</time>
      </trkpt>
      <trkpt lat="41.556020000" lon="1.859737000">
        <ele>390.50</ele>
        <time>2011-05-25T13:49:53Z</time>
      </trkpt>
      <trkpt lat="41.556088000" lon="1.859848000">
        <ele>389.50</ele>
        <time>2011-05-25T13:49:55Z</time>
      </trkpt>
      <trkpt lat="41.556097000" lon="1.859940000">
        <ele>393.00</ele>
        <time>2011-05-25T13:49:57Z</time>
      </trkpt>
      <trkpt lat="41.556085000" lon="1.860003000">
        <ele>393.50</ele>
        <time>2011-05-25T13:49:59Z</time>
      </trkpt>
      <trkpt lat="41.555977000" lon="1.860225000">
        <ele>389.00</ele>
        <time>2011-05-25T13:50:02Z</time>
      </trkpt>
      <trkpt lat="41.555812000" lon="1.860473000">
        <ele>385.50</ele>
        <time>2011-05-25T13:50:04Z</time>
      </trkpt>
      <trkpt lat="41.555767000" lon="1.860560000">
        <ele>383.50</ele>
        <time>2011-05-25T13:50:06Z</time>
      </trkpt>
      <trkpt lat="41.555733000" lon="1.860655000">
        <ele>383.00</ele>
        <time>2011-05-25T13:50:07Z</time>
      </trkpt>
      <trkpt lat="41.555670000" lon="1.860847000">
        <ele>378.50</ele>
        <time>2011-05-25T13:50:09Z</time>
      </trkpt>
      <trkpt lat="41.555522000" lon="1.861068000">
        <ele>376.50</ele>
        <time>2011-05-25T13:50:12Z</time>
      </trkpt>
      <trkpt lat="41.555413000" lon="1.861057000">
        <ele>375.00</ele>
        <time>2011-05-25T13:50:16Z</time>
      </trkpt>
      <trkpt lat="41.555382000" lon="1.861025000">
        <ele>374.50</ele>
        <time>2011-05-25T13:50:16Z</time>
      </trkpt>
      <trkpt lat="41.555330000" lon="1.860920000">
        <ele>371.50</ele>
        <time>2011-05-25T13:50:18Z</time>
      </trkpt>
      <trkpt lat="41.555267000" lon="1.860395000">
        <ele>368.00</ele>
        <time>2011-05-25T13:50:25Z</time>
      </trkpt>
      <trkpt lat="41.555227000" lon="1.860318000">
        <ele>365.50</ele>
        <time>2011-05-25T13:50:28Z</time>
      </trkpt>
      <trkpt lat="41.555165000" lon="1.860330000">
        <ele>368.00</ele>
        <time>2011-05-25T13:50:30Z</time>
      </trkpt>
      <trkpt lat="41.555133000" lon="1.860378000">
        <ele>368.00</ele>
        <time>2011-05-25T13:50:30Z</time>
      </trkpt>
      <trkpt lat="41.555113000" lon="1.860432000">
        <ele>368.50</ele>
        <time>2011-05-25T13:50:32Z</time>
      </trkpt>
      <trkpt lat="41.555082000" lon="1.860557000">
        <ele>367.00</ele>
        <time>2011-05-25T13:50:35Z</time>
      </trkpt>
      <trkpt lat="41.555042000" lon="1.860815000">
        <ele>362.00</ele>
        <time>2011-05-25T13:50:40Z</time>
      </trkpt>
      <trkpt lat="41.555003000" lon="1.861028000">
        <ele>359.50</ele>
        <time>2011-05-25T13:50:44Z</time>
      </trkpt>
      <trkpt lat="41.554970000" lon="1.861185000">
        <ele>358.50</ele>
        <time>2011-05-25T13:50:46Z</time>
      </trkpt>
      <trkpt lat="41.554998000" lon="1.861603000">
        <ele>355.50</ele>
        <time>2011-05-25T13:50:51Z</time>
      </trkpt>
      <trkpt lat="41.554987000" lon="1.861782000">
        <ele>355.50</ele>
        <time>2011-05-25T13:50:53Z</time>
      </trkpt>
      <trkpt lat="41.554973000" lon="1.861878000">
        <ele>354.50</ele>
        <time>2011-05-25T13:50:54Z</time>
      </trkpt>
      <trkpt lat="41.554955000" lon="1.861973000">
        <ele>354.00</ele>
        <time>2011-05-25T13:50:54Z</time>
      </trkpt>
      <trkpt lat="41.554902000" lon="1.862172000">
        <ele>351.00</ele>
        <time>2011-05-25T13:50:56Z</time>
      </trkpt>
      <trkpt lat="41.554835000" lon="1.862355000">
        <ele>350.50</ele>
        <time>2011-05-25T13:50:58Z</time>
      </trkpt>
      <trkpt lat="41.554817000" lon="1.862435000">
        <ele>352.00</ele>
        <time>2011-05-25T13:51:00Z</time>
      </trkpt>
      <trkpt lat="41.554795000" lon="1.862525000">
        <ele>351.50</ele>
        <time>2011-05-25T13:51:01Z</time>
      </trkpt>
      <trkpt lat="41.554755000" lon="1.862632000">
        <ele>348.50</ele>
        <time>2011-05-25T13:51:03Z</time>
      </trkpt>
      <trkpt lat="41.554725000" lon="1.862645000">
        <ele>348.00</ele>
        <time>2011-05-25T13:51:05Z</time>
      </trkpt>
      <trkpt lat="41.554708000" lon="1.862560000">
        <ele>345.00</ele>
        <time>2011-05-25T13:51:08Z</time>
      </trkpt>
      <trkpt lat="41.554752000" lon="1.862382000">
        <ele>344.50</ele>
        <time>2011-05-25T13:51:10Z</time>
      </trkpt>
      <trkpt lat="41.554753000" lon="1.862140000">
        <ele>342.00</ele>
        <time>2011-05-25T13:51:13Z</time>
      </trkpt>
      <trkpt lat="41.554757000" lon="1.861785000">
        <ele>340.00</ele>
        <time>2011-05-25T13:51:17Z</time>
      </trkpt>
      <trkpt lat="41.554728000" lon="1.861612000">
        <ele>339.00</ele>
        <time>2011-05-25T13:51:19Z</time>
      </trkpt>
      <trkpt lat="41.554590000" lon="1.860935000">
        <ele>332.00</ele>
        <time>2011-05-25T13:51:29Z</time>
      </trkpt>
      <trkpt lat="41.554537000" lon="1.860975000">
        <ele>333.50</ele>
        <time>2011-05-25T13:51:31Z</time>
      </trkpt>
      <trkpt lat="41.554487000" lon="1.861182000">
        <ele>333.50</ele>
        <time>2011-05-25T13:51:36Z</time>
      </trkpt>
      <trkpt lat="41.554442000" lon="1.861340000">
        <ele>333.00</ele>
        <time>2011-05-25T13:51:38Z</time>
      </trkpt>
      <trkpt lat="41.554397000" lon="1.861530000">
        <ele>331.00</ele>
        <time>2011-05-25T13:51:43Z</time>
      </trkpt>
      <trkpt lat="41.554370000" lon="1.861642000">
        <ele>331.00</ele>
        <time>2011-05-25T13:51:45Z</time>
      </trkpt>
      <trkpt lat="41.554353000" lon="1.861840000">
        <ele>331.00</ele>
        <time>2011-05-25T13:51:50Z</time>
      </trkpt>
      <trkpt lat="41.554352000" lon="1.862172000">
        <ele>325.00</ele>
        <time>2011-05-25T13:51:55Z</time>
      </trkpt>
      <trkpt lat="41.554332000" lon="1.862442000">
        <ele>323.50</ele>
        <time>2011-05-25T13:52:00Z</time>
      </trkpt>
      <trkpt lat="41.554305000" lon="1.862548000">
        <ele>321.00</ele>
        <time>2011-05-25T13:52:02Z</time>
      </trkpt>
      <trkpt lat="41.554267000" lon="1.862555000">
        <ele>321.00</ele>
        <time>2011-05-25T13:52:04Z</time>
      </trkpt>
      <trkpt lat="41.554228000" lon="1.862548000">
        <ele>320.50</ele>
        <time>2011-05-25T13:52:04Z</time>
      </trkpt>
      <trkpt lat="41.554192000" lon="1.862532000">
        <ele>319.00</ele>
        <time>2011-05-25T13:52:06Z</time>
      </trkpt>
      <trkpt lat="41.554142000" lon="1.862468000">
        <ele>319.00</ele>
        <time>2011-05-25T13:52:07Z</time>
      </trkpt>
      <trkpt lat="41.554135000" lon="1.862423000">
        <ele>318.50</ele>
        <time>2011-05-25T13:52:09Z</time>
      </trkpt>
      <trkpt lat="41.554122000" lon="1.862382000">
        <ele>321.50</ele>
        <time>2011-05-25T13:52:11Z</time>
      </trkpt>
      <trkpt lat="41.554123000" lon="1.862358000">
        <ele>321.50</ele>
        <time>2011-05-25T13:52:11Z</time>
      </trkpt>
      <trkpt lat="41.554120000" lon="1.862348000">
        <ele>323.50</ele>
        <time>2011-05-25T13:52:13Z</time>
      </trkpt>
      <trkpt lat="41.554148000" lon="1.862172000">
        <ele>322.50</ele>
        <time>2011-05-25T13:52:18Z</time>
      </trkpt>
      <trkpt lat="41.554147000" lon="1.862143000">
        <ele>323.50</ele>
        <time>2011-05-25T13:52:21Z</time>
      </trkpt>
      <trkpt lat="41.554155000" lon="1.862100000">
        <ele>323.00</ele>
        <time>2011-05-25T13:52:23Z</time>
      </trkpt>
      <trkpt lat="41.554147000" lon="1.862095000">
        <ele>324.00</ele>
        <time>2011-05-25T13:52:23Z</time>
      </trkpt>
      <trkpt lat="41.554083000" lon="1.862163000">
        <ele>325.00</ele>
        <time>2011-05-25T13:52:28Z</time>
      </trkpt>
      <trkpt lat="41.554075000" lon="1.862198000">
        <ele>323.50</ele>
        <time>2011-05-25T13:52:30Z</time>
      </trkpt>
      <trkpt lat="41.554040000" lon="1.862328000">
        <ele>323.00</ele>
        <time>2011-05-25T13:52:32Z</time>
      </trkpt>
      <trkpt lat="41.554018000" lon="1.862348000">
        <ele>324.50</ele>
        <time>2011-05-25T13:52:34Z</time>
      </trkpt>
      <trkpt lat="41.553997000" lon="1.862382000">
        <ele>323.50</ele>
        <time>2011-05-25T13:52:35Z</time>
      </trkpt>
      <trkpt lat="41.553975000" lon="1.862385000">
        <ele>323.00</ele>
        <time>2011-05-25T13:52:35Z</time>
      </trkpt>
      <trkpt lat="41.553957000" lon="1.862392000">
        <ele>324.00</ele>
        <time>2011-05-25T13:52:37Z</time>
      </trkpt>
      <trkpt lat="41.553902000" lon="1.862370000">
        <ele>323.50</ele>
        <time>2011-05-25T13:52:39Z</time>
      </trkpt>
      <trkpt lat="41.553907000" lon="1.862255000">
        <ele>320.50</ele>
        <time>2011-05-25T13:52:42Z</time>
      </trkpt>
      <trkpt lat="41.553875000" lon="1.861825000">
        <ele>319.00</ele>
        <time>2011-05-25T13:52:49Z</time>
      </trkpt>
      <trkpt lat="41.553867000" lon="1.861338000">
        <ele>312.50</ele>
        <time>2011-05-25T13:52:56Z</time>
      </trkpt>
      <trkpt lat="41.553858000" lon="1.861237000">
        <ele>312.50</ele>
        <time>2011-05-25T13:52:58Z</time>
      </trkpt>
      <trkpt lat="41.553860000" lon="1.861190000">
        <ele>314.00</ele>
        <time>2011-05-25T13:53:00Z</time>
      </trkpt>
      <trkpt lat="41.553845000" lon="1.861175000">
        <ele>316.50</ele>
        <time>2011-05-25T13:53:00Z</time>
      </trkpt>
      <trkpt lat="41.553835000" lon="1.861157000">
        <ele>315.50</ele>
        <time>2011-05-25T13:53:00Z</time>
      </trkpt>
      <trkpt lat="41.553815000" lon="1.861128000">
        <ele>319.00</ele>
        <time>2011-05-25T13:53:03Z</time>
      </trkpt>
      <trkpt lat="41.553738000" lon="1.861078000">
        <ele>320.50</ele>
        <time>2011-05-25T13:53:05Z</time>
      </trkpt>
      <trkpt lat="41.553700000" lon="1.861088000">
        <ele>314.50</ele>
        <time>2011-05-25T13:53:07Z</time>
      </trkpt>
      <trkpt lat="41.553677000" lon="1.861180000">
        <ele>310.00</ele>
        <time>2011-05-25T13:53:10Z</time>
      </trkpt>
      <trkpt lat="41.553663000" lon="1.861257000">
        <ele>305.00</ele>
        <time>2011-05-25T13:53:12Z</time>
      </trkpt>
      <trkpt lat="41.553648000" lon="1.861293000">
        <ele>304.00</ele>
        <time>2011-05-25T13:53:14Z</time>
      </trkpt>
      <trkpt lat="41.553618000" lon="1.861305000">
        <ele>303.50</ele>
        <time>2011-05-25T13:53:14Z</time>
      </trkpt>
      <trkpt lat="41.553602000" lon="1.861305000">
        <ele>304.50</ele>
        <time>2011-05-25T13:53:15Z</time>
      </trkpt>
      <trkpt lat="41.553507000" lon="1.861308000">
        <ele>306.50</ele>
        <time>2011-05-25T13:53:22Z</time>
      </trkpt>
      <trkpt lat="41.553500000" lon="1.861318000">
        <ele>303.50</ele>
        <time>2011-05-25T13:53:22Z</time>
      </trkpt>
      <trkpt lat="41.553490000" lon="1.861428000">
        <ele>298.50</ele>
        <time>2011-05-25T13:53:26Z</time>
      </trkpt>
      <trkpt lat="41.553480000" lon="1.861552000">
        <ele>296.00</ele>
        <time>2011-05-25T13:53:29Z</time>
      </trkpt>
      <trkpt lat="41.553477000" lon="1.861640000">
        <ele>293.00</ele>
        <time>2011-05-25T13:53:31Z</time>
      </trkpt>
      <trkpt lat="41.553498000" lon="1.861880000">
        <ele>289.50</ele>
        <time>2011-05-25T13:53:36Z</time>
      </trkpt>
      <trkpt lat="41.553480000" lon="1.861925000">
        <ele>290.50</ele>
        <time>2011-05-25T13:53:36Z</time>
      </trkpt>
      <trkpt lat="41.553455000" lon="1.862013000">
        <ele>288.50</ele>
        <time>2011-05-25T13:53:38Z</time>
      </trkpt>
      <trkpt lat="41.553445000" lon="1.862252000">
        <ele>288.00</ele>
        <time>2011-05-25T13:53:45Z</time>
      </trkpt>
      <trkpt lat="41.553425000" lon="1.862318000">
        <ele>288.00</ele>
        <time>2011-05-25T13:53:47Z</time>
      </trkpt>
      <trkpt lat="41.553410000" lon="1.862342000">
        <ele>289.50</ele>
        <time>2011-05-25T13:53:47Z</time>
      </trkpt>
      <trkpt lat="41.553308000" lon="1.862642000">
        <ele>286.50</ele>
        <time>2011-05-25T13:53:52Z</time>
      </trkpt>
      <trkpt lat="41.553288000" lon="1.862772000">
        <ele>285.50</ele>
        <time>2011-05-25T13:53:54Z</time>
      </trkpt>
      <trkpt lat="41.553272000" lon="1.862975000">
        <ele>282.00</ele>
        <time>2011-05-25T13:53:57Z</time>
      </trkpt>
      <trkpt lat="41.553220000" lon="1.863193000">
        <ele>282.50</ele>
        <time>2011-05-25T13:54:01Z</time>
      </trkpt>
      <trkpt lat="41.553168000" lon="1.863467000">
        <ele>280.50</ele>
        <time>2011-05-25T13:54:06Z</time>
      </trkpt>
      <trkpt lat="41.553140000" lon="1.863712000">
        <ele>281.00</ele>
        <time>2011-05-25T13:54:11Z</time>
      </trkpt>
      <trkpt lat="41.553123000" lon="1.863848000">
        <ele>278.50</ele>
        <time>2011-05-25T13:54:13Z</time>
      </trkpt>
      <trkpt lat="41.553092000" lon="1.864093000">
        <ele>281.00</ele>
        <time>2011-05-25T13:54:16Z</time>
      </trkpt>
      <trkpt lat="41.553083000" lon="1.864170000">
        <ele>279.00</ele>
        <time>2011-05-25T13:54:18Z</time>
      </trkpt>
      <trkpt lat="41.552963000" lon="1.864453000">
        <ele>278.00</ele>
        <time>2011-05-25T13:54:23Z</time>
      </trkpt>
      <trkpt lat="41.552900000" lon="1.864587000">
        <ele>279.50</ele>
        <time>2011-05-25T13:54:25Z</time>
      </trkpt>
      <trkpt lat="41.552862000" lon="1.864650000">
        <ele>278.00</ele>
        <time>2011-05-25T13:54:25Z</time>
      </trkpt>
      <trkpt lat="41.552677000" lon="1.864875000">
        <ele>276.50</ele>
        <time>2011-05-25T13:54:30Z</time>
      </trkpt>
      <trkpt lat="41.552502000" lon="1.865112000">
        <ele>273.50</ele>
        <time>2011-05-25T13:54:34Z</time>
      </trkpt>
      <trkpt lat="41.552207000" lon="1.865555000">
        <ele>272.50</ele>
        <time>2011-05-25T13:54:41Z</time>
      </trkpt>
      <trkpt lat="41.552123000" lon="1.865687000">
        <ele>273.00</ele>
        <time>2011-05-25T13:54:42Z</time>
      </trkpt>
      <trkpt lat="41.552025000" lon="1.866095000">
        <ele>273.50</ele>
        <time>2011-05-25T13:54:48Z</time>
      </trkpt>
      <trkpt lat="41.551927000" lon="1.866328000">
        <ele>272.00</ele>
        <time>2011-05-25T13:54:51Z</time>
      </trkpt>
      <trkpt lat="41.551765000" lon="1.866493000">
        <ele>270.50</ele>
        <time>2011-05-25T13:54:53Z</time>
      </trkpt>
      <trkpt lat="41.551712000" lon="1.866548000">
        <ele>271.00</ele>
        <time>2011-05-25T13:54:55Z</time>
      </trkpt>
      <trkpt lat="41.551558000" lon="1.866730000">
        <ele>270.00</ele>
        <time>2011-05-25T13:54:58Z</time>
      </trkpt>
      <trkpt lat="41.551505000" lon="1.866788000">
        <ele>271.00</ele>
        <time>2011-05-25T13:54:58Z</time>
      </trkpt>
      <trkpt lat="41.551462000" lon="1.866853000">
        <ele>270.50</ele>
        <time>2011-05-25T13:55:00Z</time>
      </trkpt>
      <trkpt lat="41.551435000" lon="1.866925000">
        <ele>268.00</ele>
        <time>2011-05-25T13:55:00Z</time>
      </trkpt>
      <trkpt lat="41.551182000" lon="1.867283000">
        <ele>263.00</ele>
        <time>2011-05-25T13:55:05Z</time>
      </trkpt>
      <trkpt lat="41.550947000" lon="1.867532000">
        <ele>261.00</ele>
        <time>2011-05-25T13:55:10Z</time>
      </trkpt>
      <trkpt lat="41.550848000" lon="1.867675000">
        <ele>257.50</ele>
        <time>2011-05-25T13:55:12Z</time>
      </trkpt>
      <trkpt lat="41.550760000" lon="1.867838000">
        <ele>255.50</ele>
        <time>2011-05-25T13:55:14Z</time>
      </trkpt>
      <trkpt lat="41.550540000" lon="1.868147000">
        <ele>254.00</ele>
        <time>2011-05-25T13:55:19Z</time>
      </trkpt>
      <trkpt lat="41.550393000" lon="1.868353000">
        <ele>247.50</ele>
        <time>2011-05-25T13:55:23Z</time>
      </trkpt>
      <trkpt lat="41.550297000" lon="1.868448000">
        <ele>248.00</ele>
        <time>2011-05-25T13:55:24Z</time>
      </trkpt>
      <trkpt lat="41.550193000" lon="1.868543000">
        <ele>247.00</ele>
        <time>2011-05-25T13:55:26Z</time>
      </trkpt>
      <trkpt lat="41.550153000" lon="1.868607000">
        <ele>247.00</ele>
        <time>2011-05-25T13:55:28Z</time>
      </trkpt>
      <trkpt lat="41.549798000" lon="1.869210000">
        <ele>242.50</ele>
        <time>2011-05-25T13:55:36Z</time>
      </trkpt>
      <trkpt lat="41.549652000" lon="1.869507000">
        <ele>239.50</ele>
        <time>2011-05-25T13:55:40Z</time>
      </trkpt>
      <trkpt lat="41.549585000" lon="1.869648000">
        <ele>238.50</ele>
        <time>2011-05-25T13:55:42Z</time>
      </trkpt>
      <trkpt lat="41.549253000" lon="1.870115000">
        <ele>235.00</ele>
        <time>2011-05-25T13:55:50Z</time>
      </trkpt>
      <trkpt lat="41.549120000" lon="1.870285000">
        <ele>232.50</ele>
        <time>2011-05-25T13:55:54Z</time>
      </trkpt>
      <trkpt lat="41.549088000" lon="1.870320000">
        <ele>233.00</ele>
        <time>2011-05-25T13:55:56Z</time>
      </trkpt>
      <trkpt lat="41.549027000" lon="1.870415000">
        <ele>231.00</ele>
        <time>2011-05-25T13:55:59Z</time>
      </trkpt>
      <trkpt lat="41.548988000" lon="1.870433000">
        <ele>232.00</ele>
        <time>2011-05-25T13:56:01Z</time>
      </trkpt>
      <trkpt lat="41.548943000" lon="1.870353000">
        <ele>231.50</ele>
        <time>2011-05-25T13:56:04Z</time>
      </trkpt>
      <trkpt lat="41.548905000" lon="1.870317000">
        <ele>236.00</ele>
        <time>2011-05-25T13:56:08Z</time>
      </trkpt>
      <trkpt lat="41.548875000" lon="1.870307000">
        <ele>237.00</ele>
        <time>2011-05-25T13:56:08Z</time>
      </trkpt>
      <trkpt lat="41.548780000" lon="1.870337000">
        <ele>238.50</ele>
        <time>2011-05-25T13:56:11Z</time>
      </trkpt>
      <trkpt lat="41.548758000" lon="1.870360000">
        <ele>239.50</ele>
        <time>2011-05-25T13:56:13Z</time>
      </trkpt>
      <trkpt lat="41.548535000" lon="1.870650000">
        <ele>239.50</ele>
        <time>2011-05-25T13:56:22Z</time>
      </trkpt>
      <trkpt lat="41.548410000" lon="1.870803000">
        <ele>238.00</ele>
        <time>2011-05-25T13:56:25Z</time>
      </trkpt>
      <trkpt lat="41.548247000" lon="1.871005000">
        <ele>238.00</ele>
        <time>2011-05-25T13:56:30Z</time>
      </trkpt>
      <trkpt lat="41.548182000" lon="1.871087000">
        <ele>236.50</ele>
        <time>2011-05-25T13:56:32Z</time>
      </trkpt>
      <trkpt lat="41.547637000" lon="1.871705000">
        <ele>236.00</ele>
        <time>2011-05-25T13:56:46Z</time>
      </trkpt>
      <trkpt lat="41.547515000" lon="1.871832000">
        <ele>235.50</ele>
        <time>2011-05-25T13:56:50Z</time>
      </trkpt>
      <trkpt lat="41.547463000" lon="1.871848000">
        <ele>234.00</ele>
        <time>2011-05-25T13:56:50Z</time>
      </trkpt>
      <trkpt lat="41.547178000" lon="1.871958000">
        <ele>234.00</ele>
        <time>2011-05-25T13:56:58Z</time>
      </trkpt>
      <trkpt lat="41.546835000" lon="1.871920000">
        <ele>234.00</ele>
        <time>2011-05-25T13:57:05Z</time>
      </trkpt>
      <trkpt lat="41.546128000" lon="1.871845000">
        <ele>236.50</ele>
        <time>2011-05-25T13:57:21Z</time>
      </trkpt>
      <trkpt lat="41.545728000" lon="1.872027000">
        <ele>238.50</ele>
        <time>2011-05-25T13:57:31Z</time>
      </trkpt>
      <trkpt lat="41.545298000" lon="1.872240000">
        <ele>239.00</ele>
        <time>2011-05-25T13:57:42Z</time>
      </trkpt>
      <trkpt lat="41.545202000" lon="1.872248000">
        <ele>239.50</ele>
        <time>2011-05-25T13:57:44Z</time>
      </trkpt>
      <trkpt lat="41.544817000" lon="1.872125000">
        <ele>239.00</ele>
        <time>2011-05-25T13:57:52Z</time>
      </trkpt>
      <trkpt lat="41.544757000" lon="1.872112000">
        <ele>240.00</ele>
        <time>2011-05-25T13:57:52Z</time>
      </trkpt>
      <trkpt lat="41.544640000" lon="1.872095000">
        <ele>240.00</ele>
        <time>2011-05-25T13:57:54Z</time>
      </trkpt>
      <trkpt lat="41.544518000" lon="1.872107000">
        <ele>240.00</ele>
        <time>2011-05-25T13:57:56Z</time>
      </trkpt>
      <trkpt lat="41.544470000" lon="1.872122000">
        <ele>241.00</ele>
        <time>2011-05-25T13:57:58Z</time>
      </trkpt>
      <trkpt lat="41.544322000" lon="1.872160000">
        <ele>240.00</ele>
        <time>2011-05-25T13:58:01Z</time>
      </trkpt>
      <trkpt lat="41.543868000" lon="1.872272000">
        <ele>242.50</ele>
        <time>2011-05-25T13:58:10Z</time>
      </trkpt>
      <trkpt lat="41.543780000" lon="1.872292000">
        <ele>239.50</ele>
        <time>2011-05-25T13:58:13Z</time>
      </trkpt>
      <trkpt lat="41.543672000" lon="1.872360000">
        <ele>238.50</ele>
        <time>2011-05-25T13:58:15Z</time>
      </trkpt>
      <trkpt lat="41.543350000" lon="1.872693000">
        <ele>241.50</ele>
        <time>2011-05-25T13:58:25Z</time>
      </trkpt>
      <trkpt lat="41.542938000" lon="1.873182000">
        <ele>241.50</ele>
        <time>2011-05-25T13:58:39Z</time>
      </trkpt>
      <trkpt lat="41.542823000" lon="1.873700000">
        <ele>241.50</ele>
        <time>2011-05-25T13:58:50Z</time>
      </trkpt>
      <trkpt lat="41.542775000" lon="1.873837000">
        <ele>238.50</ele>
        <time>2011-05-25T13:58:53Z</time>
      </trkpt>
      <trkpt lat="41.542663000" lon="1.874207000">
        <ele>238.50</ele>
        <time>2011-05-25T13:59:00Z</time>
      </trkpt>
      <trkpt lat="41.542582000" lon="1.874572000">
        <ele>235.00</ele>
        <time>2011-05-25T13:59:07Z</time>
      </trkpt>
      <trkpt lat="41.542565000" lon="1.874615000">
        <ele>236.00</ele>
        <time>2011-05-25T13:59:09Z</time>
      </trkpt>
      <trkpt lat="41.542515000" lon="1.874807000">
        <ele>236.00</ele>
        <time>2011-05-25T13:59:12Z</time>
      </trkpt>
      <trkpt lat="41.542473000" lon="1.874948000">
        <ele>237.50</ele>
        <time>2011-05-25T13:59:16Z</time>
      </trkpt>
      <trkpt lat="41.542453000" lon="1.875105000">
        <ele>238.50</ele>
        <time>2011-05-25T13:59:18Z</time>
      </trkpt>
      <trkpt lat="41.542443000" lon="1.875210000">
        <ele>238.50</ele>
        <time>2011-05-25T13:59:21Z</time>
      </trkpt>
      <trkpt lat="41.542433000" lon="1.875442000">
        <ele>237.50</ele>
        <time>2011-05-25T13:59:25Z</time>
      </trkpt>
      <trkpt lat="41.542425000" lon="1.875503000">
        <ele>238.00</ele>
        <time>2011-05-25T13:59:25Z</time>
      </trkpt>
      <trkpt lat="41.542395000" lon="1.875843000">
        <ele>235.00</ele>
        <time>2011-05-25T13:59:30Z</time>
      </trkpt>
      <trkpt lat="41.542278000" lon="1.876592000">
        <ele>233.50</ele>
        <time>2011-05-25T13:59:42Z</time>
      </trkpt>
      <trkpt lat="41.542273000" lon="1.876663000">
        <ele>232.50</ele>
        <time>2011-05-25T13:59:42Z</time>
      </trkpt>
      <trkpt lat="41.542233000" lon="1.877087000">
        <ele>232.50</ele>
        <time>2011-05-25T13:59:49Z</time>
      </trkpt>
      <trkpt lat="41.541993000" lon="1.877797000">
        <ele>233.00</ele>
        <time>2011-05-25T13:59:58Z</time>
      </trkpt>
      <trkpt lat="41.541935000" lon="1.877863000">
        <ele>235.00</ele>
        <time>2011-05-25T13:59:58Z</time>
      </trkpt>
      <trkpt lat="41.541818000" lon="1.878042000">
        <ele>234.50</ele>
        <time>2011-05-25T14:00:01Z</time>
      </trkpt>
      <trkpt lat="41.541657000" lon="1.878365000">
        <ele>228.50</ele>
        <time>2011-05-25T14:00:08Z</time>
      </trkpt>
      <trkpt lat="41.541593000" lon="1.878475000">
        <ele>227.50</ele>
        <time>2011-05-25T14:00:10Z</time>
      </trkpt>
      <trkpt lat="41.541472000" lon="1.878720000">
        <ele>227.50</ele>
        <time>2011-05-25T14:00:15Z</time>
      </trkpt>
      <trkpt lat="41.541485000" lon="1.878773000">
        <ele>229.00</ele>
        <time>2011-05-25T14:00:15Z</time>
      </trkpt>
      <trkpt lat="41.541423000" lon="1.878938000">
        <ele>229.00</ele>
        <time>2011-05-25T14:00:19Z</time>
      </trkpt>
      <trkpt lat="41.541352000" lon="1.879172000">
        <ele>230.50</ele>
        <time>2011-05-25T14:00:22Z</time>
      </trkpt>
      <trkpt lat="41.541270000" lon="1.879475000">
        <ele>229.00</ele>
        <time>2011-05-25T14:00:27Z</time>
      </trkpt>
      <trkpt lat="41.541242000" lon="1.879590000">
        <ele>229.50</ele>
        <time>2011-05-25T14:00:29Z</time>
      </trkpt>
      <trkpt lat="41.541187000" lon="1.879930000">
        <ele>226.50</ele>
        <time>2011-05-25T14:00:36Z</time>
      </trkpt>
      <trkpt lat="41.541142000" lon="1.880142000">
        <ele>226.50</ele>
        <time>2011-05-25T14:00:40Z</time>
      </trkpt>
      <trkpt lat="41.541110000" lon="1.880318000">
        <ele>225.00</ele>
        <time>2011-05-25T14:00:43Z</time>
      </trkpt>
      <trkpt lat="41.541097000" lon="1.880377000">
        <ele>223.00</ele>
        <time>2011-05-25T14:00:48Z</time>
      </trkpt>
      <trkpt lat="41.541092000" lon="1.880372000">
        <ele>224.00</ele>
        <time>2011-05-25T14:00:54Z</time>
      </trkpt>
      <trkpt lat="41.541090000" lon="1.880380000">
        <ele>222.00</ele>
        <time>2011-05-25T14:01:02Z</time>
      </trkpt>
      <trkpt lat="41.541090000" lon="1.880387000">
        <ele>222.50</ele>
        <time>2011-05-25T14:01:02Z</time>
      </trkpt>
      <trkpt lat="41.541088000" lon="1.880412000">
        <ele>221.50</ele>
        <time>2011-05-25T14:01:04Z</time>
      </trkpt>
      <trkpt lat="41.541132000" lon="1.880487000">
        <ele>219.50</ele>
        <time>2011-05-25T14:01:06Z</time>
      </trkpt>
      <trkpt lat="41.541320000" lon="1.880602000">
        <ele>218.50</ele>
        <time>2011-05-25T14:01:13Z</time>
      </trkpt>
      <trkpt lat="41.541388000" lon="1.880645000">
        <ele>219.00</ele>
        <time>2011-05-25T14:01:14Z</time>
      </trkpt>
      <trkpt lat="41.541490000" lon="1.880700000">
        <ele>222.00</ele>
        <time>2011-05-25T14:01:18Z</time>
      </trkpt>
      <trkpt lat="41.541670000" lon="1.880812000">
        <ele>224.00</ele>
        <time>2011-05-25T14:01:23Z</time>
      </trkpt>
      <trkpt lat="41.542150000" lon="1.881113000">
        <ele>226.00</ele>
        <time>2011-05-25T14:01:35Z</time>
      </trkpt>
      <trkpt lat="41.542458000" lon="1.881303000">
        <ele>226.00</ele>
        <time>2011-05-25T14:01:44Z</time>
      </trkpt>
      <trkpt lat="41.542838000" lon="1.881555000">
        <ele>228.00</ele>
        <time>2011-05-25T14:01:54Z</time>
      </trkpt>
      <trkpt lat="41.543037000" lon="1.881655000">
        <ele>232.00</ele>
        <time>2011-05-25T14:02:03Z</time>
      </trkpt>
      <trkpt lat="41.543360000" lon="1.881880000">
        <ele>234.00</ele>
        <time>2011-05-25T14:02:15Z</time>
      </trkpt>
      <trkpt lat="41.543488000" lon="1.881962000">
        <ele>238.50</ele>
        <time>2011-05-25T14:02:22Z</time>
      </trkpt>
      <trkpt lat="41.543668000" lon="1.882073000">
        <ele>240.50</ele>
        <time>2011-05-25T14:02:29Z</time>
      </trkpt>
      <trkpt lat="41.543740000" lon="1.882212000">
        <ele>242.00</ele>
        <time>2011-05-25T14:02:33Z</time>
      </trkpt>
      <trkpt lat="41.543725000" lon="1.882337000">
        <ele>243.50</ele>
        <time>2011-05-25T14:02:36Z</time>
      </trkpt>
      <trkpt lat="41.543753000" lon="1.882690000">
        <ele>243.50</ele>
        <time>2011-05-25T14:02:43Z</time>
      </trkpt>
      <trkpt lat="41.543875000" lon="1.882937000">
        <ele>243.50</ele>
        <time>2011-05-25T14:02:48Z</time>
      </trkpt>
      <trkpt lat="41.544095000" lon="1.883102000">
        <ele>242.50</ele>
        <time>2011-05-25T14:02:55Z</time>
      </trkpt>
      <trkpt lat="41.544158000" lon="1.883123000">
        <ele>242.00</ele>
        <time>2011-05-25T14:02:57Z</time>
      </trkpt>
      <trkpt lat="41.544348000" lon="1.883130000">
        <ele>243.00</ele>
        <time>2011-05-25T14:02:59Z</time>
      </trkpt>
      <trkpt lat="41.544537000" lon="1.883182000">
        <ele>242.50</ele>
        <time>2011-05-25T14:03:02Z</time>
      </trkpt>
      <trkpt lat="41.544765000" lon="1.883510000">
        <ele>242.50</ele>
        <time>2011-05-25T14:03:08Z</time>
      </trkpt>
      <trkpt lat="41.544837000" lon="1.883550000">
        <ele>242.50</ele>
        <time>2011-05-25T14:03:09Z</time>
      </trkpt>
      <trkpt lat="41.545413000" lon="1.883915000">
        <ele>241.50</ele>
        <time>2011-05-25T14:03:16Z</time>
      </trkpt>
      <trkpt lat="41.545467000" lon="1.883962000">
        <ele>240.50</ele>
        <time>2011-05-25T14:03:18Z</time>
      </trkpt>
      <trkpt lat="41.545490000" lon="1.884038000">
        <ele>240.00</ele>
        <time>2011-05-25T14:03:18Z</time>
      </trkpt>
      <trkpt lat="41.545507000" lon="1.884407000">
        <ele>240.00</ele>
        <time>2011-05-25T14:03:23Z</time>
      </trkpt>
      <trkpt lat="41.545268000" lon="1.884753000">
        <ele>240.00</ele>
        <time>2011-05-25T14:03:32Z</time>
      </trkpt>
      <trkpt lat="41.545242000" lon="1.884788000">
        <ele>241.00</ele>
        <time>2011-05-25T14:03:34Z</time>
      </trkpt>
      <trkpt lat="41.545057000" lon="1.884992000">
        <ele>241.00</ele>
        <time>2011-05-25T14:03:39Z</time>
      </trkpt>
      <trkpt lat="41.544698000" lon="1.885452000">
        <ele>244.00</ele>
        <time>2011-05-25T14:03:55Z</time>
      </trkpt>
      <trkpt lat="41.544607000" lon="1.885567000">
        <ele>243.50</ele>
        <time>2011-05-25T14:04:00Z</time>
      </trkpt>
      <trkpt lat="41.544583000" lon="1.885592000">
        <ele>243.50</ele>
        <time>2011-05-25T14:04:00Z</time>
      </trkpt>
      <trkpt lat="41.544443000" lon="1.885717000">
        <ele>246.50</ele>
        <time>2011-05-25T14:04:07Z</time>
      </trkpt>
      <trkpt lat="41.544435000" lon="1.885722000">
        <ele>247.50</ele>
        <time>2011-05-25T14:04:09Z</time>
      </trkpt>
      <trkpt lat="41.544428000" lon="1.885722000">
        <ele>249.00</ele>
        <time>2011-05-25T14:04:14Z</time>
      </trkpt>
      <trkpt lat="41.544407000" lon="1.885722000">
        <ele>248.00</ele>
        <time>2011-05-25T14:04:42Z</time>
      </trkpt>
      <trkpt lat="41.544395000" lon="1.885697000">
        <ele>252.00</ele>
        <time>2011-05-25T14:05:15Z</time>
      </trkpt>
      <trkpt lat="41.544397000" lon="1.885700000">
        <ele>249.50</ele>
        <time>2011-05-25T14:05:39Z</time>
      </trkpt>
      <trkpt lat="41.544375000" lon="1.885703000">
        <ele>247.00</ele>
        <time>2011-05-25T14:07:06Z</time>
      </trkpt>
      <trkpt lat="41.544370000" lon="1.885700000">
        <ele>247.50</ele>
        <time>2011-05-25T14:07:17Z</time>
      </trkpt>
      <trkpt lat="41.544370000" lon="1.885712000">
        <ele>248.50</ele>
        <time>2011-05-25T14:07:31Z</time>
      </trkpt>
      <trkpt lat="41.544388000" lon="1.885768000">
        <ele>250.00</ele>
        <time>2011-05-25T14:07:34Z</time>
      </trkpt>
      <trkpt lat="41.544432000" lon="1.885935000">
        <ele>251.00</ele>
        <time>2011-05-25T14:07:38Z</time>
      </trkpt>
      <trkpt lat="41.544452000" lon="1.885958000">
        <ele>251.00</ele>
        <time>2011-05-25T14:07:39Z</time>
      </trkpt>
      <trkpt lat="41.544472000" lon="1.885970000">
        <ele>252.00</ele>
        <time>2011-05-25T14:07:41Z</time>
      </trkpt>
      <trkpt lat="41.544632000" lon="1.886072000">
        <ele>252.00</ele>
        <time>2011-05-25T14:07:55Z</time>
      </trkpt>
      <trkpt lat="41.544633000" lon="1.886088000">
        <ele>251.00</ele>
        <time>2011-05-25T14:07:59Z</time>
      </trkpt>
      <trkpt lat="41.544620000" lon="1.886075000">
        <ele>254.00</ele>
        <time>2011-05-25T14:08:00Z</time>
      </trkpt>
    </trkseg>
  </trk>
</gpx>
